GFSMA_prec_cthk_000.txt.gz
RH
18 17 17 20 20 19 20 23 23 21 22 20 20 21 21 22 23 23 23 23 23 23 22 22 21 20 20 20 20 20 20 20 20 20 20 21 22 23 24 26 29 31 34
19 19 18 20 21 21 21 22 22 22 21 21 21 21 21 22 22 23 24 24 25 25 25 25 23 23 22 22 22 22 22 21 22 22 22 23 24 25 26 28 33 36 37
20 20 20 21 23 22 21 22 23 25 26 25 23 23 23 22 22 22 24 25 26 27 27 27 26 25 25 24 23 24 24 24 24 25 25 25 26 27 29 33 36 40 40
22 21 20 20 21 22 23 24 24 25 26 26 26 26 26 25 24 24 25 24 26 28 28 28 28 26 26 28 28 27 26 26 26 28 29 29 29 30 34 39 43 43 43
19 20 20 21 22 23 24 25 26 28 28 30 31 30 28 27 27 27 27 27 27 28 29 29 30 29 28 30 34 35 33 28 28 30 31 31 32 35 41 45 46 46 45
21 20 19 21 23 23 22 23 26 30 32 32 34 35 34 32 31 32 30 30 30 31 31 31 30 31 29 30 32 36 38 31 33 34 34 33 38 43 48 49 50 50 53
24 20 21 21 23 24 24 24 28 31 33 36 40 39 39 38 36 36 36 35 33 34 34 33 31 33 31 34 34 39 43 43 39 36 38 41 43 48 51 54 53 53 53
26 23 23 24 24 25 26 26 29 32 37 41 42 46 44 39 36 37 37 37 36 40 40 42 41 39 36 35 38 43 52 50 49 50 47 48 50 56 56 55 54 52 62
30 30 29 29 29 28 27 31 36 39 41 43 45 48 48 42 39 39 40 42 43 46 50 49 45 42 42 42 49 51 61 59 60 56 54 56 56 58 60 61 55 59 64
29 27 26 28 33 35 37 38 40 38 41 41 45 46 47 47 51 50 48 50 55 59 56 54 51 48 49 50 55 59 62 61 64 60 61 62 61 60 62 64 57 56 60
36 35 32 34 35 38 40 41 41 42 44 48 46 47 49 53 53 60 58 58 61 60 62 62 60 60 54 54 60 62 62 64 64 64 66 66 65 63 65 63 57 56 61
38 40 41 40 41 43 44 45 44 47 49 51 49 48 52 56 55 62 63 63 64 62 64 64 63 66 65 64 61 63 65 64 67 68 68 67 68 65 66 64 59 60 61
42 45 47 47 45 45 44 46 48 49 51 52 52 53 55 56 60 64 67 63 65 64 65 61 61 63 67 68 68 65 63 66 69 68 71 70 70 67 71 65 61 62 63
41 43 46 48 49 49 48 51 55 57 58 60 59 60 63 64 69 71 72 74 73 69 68 62 63 65 67 69 71 72 70 71 71 73 71 74 74 72 74 67 65 64 65
38 37 39 43 47 54 56 60 61 60 59 60 63 67 69 71 75 75 74 74 79 72 69 65 61 66 66 70 76 77 78 74 74 75 75 78 79 76 76 73 67 69 70
45 46 46 47 48 49 51 56 59 63 69 70 70 71 71 72 74 75 77 74 79 78 74 73 71 69 74 69 80 86 82 81 79 78 78 81 81 81 80 77 70 73 71
48 52 54 55 54 55 57 56 57 60 62 67 72 74 77 80 83 82 82 82 83 82 84 61 75 80 78 79 82 92 87 85 84 79 76 81 84 84 81 74 71 72 66
43 42 42 44 49 55 60 63 63 64 66 67 69 72 79 85 86 93 93 93 92 92 89 76 78 83 80 85 87 93 95 89 90 78 77 79 80 82 88 75 71 69 66
42 41 40 40 41 44 48 50 54 58 63 67 70 73 72 76 78 82 88 87 85 88 85 90 78 90 88 88 91 96 98 95 95 88 77 80 82 89 91 74 71 68 66
44 42 40 38 37 38 41 43 50 57 60 61 62 64 66 69 72 76 82 81 82 90 88 88 86 88 85 86 93 97 94 94 98 96 87 86 86 93 83 73 72 69 64
46 45 43 42 43 42 40 43 44 46 51 53 56 60 64 66 67 68 80 78 83 88 95 98 92 92 87 88 91 97 97 97 96 98 95 90 95 90 76 73 71 68 61
48 47 46 46 45 45 45 44 47 50 47 46 48 50 57 61 64 66 71 79 83 86 94 98 97 87 88 91 94 97 98 98 98 98 98 93 93 83 74 74 71 66 57
47 48 49 49 48 46 47 51 55 54 53 50 50 50 51 57 64 70 71 74 76 80 88 98 92 93 89 90 94 96 98 98 97 98 98 97 86 78 75 75 68 61 52
43 42 42 45 47 49 53 58 55 52 45 44 48 50 53 54 61 72 79 76 76 77 89 94 91 90 89 99 97 98 97 98 97 98 97 90 86 80 75 73 66 56 47
37 38 40 42 47 49 51 46 44 41 39 39 46 48 52 55 56 63 71 78 84 90 89 87 97 91 98 95 98 98 98 98 98 98 93 87 80 75 76 70 61 47 34
26 26 25 30 37 42 41 40 39 42 42 43 39 39 47 54 56 63 69 74 89 93 93 92 94 95 97 98 98 99 96 98 98 96 94 90 83 79 69 65 51 39 24

GFSMA_prec_cthk_003.txt.gz
RH
22 20 20 19 16 14 16 17 16 17 17 16 18 20 20 20 20 19 20 21 21 23 24 25 26 27 28 28 27 25 24 26 25 22 23 21 21 21 21 21 23 26 33
21 21 22 19 16 14 14 17 18 19 19 20 19 21 21 21 21 21 21 21 22 23 24 25 26 27 28 29 29 29 26 25 26 27 26 25 25 26 25 27 28 34 37
23 20 20 20 18 18 16 17 17 19 22 23 22 22 22 22 21 23 23 23 23 23 23 25 25 27 28 29 29 30 31 29 29 31 32 30 29 34 30 30 32 38 41
26 27 24 19 21 21 21 21 21 20 20 22 23 24 24 25 24 25 25 25 26 26 25 25 25 26 28 30 30 32 35 32 30 32 36 37 37 34 34 34 34 40 46
24 26 27 26 23 24 24 24 23 22 20 22 25 27 28 28 28 30 28 27 28 28 28 27 27 28 30 31 34 35 36 37 34 37 38 40 44 38 39 38 40 46 50
27 29 30 31 29 29 29 30 29 29 28 27 29 30 31 34 36 34 33 32 32 33 33 33 34 34 33 34 37 35 36 38 40 40 40 47 49 45 44 43 46 52 54
31 34 36 35 32 31 30 31 32 30 28 30 35 35 40 40 37 36 36 35 37 39 41 41 41 40 43 43 40 38 37 38 39 39 42 52 51 49 53 54 58 58 59
35 37 38 34 33 33 32 30 33 33 31 35 43 48 44 39 36 36 37 39 41 43 42 45 49 51 49 48 47 45 42 40 40 41 50 53 52 58 60 64 67 63 63
38 41 42 41 40 38 37 36 41 46 46 45 48 52 50 46 41 39 39 43 45 45 48 53 53 52 54 52 48 46 45 46 46 50 59 64 61 63 61 66 71 67 63
41 42 44 46 46 46 45 46 47 49 51 52 53 51 54 55 55 49 44 49 52 50 53 56 56 55 55 54 52 51 49 52 54 58 64 67 64 68 70 73 73 71 70
44 44 45 47 49 51 53 54 55 55 55 56 54 54 57 62 62 59 55 49 52 55 56 58 58 60 60 57 58 63 59 56 60 64 68 67 68 68 74 77 82 76 67
42 45 46 49 50 54 56 55 57 59 56 59 60 62 65 64 61 66 62 58 58 58 58 59 62 63 65 62 63 62 66 59 60 64 67 67 69 72 75 82 82 71 70
34 36 42 47 46 47 53 58 57 58 56 61 65 69 71 73 74 73 72 68 68 64 65 62 63 65 65 67 65 62 68 71 65 67 68 67 70 72 81 82 77 72 74
38 38 37 38 40 44 47 50 53 56 59 63 70 73 77 81 82 81 84 85 82 79 80 70 70 66 69 70 71 69 69 73 72 71 74 71 70 76 77 79 81 78 76
44 44 46 47 49 51 51 50 51 54 57 62 67 72 80 79 85 85 87 90 93 89 81 79 74 70 69 71 72 72 73 74 77 82 85 80 75 75 78 81 83 81 82
42 42 42 42 41 42 46 51 54 56 58 58 58 59 63 71 77 79 84 87 93 96 89 86 78 76 79 78 74 74 77 81 83 89 93 90 87 91 86 90 87 86 85
43 43 42 42 42 42 42 43 45 48 51 54 59 64 65 67 69 73 74 75 83 89 93 77 80 78 78 78 81 77 77 81 86 91 91 92 95 97 96 89 95 87 88
41 42 42 43 42 42 43 42 42 42 51 55 59 61 61 62 64 66 69 71 75 82 91 86 80 84 83 80 84 76 82 82 83 93 92 92 93 97 98 96 97 91 89
42 42 44 46 46 47 49 48 48 50 51 49 50 52 52 52 54 56 58 61 62 63 74 85 81 86 84 85 92 88 90 91 86 89 98 91 92 99 98 98 97 97 93
41 42 44 44 46 47 46 48 50 49 47 47 48 49 47 48 52 53 57 61 65 68 71 73 79 78 85 80 87 92 88 91 95 95 93 98 93 96 96 99 98 94 92
41 41 41 40 42 44 48 49 48 50 51 51 50 49 48 46 47 50 56 59 69 73 72 71 71 74 80 91 80 98 96 95 92 95 98 97 97 96 98 98 95 97 80
33 35 40 42 41 42 42 44 51 53 56 54 51 44 44 46 48 51 53 58 64 69 75 79 72 73 68 80 95 98 91 98 98 93 97 94 99 95 98 99 97 86 80
30 29 31 30 34 35 38 49 58 57 53 51 48 46 45 48 45 48 48 48 50 54 69 74 73 73 75 76 94 99 88 90 95 95 98 97 99 98 98 98 91 88 81
31 33 32 31 32 26 36 53 59 59 51 45 44 45 43 40 42 47 53 49 48 49 53 60 67 69 81 85 87 92 91 98 98 97 98 98 99 99 98 97 95 80 77
29 27 26 26 25 26 40 45 44 43 40 39 43 48 43 40 43 48 56 55 48 44 51 56 60 62 73 89 97 97 95 98 98 98 98 99 99 98 97 95 83 80 69
24 24 22 21 22 27 33 32 29 22 25 30 40 42 42 44 44 49 60 59 54 50 54 54 57 62 75 91 96 99 97 99 99 99 99 98 99 97 96 94 82 70 57

GFSMA_prec_cthk_006.txt.gz
RH
23 22 22 22 21 20 18 16 15 15 16 18 19 18 19 21 21 22 21 20 20 21 23 24 25 25 25 25 26 26 28 30 31 31 31 31 27 27 29 28 27 25 27
28 28 28 25 21 22 22 20 18 18 17 17 19 21 22 23 23 23 22 21 20 21 24 24 25 25 27 27 28 27 28 30 32 34 36 36 33 30 28 33 33 40 38
26 27 27 29 29 27 26 27 27 25 24 23 21 22 22 22 22 22 23 22 22 24 25 25 26 27 27 29 31 32 34 33 33 35 36 38 39 36 35 37 41 45 44
28 29 29 29 31 32 31 27 28 29 28 27 26 26 26 25 26 26 26 27 29 29 28 28 28 28 29 30 32 35 38 39 42 39 37 40 42 43 40 40 42 47 51
30 32 31 31 33 34 35 33 31 32 32 31 31 31 30 30 30 31 31 33 36 34 32 32 32 33 34 34 35 38 41 44 46 45 42 42 41 43 46 46 47 53 53
32 33 33 34 37 39 38 36 35 36 36 36 37 36 35 33 33 32 35 40 39 37 37 38 39 41 42 42 44 45 45 44 43 44 45 43 44 46 47 47 53 59 56
39 40 40 40 41 43 43 40 40 39 36 37 42 37 36 35 35 36 39 42 41 42 43 44 45 45 45 50 51 53 50 47 45 43 43 44 43 45 45 47 58 58 60
41 42 42 43 44 44 44 44 44 44 43 43 46 50 48 42 38 38 39 41 39 41 42 46 49 47 50 51 52 53 55 55 51 48 48 46 44 43 44 50 58 62 69
45 45 45 45 45 46 47 49 51 52 53 52 52 58 60 57 53 47 46 49 50 49 48 47 48 52 52 54 54 53 57 56 52 51 52 50 48 47 48 57 63 68 72
42 43 44 45 45 47 48 50 54 55 57 57 59 56 57 61 62 57 49 52 57 56 54 55 57 54 55 59 59 60 61 59 56 53 51 51 54 56 59 63 67 74 80
39 41 42 43 44 46 45 51 53 56 56 54 56 58 58 58 61 64 63 59 64 62 64 65 65 63 63 64 62 62 64 65 62 64 57 53 58 61 66 67 78 84 83
33 33 34 37 41 43 43 44 50 53 56 61 70 70 73 74 71 75 77 75 74 73 74 72 71 69 69 72 66 63 67 70 68 68 66 59 62 65 69 73 77 86 84
40 42 43 44 45 46 47 50 51 53 56 63 68 75 80 83 87 88 89 84 89 84 82 78 73 71 69 71 74 71 69 68 72 73 72 64 62 68 68 72 76 81 85
37 36 36 36 37 38 41 44 47 51 54 56 58 59 63 69 74 81 86 89 90 86 84 83 86 80 77 77 78 73 73 72 69 77 77 74 68 68 70 72 74 79 85
35 34 34 34 34 35 36 37 37 38 41 46 49 53 58 61 63 64 67 75 81 78 74 76 83 84 80 78 76 77 79 74 78 79 76 80 79 78 73 77 83 83 89
36 36 36 36 37 38 38 39 38 38 39 39 42 48 53 58 60 62 64 69 77 84 78 72 70 77 83 82 80 84 82 84 84 79 78 86 83 85 83 86 88 86 87
39 38 38 38 39 40 42 43 44 44 45 47 49 52 52 54 55 58 60 61 62 67 73 55 65 66 71 72 80 80 87 88 85 88 84 82 84 87 91 92 92 93 93
39 38 37 37 40 40 42 46 46 50 53 53 54 56 56 57 55 55 56 57 58 59 67 66 55 59 62 60 65 71 78 83 88 91 91 86 85 88 90 94 95 97 97
34 33 33 33 33 36 39 41 48 53 50 52 53 54 55 56 55 55 54 56 56 55 58 63 56 58 59 59 61 63 69 78 85 96 93 90 91 87 92 95 99 96 97
24 23 22 22 23 25 25 29 33 38 43 46 48 52 53 52 51 47 51 53 55 59 60 63 68 65 64 63 68 66 65 69 74 93 97 98 91 89 99 98 97 97 98
23 23 21 22 22 23 26 31 33 37 43 45 44 43 42 44 45 52 51 48 54 61 60 62 62 69 72 69 72 71 68 68 65 94 95 98 98 96 93 97 98 94 98
23 23 23 23 24 26 28 26 27 37 41 42 43 43 41 42 43 41 42 46 50 58 59 60 57 55 54 59 69 74 77 77 74 70 83 90 97 96 96 97 99 96 98
25 27 28 27 26 24 23 25 32 41 40 39 39 38 36 36 43 42 39 40 43 50 58 63 60 55 56 55 62 66 69 70 79 83 84 94 97 97 99 96 98 99 99
28 27 24 23 21 19 19 26 30 30 31 28 31 30 27 32 35 40 40 42 42 49 54 60 61 54 56 56 62 66 71 70 72 83 87 95 96 98 97 98 98 98 98
27 24 22 20 19 21 23 23 21 17 16 18 19 16 22 29 31 42 52 52 51 51 56 61 59 56 57 58 66 74 74 76 71 82 93 97 99 96 99 99 98 98 98
24 24 23 24 24 24 24 24 26 26 26 26 27 27 31 31 33 34 44 53 61 64 64 58 58 57 64 64 67 75 78 81 86 90 99 99 98 99 98 98 98 98 98

GFSMA_prec_cthk_009.txt.gz
RH
29 30 31 32 31 29 28 28 27 25 24 22 19 18 18 17 18 20 21 22 23 22 22 22 28 29 31 33 30 28 28 28 28 29 31 32 34 35 34 35 34 34 33
29 30 31 31 32 33 33 32 30 30 30 29 27 26 24 23 21 20 22 23 23 23 22 22 23 30 35 39 36 35 35 32 31 32 32 33 35 38 38 36 37 40 42
27 29 29 29 30 32 34 34 33 33 32 32 31 32 31 30 28 26 25 24 24 24 24 25 25 27 30 33 36 40 41 40 39 40 38 37 40 41 40 38 38 40 46
25 27 29 30 31 31 33 34 34 34 33 33 32 32 34 34 31 31 32 30 30 30 29 29 30 32 32 31 35 38 42 45 47 48 48 45 44 44 42 40 39 40 42
34 36 37 36 36 36 37 38 40 41 38 35 35 35 35 34 34 33 31 33 33 35 34 36 39 40 39 38 39 42 43 44 45 49 53 54 50 47 46 45 45 45 45
40 42 42 42 43 43 43 43 46 47 45 42 42 37 35 32 31 31 31 32 32 36 42 43 44 44 45 46 48 49 48 49 49 51 52 52 50 48 47 48 50 49 51
44 46 47 47 48 48 48 49 50 51 52 53 54 50 48 44 40 38 42 41 41 41 42 41 42 45 46 49 51 51 53 55 57 56 55 54 54 52 50 53 54 56 56
49 50 51 51 51 51 51 51 53 54 55 57 58 60 57 51 49 48 48 49 50 52 47 48 50 50 47 48 49 52 54 56 57 58 58 57 57 56 55 54 54 55 59
43 44 44 43 42 44 43 44 47 50 51 52 54 57 56 53 51 48 44 44 46 50 48 47 50 53 56 56 56 57 58 59 60 61 61 63 59 58 60 59 57 55 55
36 37 38 40 42 43 44 46 47 48 54 55 57 60 62 64 64 60 58 58 54 51 52 53 55 59 60 62 63 65 64 63 63 63 66 67 67 63 62 59 56 55 57
37 37 38 39 40 42 44 47 48 49 54 57 61 65 68 72 77 78 75 76 75 71 71 69 67 65 65 66 66 66 67 68 66 64 66 69 69 69 70 68 64 62 62
36 34 33 34 34 35 35 35 36 39 42 47 51 56 60 65 69 74 77 75 79 73 80 83 84 84 81 78 75 71 69 71 72 72 68 68 69 69 70 67 65 68 72
31 32 32 32 32 32 32 32 32 33 35 37 40 44 47 53 59 63 66 64 67 62 68 70 73 75 77 79 81 79 78 77 75 77 79 75 70 69 71 72 68 69 77
33 33 33 33 33 34 34 34 34 35 34 34 35 36 40 46 52 56 60 66 64 62 61 62 67 69 74 71 69 74 82 80 80 80 81 80 74 73 72 76 77 72 71
35 35 35 34 34 35 35 35 36 36 38 40 42 44 47 47 49 54 60 67 78 75 64 61 68 67 70 73 77 79 81 81 85 85 85 88 84 81 79 80 80 80 72
36 35 34 33 31 31 32 33 34 35 37 41 45 46 48 51 53 57 62 67 71 78 80 62 65 66 67 68 67 67 65 72 77 87 91 91 91 93 87 86 83 85 82
33 31 29 26 24 23 23 24 26 29 35 38 39 43 45 52 56 59 64 64 63 66 72 57 60 58 57 58 60 62 63 64 64 67 73 80 91 95 96 92 91 90 87
27 24 22 21 19 19 18 18 18 22 25 24 26 32 38 43 43 46 48 51 52 56 66 66 53 55 58 59 57 59 63 64 66 62 65 70 76 89 95 96 91 87 90
23 22 21 20 20 19 20 20 21 23 23 25 30 38 44 43 42 42 42 47 47 42 43 51 56 57 58 58 60 61 64 65 63 68 68 68 73 76 88 96 96 90 91
24 24 22 21 21 22 23 22 23 25 27 30 33 40 41 42 43 41 46 50 45 40 44 49 51 53 53 52 61 65 63 70 74 66 68 65 70 71 78 87 95 95 96
24 23 22 22 24 25 26 24 23 24 28 27 27 29 30 31 31 34 41 37 38 37 38 43 48 52 52 55 60 59 58 56 55 55 55 58 67 70 72 76 94 95 99
25 25 26 27 28 28 26 24 24 25 25 22 23 24 26 27 28 31 32 35 40 46 42 42 43 48 48 61 60 58 58 57 48 51 53 56 64 60 74 74 89 92 97
28 30 33 33 31 28 25 23 25 27 25 23 23 22 19 20 22 25 24 25 26 30 38 47 51 53 56 59 61 59 60 59 53 49 57 51 57 55 66 88 94 92 97
35 37 35 32 29 27 25 25 26 25 25 25 25 24 25 27 29 31 30 32 32 24 22 35 54 63 62 61 66 65 60 59 53 49 58 57 59 57 60 88 97 96 98
31 30 30 29 27 25 25 26 28 29 29 29 31 32 34 33 33 35 37 34 31 25 27 36 46 58 64 67 72 74 68 68 59 54 56 64 62 67 68 89 99 98 98
31 30 28 26 24 23 24 29 34 37 38 42 45 44 39 37 38 37 39 39 45 46 45 38 40 59 69 73 76 81 79 73 67 61 56 72 84 79 76 98 98 99 99

GFSMA_prec_cthk_012.txt.gz
RH
30 31 31 31 31 32 33 34 33 32 31 31 31 29 28 27 25 22 20 18 18 20 21 21 21 23 28 30 36 31 29 29 29 30 30 30 32 33 34 35 37 42 44
27 28 28 29 30 32 32 32 33 33 32 32 31 32 33 33 32 31 28 25 24 21 21 22 22 22 22 28 34 38 38 37 34 33 33 33 35 36 36 36 37 43 44
24 25 26 28 31 34 35 34 33 34 35 35 33 33 33 33 32 32 30 28 28 29 28 26 25 24 24 25 29 32 40 47 53 53 52 50 46 42 38 38 40 40 40
36 36 35 35 36 38 39 39 40 40 40 41 41 41 38 36 34 33 33 33 31 29 30 32 33 31 29 28 31 38 40 40 42 46 52 57 58 59 62 62 53 46 45
39 40 42 42 43 44 45 47 47 50 49 49 49 47 46 43 40 38 35 33 34 34 32 30 34 38 40 43 44 44 45 46 46 47 49 50 51 53 56 56 60 61 59
43 46 48 49 51 51 51 52 52 54 54 53 53 51 53 51 49 47 48 47 46 43 43 43 43 42 46 49 51 51 50 49 50 51 52 52 54 55 54 59 61 57 59
49 50 51 52 52 50 48 48 49 48 47 49 50 45 45 44 45 45 46 44 44 45 45 46 48 47 44 43 44 43 45 48 50 53 54 55 57 58 59 59 58 63 64
44 43 42 42 41 40 40 41 44 46 47 49 51 52 50 48 46 48 49 49 51 50 50 49 48 50 53 51 49 48 50 49 50 51 52 53 56 58 59 61 62 61 59
36 37 37 37 38 39 39 41 43 45 49 49 52 56 55 53 54 52 51 50 53 54 60 63 63 58 58 60 59 58 59 63 64 62 58 56 57 57 57 60 61 62 61
36 37 38 38 36 33 32 32 33 34 36 38 42 48 53 57 59 53 54 58 60 58 62 67 69 73 73 69 68 67 68 69 70 72 74 69 61 61 61 63 64 68 69
34 31 29 28 29 29 29 29 29 30 31 31 33 35 38 41 46 54 48 46 49 52 53 58 62 73 82 87 89 84 80 77 78 78 76 79 74 66 68 69 72 71 72
30 30 31 32 33 33 32 32 32 32 32 33 33 34 35 38 39 43 50 48 48 45 48 50 52 54 59 68 73 86 92 90 85 88 87 90 82 80 76 74 74 77 74
31 32 33 33 33 33 32 32 31 31 32 32 33 35 38 41 44 46 49 49 50 46 45 45 51 55 60 64 69 76 79 84 88 90 94 95 92 88 85 85 84 87 80
34 34 33 33 32 30 28 26 25 25 25 27 29 34 37 39 42 46 52 58 55 52 49 48 54 57 62 67 68 72 77 77 82 85 88 94 96 96 93 90 91 87 83
36 32 29 26 24 22 21 19 19 19 20 23 28 32 33 34 39 46 55 62 70 69 56 43 55 54 60 60 60 64 66 70 76 76 80 85 89 96 99 98 95 90 87
29 26 23 21 20 19 19 19 19 19 19 22 22 21 21 24 31 38 40 44 47 58 61 43 43 50 55 59 59 61 60 59 58 62 68 75 80 83 87 96 97 94 92
24 22 22 21 21 21 21 19 18 18 18 18 20 21 25 30 38 42 42 45 45 49 61 46 47 42 40 42 47 55 61 65 65 60 61 64 68 76 79 84 92 96 98
24 24 23 22 22 22 21 19 18 18 20 21 24 28 32 35 37 39 39 41 42 51 55 50 36 34 35 36 40 44 48 51 58 63 65 66 72 68 78 77 79 83 92
26 24 23 22 21 21 21 21 22 23 26 28 34 33 30 30 30 31 31 32 41 49 48 43 33 30 28 28 31 36 41 46 50 56 61 69 74 84 77 77 77 74 77
26 25 24 22 22 24 26 27 29 30 31 33 35 32 29 28 27 28 29 30 39 45 46 46 41 34 28 26 32 32 34 43 49 52 56 59 59 63 73 70 71 73 75
25 24 23 24 25 27 26 25 25 26 28 30 28 26 25 23 25 28 34 31 35 39 43 44 44 37 33 27 30 33 39 38 49 57 59 55 56 55 59 56 61 72 76
24 24 24 23 21 23 24 24 27 27 26 25 24 23 24 25 28 32 34 35 42 44 42 39 40 34 32 29 32 38 46 45 41 56 61 59 62 61 55 46 45 54 63
22 20 20 21 22 21 18 17 24 25 25 24 24 25 27 31 36 37 35 39 42 44 43 39 40 36 36 32 43 46 44 50 47 50 63 55 59 54 54 49 45 47 55
19 21 21 19 17 17 17 20 26 25 25 26 30 32 38 36 36 44 48 49 49 42 35 42 44 51 54 59 56 46 54 56 52 53 61 59 61 56 54 51 49 51 54
22 19 18 18 18 16 19 25 29 31 32 33 32 34 44 41 42 51 54 51 45 38 33 31 39 46 49 44 49 60 62 69 59 58 59 61 57 57 53 48 52 52 59
20 19 18 19 19 19 20 26 35 37 36 34 38 41 40 47 49 52 52 54 50 38 34 32 33 37 44 54 63 75 76 72 75 67 64 68 62 60 56 53 56 65 65

GFSMA_prec_cthk_015.txt.gz
RH
27 28 29 30 31 31 31 30 31 32 32 33 33 32 31 30 30 29 27 27 28 26 23 20 19 20 20 21 24 26 27 32 30 26 24 26 28 29 29 31 33 35 39
27 27 28 29 30 32 33 34 35 35 35 35 35 36 36 35 34 31 29 26 26 27 27 26 24 22 21 22 25 26 27 28 35 38 32 32 33 31 30 32 34 36 38
33 32 31 32 36 38 40 40 41 41 40 41 40 41 41 42 42 42 38 35 33 32 33 33 33 33 32 29 28 28 27 26 29 36 44 56 57 49 44 41 39 38 39
39 40 41 42 43 44 46 47 47 47 46 46 46 46 45 46 46 47 47 45 43 41 39 39 42 41 40 40 41 42 41 38 37 37 41 45 49 55 60 62 64 65 63
43 44 46 48 50 51 51 50 49 48 46 44 44 42 43 42 42 42 43 44 45 44 43 43 42 42 44 46 46 47 48 48 48 47 45 45 44 46 48 52 55 59 64
46 47 49 50 50 49 48 47 44 42 41 40 41 39 39 39 38 37 37 40 42 45 47 48 48 48 48 49 51 52 52 53 54 53 52 51 50 50 51 52 53 54 58
43 44 43 42 40 39 38 39 38 39 39 40 40 38 37 37 37 40 41 41 41 43 43 45 50 52 51 51 53 57 57 57 55 51 50 54 55 54 54 55 56 58 62
36 37 38 38 37 36 36 35 33 30 28 29 35 37 39 35 37 40 40 38 41 42 46 52 55 55 57 59 60 60 63 65 64 61 57 51 51 53 56 57 60 61 63
38 37 37 36 34 30 27 26 26 27 27 28 29 35 38 38 35 31 32 34 35 38 40 41 46 52 60 65 69 72 70 68 71 71 69 66 63 61 61 62 62 64 65
35 34 32 29 28 28 29 30 30 30 30 31 30 31 32 33 36 30 31 31 31 34 34 35 37 39 44 50 58 65 75 79 81 81 83 80 75 72 70 68 68 67 70
32 30 31 31 31 31 31 30 30 30 29 29 30 31 31 32 36 38 32 35 35 37 35 35 33 37 41 46 47 53 62 75 85 95 98 93 86 86 86 82 81 75 72
31 31 32 32 30 27 25 24 23 21 21 21 22 24 30 34 39 43 42 35 35 33 39 41 42 39 42 43 51 54 62 68 76 88 91 94 96 98 96 96 94 91 84
33 31 28 25 23 21 20 19 19 18 18 17 17 19 23 26 28 30 34 33 37 31 34 38 45 50 52 54 59 63 65 71 78 82 86 91 95 96 97 97 97 97 96
28 25 22 22 21 20 19 18 17 17 17 17 18 19 20 19 20 24 31 38 42 42 37 32 38 43 48 52 53 55 55 56 57 58 61 76 84 88 91 94 94 95 94
27 24 23 21 20 19 19 18 19 19 19 19 19 18 19 20 24 30 36 50 53 56 38 26 36 40 47 45 44 45 44 48 58 63 68 64 61 65 78 87 90 91 93
28 23 22 22 22 21 20 20 20 19 18 19 19 20 22 24 27 32 37 43 51 57 56 37 34 42 44 39 37 38 39 37 37 40 45 56 68 69 68 72 81 85 85
25 24 24 22 22 21 20 20 20 19 20 20 20 22 27 28 26 25 28 33 36 38 42 31 36 38 40 34 30 30 24 23 29 33 37 39 45 55 73 70 69 75 82
25 24 23 23 22 21 21 20 18 16 15 16 19 23 22 23 23 25 27 31 37 41 43 48 50 40 37 37 36 34 27 26 21 20 26 38 40 49 52 71 76 74 77
26 24 23 22 22 21 18 15 15 15 15 15 18 19 18 19 19 21 24 28 34 37 42 46 46 43 43 46 39 36 36 27 23 21 24 25 31 37 45 56 70 79 81
25 23 22 21 19 16 16 16 14 13 14 17 19 19 19 21 22 26 31 34 39 40 39 40 41 38 33 32 34 32 29 26 23 26 31 31 27 29 38 50 58 70 78
24 22 19 17 17 17 15 14 15 16 18 18 18 19 21 23 27 34 40 38 42 40 44 46 43 45 41 32 32 31 34 28 28 37 37 26 33 31 38 49 59 58 59
20 18 18 18 16 15 15 15 17 22 23 23 21 21 24 28 33 37 37 39 46 54 52 56 54 49 43 42 42 44 49 52 51 44 34 32 43 40 39 43 52 60 60
20 20 19 17 17 16 16 18 26 25 25 25 27 29 28 35 40 38 37 45 44 43 43 51 53 54 51 39 47 51 57 62 63 48 38 45 44 48 46 48 55 58 61
22 20 18 18 17 17 19 22 26 26 26 29 33 32 36 39 39 43 47 53 41 33 38 43 49 47 47 45 47 51 49 47 42 40 58 62 55 55 54 54 56 61 62
20 19 19 19 18 19 21 25 29 30 27 31 33 37 42 37 43 51 61 52 41 35 36 43 44 44 44 43 52 56 54 63 58 55 72 73 64 65 63 58 58 62 61
20 20 19 19 20 21 21 26 33 32 32 34 38 42 39 42 48 59 64 57 44 39 42 39 31 31 43 48 59 69 72 77 80 70 75 76 76 74 65 61 60 64 63

GFSMA_prec_cthk_018.txt.gz
RH
28 30 31 32 33 35 34 34 34 36 36 37 38 38 37 37 37 37 35 32 29 28 27 26 25 24 21 19 18 19 20 25 27 28 29 29 26 22 22 23 25 30 32
32 33 33 33 34 35 36 37 38 39 39 40 40 41 41 42 41 42 43 43 42 41 38 36 35 33 31 30 29 26 25 25 27 31 37 35 35 32 28 25 28 31 31
37 37 37 39 40 43 41 43 45 47 48 49 48 48 47 45 44 44 46 45 45 43 43 42 41 40 41 41 39 37 35 34 31 30 31 33 37 42 46 42 39 36 34
40 41 42 44 46 47 49 50 51 49 48 48 47 45 44 42 41 41 42 42 41 42 42 43 45 46 46 45 44 45 46 44 42 42 41 38 38 46 47 50 52 56 56
41 42 44 46 47 49 49 48 45 43 40 40 40 38 38 35 36 36 36 37 38 37 38 40 43 46 50 51 50 50 51 51 51 50 49 49 47 44 49 54 56 56 59
43 45 45 44 42 40 39 38 39 40 39 38 35 33 31 30 30 32 35 38 41 42 44 43 44 45 42 45 52 55 55 54 55 56 58 56 55 56 53 53 53 53 55
40 38 36 36 36 36 35 34 34 31 30 30 29 30 29 31 36 34 43 41 37 38 41 44 44 46 48 52 52 53 58 60 58 59 59 60 61 61 59 55 56 56 55
35 35 35 35 35 35 33 30 28 28 30 31 31 30 29 28 29 33 27 27 31 30 35 42 44 44 46 46 51 51 57 64 68 68 64 65 62 63 63 62 61 61 59
37 37 38 37 33 29 28 27 28 28 29 28 29 31 33 32 29 26 27 27 30 32 29 30 34 38 39 43 43 43 45 50 61 69 74 69 68 70 70 71 66 62 63
39 36 34 31 29 28 27 25 23 21 24 23 22 22 24 26 30 27 28 28 28 30 26 27 31 32 35 36 42 48 50 50 48 53 65 75 76 77 80 81 83 80 73
35 33 30 27 25 22 20 18 18 17 20 21 21 22 23 23 25 29 25 25 25 25 25 26 28 29 31 36 39 44 51 56 63 68 71 72 84 89 89 92 93 94 87
31 28 26 24 21 20 19 18 17 17 17 17 20 23 25 26 27 27 23 20 22 23 25 25 29 35 43 41 42 50 52 56 61 68 77 86 85 89 97 97 91 98 95
30 29 27 26 22 20 19 18 18 18 18 17 18 23 24 22 22 22 26 25 27 25 27 28 33 41 43 44 44 45 41 43 48 55 61 67 76 82 83 92 96 95 94
30 27 24 22 20 19 19 19 19 18 20 21 21 23 24 23 24 27 34 35 33 34 25 24 30 36 39 41 43 45 50 44 36 40 49 54 59 66 69 69 72 78 87
30 25 23 22 22 21 20 20 19 20 20 22 22 21 19 19 20 21 25 27 32 28 24 14 21 21 26 29 28 49 56 46 41 38 33 33 38 46 55 61 66 63 65
29 26 25 23 22 21 20 20 21 20 19 17 18 18 17 16 18 22 20 21 25 33 34 18 17 19 24 27 42 46 49 43 38 43 36 30 32 38 33 37 44 58 64
27 25 24 23 22 22 22 20 17 17 18 17 16 16 16 22 22 22 23 24 25 30 39 28 34 23 24 27 32 36 39 46 46 39 31 41 35 24 27 34 34 40 48
26 26 24 24 23 21 18 17 17 16 17 17 16 17 19 24 22 25 26 27 36 38 44 44 36 35 33 34 37 39 38 39 43 39 38 29 26 24 21 18 27 35 37
27 26 24 23 20 19 18 16 16 17 17 17 19 21 25 27 27 28 30 36 38 40 41 44 38 40 37 36 39 40 43 40 35 37 37 38 37 36 32 25 20 22 30
26 24 23 21 21 19 15 16 16 18 18 20 24 28 29 29 29 29 34 38 41 41 39 45 48 46 43 36 40 39 35 29 38 43 40 43 43 45 44 29 27 25 28
25 24 23 23 19 16 16 15 15 19 20 23 29 29 30 30 30 33 41 42 44 41 45 52 50 44 35 34 40 39 54 44 34 40 48 52 50 56 52 36 37 34 31
25 25 24 20 17 17 15 14 16 22 23 30 30 30 32 34 36 37 42 44 45 51 54 62 56 45 38 47 45 46 44 46 43 30 48 52 52 47 35 30 32 34 33
26 25 21 18 17 16 16 16 23 24 32 32 33 34 33 36 40 43 43 44 52 55 58 64 62 50 48 45 50 47 46 55 49 38 54 49 37 42 37 40 39 38 41
26 22 20 18 18 18 19 24 25 28 34 34 38 39 39 41 44 45 44 47 56 52 50 53 57 55 54 52 50 48 49 51 47 53 69 63 60 57 58 55 50 47 51
23 20 19 20 19 20 23 26 29 35 35 34 37 40 42 45 46 49 56 58 56 47 43 49 56 52 48 40 44 53 55 64 64 75 88 85 82 74 71 64 57 54 60
21 20 20 20 22 23 26 30 38 38 35 35 36 44 47 49 50 53 61 55 51 45 47 49 43 40 37 41 52 66 81 85 89 93 99 95 87 77 77 69 74 72 68

GFSMA_prec_cthk_021.txt.gz
RH
35 38 37 36 36 36 36 36 36 36 38 40 41 41 42 43 44 44 42 41 41 41 41 43 44 43 39 35 34 32 28 23 21 21 25 28 28 27 25 22 21 21 20
38 38 39 39 39 40 42 45 46 48 49 48 50 50 49 48 48 47 46 44 42 41 40 41 42 43 44 43 40 37 36 35 33 28 24 29 30 32 32 31 29 26 23
43 44 46 48 48 48 48 50 52 53 52 52 50 47 45 45 44 43 41 40 41 42 40 38 39 41 43 45 48 47 46 45 43 41 39 35 32 40 40 36 36 39 36
47 48 48 48 49 50 53 53 50 46 43 40 38 38 36 35 34 32 31 34 39 38 38 40 40 39 40 44 46 48 52 56 56 52 47 44 43 40 37 46 46 40 41
47 47 47 48 50 49 46 42 38 37 37 36 35 33 31 30 30 29 31 35 38 40 41 39 38 40 40 42 45 46 48 49 53 58 61 63 60 55 51 48 47 52 55
44 44 43 41 38 37 36 35 36 36 34 32 29 28 27 26 25 30 33 34 38 42 40 33 38 42 42 42 41 45 51 55 54 54 53 55 60 65 68 67 62 55 54
36 35 34 34 34 36 38 37 35 31 27 27 26 25 24 23 26 28 29 34 33 30 25 28 31 37 45 54 48 39 42 47 54 58 58 60 61 62 64 68 71 73 71
31 35 38 40 40 39 35 29 26 24 24 24 23 22 22 20 23 21 19 19 20 24 26 27 30 33 33 32 32 38 41 41 41 47 56 58 64 70 74 73 72 72 73
41 42 41 37 33 28 26 22 20 19 20 19 21 21 23 23 20 20 19 23 25 21 24 24 23 21 23 21 22 25 30 40 45 48 51 51 59 62 70 78 79 84 78
42 40 36 31 28 25 21 20 19 18 19 20 19 20 20 22 26 25 23 19 19 18 16 17 17 18 20 23 27 31 35 40 46 47 48 57 64 67 68 76 84 83 81
38 33 30 28 24 22 21 19 18 18 18 21 20 20 20 21 22 21 21 21 20 19 19 21 23 20 21 24 29 33 35 35 40 47 52 53 53 62 71 77 80 92 94
30 27 26 24 22 20 20 20 20 19 19 19 19 19 22 25 24 22 20 18 19 19 21 18 19 19 29 31 33 34 32 31 34 41 48 51 52 55 64 70 79 81 88
30 29 27 25 22 22 22 21 21 20 20 21 20 22 19 19 20 19 20 19 21 20 20 18 20 17 21 26 29 29 25 22 24 31 38 43 45 44 47 59 68 76 82
32 31 27 26 24 24 23 22 22 22 22 21 19 19 18 18 16 17 19 23 21 18 13 13 16 19 19 20 20 17 16 14 20 28 32 39 42 38 36 38 46 57 69
34 31 27 26 24 24 23 23 22 20 19 19 18 16 16 15 16 16 21 22 25 23 17 14 17 17 21 24 24 29 24 28 35 39 32 28 34 45 47 38 38 43 60
30 27 26 26 25 25 24 21 20 20 20 17 17 16 16 16 17 19 22 24 25 28 28 22 19 20 22 33 31 32 35 32 28 31 34 35 38 40 43 45 49 42 40
27 27 27 27 26 23 21 22 22 20 18 17 17 18 19 20 22 23 25 25 28 36 39 30 30 28 27 29 29 37 37 40 34 35 37 38 37 35 31 39 37 37 34
28 28 28 25 23 23 24 24 21 18 17 17 18 19 22 24 25 28 28 30 37 38 39 44 36 35 29 32 37 42 38 36 31 27 33 35 36 39 39 32 40 39 45
30 28 25 24 25 26 25 22 19 17 17 17 18 22 24 28 29 30 34 37 36 40 46 51 43 36 38 45 44 40 34 26 28 33 38 41 41 40 43 40 34 41 41
28 26 26 27 28 27 22 19 17 16 17 18 20 24 30 32 33 35 37 41 43 45 44 49 44 46 51 48 51 47 35 37 36 33 36 32 30 34 36 46 50 52 56
27 27 28 30 27 21 17 16 17 18 19 21 23 30 33 34 37 43 45 46 47 50 49 49 48 56 54 49 44 45 47 40 32 42 39 34 42 43 41 56 59 56 56
28 30 30 26 21 17 17 18 20 21 23 25 32 33 34 34 39 42 44 44 53 57 57 60 59 62 55 48 45 50 52 48 38 36 41 37 46 44 42 45 53 56 55
30 29 25 20 18 18 19 20 22 25 26 33 34 35 36 38 43 43 43 47 53 58 65 62 62 62 55 48 55 55 51 46 37 37 54 49 60 60 63 62 59 53 51
29 24 21 19 19 19 21 23 25 27 32 36 38 42 44 42 42 48 53 55 57 60 56 60 63 59 57 60 60 55 45 42 48 60 74 68 84 80 84 74 68 61 58
23 21 20 20 20 22 24 27 30 35 37 39 43 46 47 48 47 52 60 62 56 50 54 58 59 59 61 57 53 49 52 66 70 80 92 91 93 97 90 80 69 67 65
21 21 21 22 23 24 28 32 39 41 41 42 42 45 48 47 49 61 65 63 59 55 58 54 53 50 49 46 54 65 75 85 88 87 92 93 95 97 82 78 80 78 72

GFSMA_prec_cthk_024.txt.gz
RH
37 37 38 38 38 39 41 43 45 46 47 47 46 50 51 50 49 51 49 46 45 45 45 45 46 46 45 45 46 47 45 43 40 37 32 28 28 29 30 31 29 27 25
41 40 41 45 50 49 48 48 48 47 47 49 49 47 43 40 39 39 39 38 36 36 36 40 41 41 41 43 45 46 50 56 52 45 42 42 41 35 32 31 31 31 31
46 45 48 51 50 49 48 48 48 48 45 39 35 34 36 37 34 33 32 31 30 32 39 41 39 37 37 37 42 43 42 48 56 63 62 56 50 48 45 42 46 47 44
46 47 49 50 49 48 48 48 43 38 35 35 35 36 35 32 29 27 26 26 31 35 37 38 40 44 41 35 37 38 40 40 43 47 54 61 65 67 63 56 50 50 53
49 48 47 45 41 40 37 34 33 34 35 34 33 30 26 24 21 21 26 30 29 32 34 40 37 35 33 30 38 49 48 48 46 44 46 50 54 60 66 71 73 71 64
46 43 37 32 30 32 35 37 37 36 33 28 24 20 18 17 19 24 22 24 26 27 29 33 32 30 25 29 32 38 41 55 57 52 47 48 56 59 60 63 68 71 76
34 29 28 31 35 38 38 36 30 26 23 19 16 15 15 17 17 17 22 21 20 20 21 20 22 23 25 28 33 37 37 39 36 33 41 55 53 57 63 65 68 73 74
31 33 34 37 38 37 34 29 24 21 18 18 19 17 17 16 20 16 16 15 17 18 19 16 17 18 17 16 16 15 16 17 19 28 35 35 42 53 57 64 70 70 77
35 36 37 38 36 30 25 21 19 18 17 17 18 19 21 21 18 18 17 18 19 15 16 15 13 12 12 14 15 15 16 19 24 31 29 31 33 36 46 57 63 68 72
38 37 36 31 26 23 21 20 18 18 18 18 18 19 19 20 23 23 21 16 14 13 12 13 12 14 17 15 11 13 23 29 27 29 34 38 36 41 47 49 54 67 72
40 35 28 25 23 22 21 20 20 20 20 20 20 20 20 19 18 20 20 18 16 14 14 14 15 13 15 12 16 23 26 23 21 24 28 31 40 45 46 47 56 58 66
34 29 28 28 25 22 21 22 22 22 22 21 21 20 19 21 19 18 19 17 16 15 17 18 19 21 15 16 18 18 17 15 20 24 29 33 36 35 46 53 47 50 51
34 31 30 25 23 23 24 24 24 23 22 20 19 19 19 18 17 19 19 18 19 17 19 18 17 18 17 21 18 15 15 13 13 14 18 25 30 37 47 45 42 43 42
36 31 26 24 24 25 25 24 24 21 20 21 21 18 17 17 18 19 19 22 19 20 18 18 18 17 19 25 22 26 25 32 26 25 24 28 33 35 38 36 36 42 46
34 28 25 25 26 26 25 23 21 21 22 21 19 17 17 17 17 18 19 21 26 25 22 18 21 19 24 25 31 39 34 28 30 28 32 33 36 36 43 47 47 48 45
31 25 26 27 27 26 24 22 22 23 21 19 17 15 16 16 17 18 21 24 27 31 28 20 23 23 22 29 34 39 34 31 29 34 38 37 40 44 37 37 42 48 36
28 26 27 27 26 24 24 24 24 22 20 17 15 14 15 16 17 20 23 27 31 35 42 26 26 26 27 28 25 31 35 37 37 38 39 36 32 36 43 44 37 41 46
28 28 27 26 25 26 26 25 22 19 16 14 13 14 15 17 19 24 29 31 35 38 42 42 34 36 33 30 30 33 39 42 50 47 44 37 44 45 41 48 49 40 37
28 28 27 27 27 27 24 21 17 16 15 14 14 15 17 21 26 31 33 38 39 43 47 51 43 38 39 37 39 39 44 43 43 43 38 39 42 46 43 41 40 42 39
28 29 27 28 27 23 20 17 17 17 17 18 18 18 23 28 33 36 41 45 48 52 52 47 56 53 49 47 55 58 51 45 37 39 39 41 48 39 35 41 42 40 37
30 28 28 26 22 20 18 18 18 19 20 20 20 23 28 35 38 46 49 50 53 52 55 58 56 58 59 60 60 54 52 44 37 45 46 39 34 30 31 37 41 42 39
28 27 24 22 19 18 17 20 22 23 22 23 24 28 34 38 40 47 49 49 54 60 58 63 63 63 54 58 57 57 55 51 46 48 45 28 42 40 43 48 53 59 61
27 24 21 18 18 18 19 21 22 24 25 28 33 36 37 40 44 46 46 50 55 56 63 67 63 61 59 62 60 56 57 53 48 45 55 51 63 62 68 67 69 69 71
24 21 19 19 19 19 20 21 24 28 31 35 38 41 44 44 48 51 52 54 53 56 58 63 64 64 66 62 63 59 59 55 64 74 80 69 79 83 87 89 95 97 91
22 20 20 19 19 19 20 24 33 36 37 37 41 47 52 50 50 54 58 57 57 56 57 59 63 64 60 57 62 70 71 78 77 85 92 84 86 86 90 90 92 92 89
22 21 20 20 20 21 23 29 37 39 40 43 44 48 48 50 48 56 60 60 61 58 59 58 51 47 54 66 84 92 93 91 91 87 92 91 87 88 84 92 96 95 87

GFSMA_prec_cthk_027.txt.gz
RH
40 41 39 38 39 41 43 45 46 46 44 42 42 42 39 37 37 37 39 39 40 42 42 41 43 41 47 47 47 47 45 49 53 56 54 49 44 38 37 38 37 33 29
44 45 46 44 46 47 48 46 45 45 44 44 41 36 32 30 32 32 33 34 34 32 29 31 33 43 44 41 42 43 44 44 44 49 55 62 64 62 55 48 47 47 44
47 49 50 49 50 48 47 47 45 42 37 30 31 32 32 33 33 30 27 25 23 24 28 33 35 37 42 48 51 51 43 38 40 42 43 49 58 64 68 67 64 60 56
48 51 51 51 51 50 46 38 31 29 31 33 33 32 29 25 22 20 18 18 21 25 29 32 33 30 38 36 37 41 37 35 49 55 52 49 47 51 57 66 71 75 75
54 54 51 49 43 34 29 30 31 33 33 31 26 22 19 16 15 16 18 21 23 24 25 27 29 30 32 31 31 33 30 30 39 48 52 57 59 53 52 55 62 64 71
54 46 37 33 32 31 33 33 34 32 28 24 21 18 16 16 16 17 17 18 20 17 19 20 21 24 26 29 23 25 24 30 29 29 35 42 52 56 51 48 58 63 69
36 34 35 34 34 34 33 32 30 25 21 18 18 17 16 16 15 17 17 16 16 15 16 16 16 15 15 15 15 15 14 16 18 24 28 30 30 37 43 44 56 59 63
37 37 35 35 34 31 28 26 22 20 19 18 18 17 17 16 18 16 17 16 15 16 15 13 12 11 11 11 11 12 12 11 12 18 19 27 29 27 32 34 39 49 56
37 36 35 34 32 29 25 21 20 19 18 18 18 20 21 21 18 18 16 17 18 15 14 13 12 11 12 14 14 14 12 10 17 20 22 24 29 32 36 34 43 44 47
38 39 38 34 28 24 21 20 20 20 20 21 21 21 21 21 21 21 19 15 15 15 13 12 13 13 16 13 13 15 13 18 19 24 27 29 30 31 36 39 40 43 48
42 40 36 29 25 22 21 21 22 22 22 22 22 21 19 19 19 22 20 17 16 15 13 14 12 15 15 15 13 11 13 15 17 18 23 28 30 36 40 39 44 45 46
40 38 33 27 23 22 23 23 23 23 23 22 21 20 21 21 20 19 18 17 18 17 17 16 16 17 16 15 14 12 12 13 15 17 21 25 30 35 36 41 47 52 47
40 37 30 25 24 23 23 23 23 23 22 21 22 21 21 20 19 17 18 17 18 17 16 17 17 20 21 21 20 24 22 23 25 27 26 30 36 37 38 40 44 46 52
40 35 29 25 24 24 23 23 22 22 23 23 22 21 20 17 14 14 16 18 17 15 15 15 18 21 23 25 27 25 24 28 28 26 27 34 35 37 36 40 46 48 48
40 35 28 26 25 23 22 23 24 25 24 23 21 18 15 13 11 12 14 16 22 24 19 17 21 21 25 27 28 33 30 25 25 28 34 38 37 39 45 38 37 38 46
42 34 27 25 23 23 24 25 26 24 22 18 15 14 13 11 11 12 16 19 22 27 29 20 21 23 26 30 32 34 32 31 28 33 39 40 46 52 43 40 39 39 46
38 29 26 24 24 25 27 26 23 20 17 14 13 13 13 13 14 16 18 23 28 34 36 23 25 26 26 28 30 35 42 40 38 40 48 51 49 43 44 42 39 50 50
34 27 25 25 27 29 26 22 19 15 14 14 15 16 15 14 16 20 23 28 32 34 44 43 30 34 33 34 39 38 41 44 50 51 55 52 49 46 43 40 44 48 47
29 26 26 29 29 25 22 17 15 16 17 18 18 18 17 18 21 25 30 34 38 45 48 50 43 37 43 47 43 46 48 45 50 51 51 48 46 43 40 46 49 48 45
27 27 30 29 25 21 17 15 17 18 19 18 18 20 21 23 27 34 36 43 48 47 46 46 53 55 51 50 56 52 44 47 51 53 47 47 50 48 51 47 38 38 39
28 32 30 25 20 17 16 18 19 20 19 20 21 24 25 30 35 38 46 44 47 48 53 58 56 57 55 47 53 51 51 51 52 55 52 47 48 40 37 37 38 37 39
33 30 25 20 18 17 17 18 20 20 21 24 27 29 30 34 35 38 42 49 52 59 57 59 61 58 54 57 54 56 57 56 54 56 53 51 57 54 57 60 61 62 59
30 26 21 19 19 17 16 20 21 24 27 30 32 32 33 34 39 42 40 48 48 55 60 62 59 61 60 58 59 58 60 68 71 75 76 69 83 82 81 72 76 83 84
27 23 21 19 18 18 19 23 24 29 32 32 34 36 36 38 42 47 47 50 56 57 58 62 67 63 62 62 64 72 78 81 86 89 94 85 85 79 78 80 87 89 94
25 22 20 19 19 20 22 26 31 31 30 33 33 34 42 42 43 48 57 60 58 57 58 62 62 60 63 84 96 94 92 93 89 90 89 89 87 76 78 79 83 86 96
23 22 21 21 22 23 24 29 34 37 35 31 30 33 37 44 50 60 64 61 61 57 60 56 61 86 92 94 98 99 98 94 94 89 85 91 90 86 84 86 88 95 95

GFSMA_prec_cthk_030.txt.gz
RH
44 44 44 45 46 47 48 46 46 46 46 46 44 42 42 40 36 33 32 33 34 35 37 37 35 34 33 36 44 44 49 53 55 50 49 54 57 59 58 54 47 44 48
48 48 47 47 49 52 49 47 48 47 46 41 35 34 31 32 32 33 32 30 28 26 25 25 27 27 29 32 38 40 44 49 47 45 45 45 49 53 60 67 69 65 57
51 50 46 48 52 53 51 49 47 43 37 31 30 31 31 29 27 25 23 21 20 19 20 24 27 31 32 31 32 38 42 46 48 44 38 37 44 45 47 53 60 68 70
51 53 55 55 54 51 45 39 34 31 30 30 29 27 24 22 20 18 17 18 20 23 26 27 27 27 28 30 28 32 36 33 37 37 37 32 44 46 48 49 51 54 59
53 57 57 53 43 37 35 34 31 31 30 27 23 21 20 19 18 19 21 23 23 22 20 18 19 22 23 24 26 25 28 28 25 24 25 25 31 41 46 50 53 51 52
56 54 41 36 37 36 33 31 30 26 21 19 19 20 19 18 19 17 17 19 18 18 18 17 18 17 17 16 16 17 18 18 20 23 23 24 27 28 33 43 48 53 55
40 38 38 39 37 32 31 29 24 19 18 18 19 19 18 18 17 19 18 17 16 16 16 17 15 13 13 12 12 12 11 11 13 16 18 21 23 24 28 33 36 42 47
38 39 39 37 35 34 30 22 18 19 20 20 19 19 18 18 19 19 18 17 16 16 16 16 14 14 13 13 13 12 11 11 12 16 19 20 21 22 24 30 32 33 37
41 41 40 40 37 30 22 22 21 21 20 20 20 21 20 22 19 19 17 18 18 17 16 15 14 13 12 12 12 12 12 11 14 17 18 20 28 29 29 29 30 32 39
43 43 41 38 30 24 22 22 22 22 21 21 20 21 21 21 21 20 20 19 18 17 15 14 13 12 11 12 11 11 10 12 13 15 16 21 27 27 28 35 36 37 38
44 42 38 33 27 24 23 23 23 22 21 22 21 20 20 21 21 24 22 19 16 14 12 11 10 9 9 10 11 11 12 13 15 18 23 26 26 27 31 36 36 36 37
44 41 37 33 27 25 24 24 23 22 21 20 20 22 22 23 22 21 19 17 16 13 12 9 8 9 11 12 13 13 15 17 18 19 26 28 39 38 38 37 38 39 39
45 42 38 33 27 25 24 24 23 21 20 22 23 24 22 21 19 16 13 12 14 13 13 13 15 16 16 17 16 17 18 19 19 22 29 28 30 36 38 38 40 44 49
48 43 38 31 27 26 25 23 22 22 24 25 24 21 18 16 14 12 12 13 14 14 15 15 16 18 20 21 24 26 23 23 24 28 29 30 31 36 39 39 39 50 52
50 44 36 32 30 27 25 23 23 25 26 24 20 17 15 13 13 12 12 14 19 19 16 16 19 20 22 25 27 28 28 28 34 36 39 39 36 38 39 39 50 51 52
50 41 36 32 29 28 24 24 27 26 23 19 16 15 14 15 14 13 14 16 19 24 25 18 18 22 27 31 32 33 36 41 38 36 39 44 43 44 52 51 50 54 54
49 42 35 31 30 25 26 28 26 22 18 16 16 16 17 17 16 16 16 19 22 27 33 22 22 24 27 30 33 44 50 48 44 43 46 45 45 47 53 53 54 53 49
44 38 34 31 27 29 28 26 21 18 16 16 17 18 18 18 19 18 20 23 26 29 38 40 29 28 29 31 38 41 46 50 50 42 42 49 50 51 50 51 52 50 48
40 36 29 29 29 29 26 22 18 16 16 18 19 20 21 22 21 22 26 30 34 38 42 45 39 35 38 37 39 45 47 43 43 42 46 49 50 52 51 52 53 53 58
36 31 32 29 31 26 22 18 16 17 18 20 21 22 23 26 26 30 35 38 45 44 43 46 48 45 45 50 55 52 42 44 45 47 49 51 49 48 48 51 51 51 49
33 32 31 33 27 23 19 17 19 20 20 21 22 24 27 29 32 36 43 43 44 44 49 52 47 54 58 53 54 53 51 50 49 51 50 56 59 59 53 51 50 45 41
33 34 34 27 24 20 18 19 22 22 22 24 25 27 27 30 32 34 35 41 45 53 52 61 64 61 57 59 57 57 56 57 66 74 82 77 83 76 72 71 72 74 68
37 34 28 25 22 20 19 19 22 23 24 26 27 28 29 31 31 32 33 43 44 57 65 65 61 59 58 56 61 74 86 90 86 83 92 82 88 85 84 85 83 76 76
35 30 26 23 22 20 20 20 21 24 26 26 28 30 34 31 33 40 47 50 57 51 51 56 59 59 72 89 96 95 93 90 89 90 89 81 80 77 79 79 76 71 73
31 28 26 24 22 21 22 22 28 27 27 27 29 33 36 35 38 50 58 54 51 49 48 54 74 93 97 98 100 95 93 96 92 89 86 88 86 85 85 82 76 73 76
30 28 26 24 23 23 23 25 31 34 33 28 30 31 34 41 50 54 56 56 50 47 70 87 91 90 93 96 99 98 97 96 96 91 90 96 94 95 91 90 88 89 89

GFSMA_prec_cthk_033.txt.gz
RH
52 49 46 45 46 43 47 51 51 49 47 45 43 40 39 37 34 31 30 31 31 30 30 29 28 28 28 29 30 35 46 47 49 50 52 50 50 50 54 58 62 63 59
53 51 50 49 48 46 50 52 50 47 45 42 39 37 33 29 28 27 26 26 25 24 24 23 23 24 25 26 29 31 34 36 41 42 44 45 44 44 43 49 54 58 64
52 52 51 50 47 51 52 50 46 41 39 35 33 31 29 26 23 22 20 20 19 20 20 21 22 25 28 30 31 31 30 30 34 36 38 41 40 39 36 36 42 48 55
53 52 52 52 52 51 46 42 37 36 35 32 28 25 22 19 18 19 20 21 21 23 23 24 24 24 24 24 25 26 28 29 26 28 33 34 34 35 37 37 38 44 46
54 53 52 52 43 38 37 37 36 32 28 24 21 18 17 17 18 19 21 23 23 22 21 19 20 20 18 18 20 20 20 21 22 23 23 27 26 26 23 29 29 34 46
52 53 46 37 37 38 36 34 32 28 22 18 16 16 17 19 20 21 20 19 20 18 17 17 18 19 19 17 16 15 14 14 14 15 16 17 19 22 22 24 26 29 33
49 35 35 38 38 37 36 32 26 20 17 17 18 20 20 20 19 19 20 19 18 18 18 17 16 16 16 15 14 14 13 13 13 15 16 19 22 21 22 21 22 24 27
34 37 40 40 41 39 32 24 19 18 19 20 21 21 20 19 19 20 18 19 18 18 18 18 17 17 16 16 15 14 12 12 12 16 19 19 19 20 19 20 22 28 29
39 42 43 44 40 33 25 19 18 20 22 23 22 22 20 20 20 20 20 20 20 20 20 19 18 16 14 13 11 10 10 9 12 16 16 17 17 19 20 21 26 27 28
45 45 46 43 36 29 23 20 22 24 24 22 21 20 22 23 23 22 21 21 20 19 16 14 12 11 9 9 8 9 8 9 12 15 16 17 21 21 27 27 27 28 30
48 48 46 40 35 28 23 23 25 25 23 21 22 23 23 24 24 26 24 21 16 13 11 10 9 8 8 9 9 9 12 14 15 16 18 18 20 28 28 33 36 35 35
50 48 45 43 36 29 26 26 25 23 24 26 25 25 25 24 25 24 22 18 16 12 10 9 9 9 9 10 11 11 12 16 17 18 20 27 28 29 30 32 34 36 40
51 50 50 44 37 30 28 25 26 28 27 27 26 25 25 25 22 19 17 14 15 12 12 14 13 12 11 11 12 13 14 18 19 19 22 29 31 33 35 36 37 39 39
51 53 53 46 38 31 28 28 29 28 28 26 25 26 24 21 18 17 17 16 15 15 15 16 15 15 17 20 22 23 21 20 21 22 30 32 35 38 38 39 41 41 40
53 53 54 48 38 33 30 30 31 30 26 26 26 24 20 18 17 16 16 17 20 21 17 17 19 19 21 23 25 27 27 28 32 34 37 40 40 42 43 43 42 43 42
57 55 56 47 35 31 32 33 30 26 27 26 24 20 17 17 18 18 18 19 20 23 25 17 18 21 25 27 28 31 34 37 36 40 44 45 47 45 43 43 41 42 45
61 57 55 38 32 37 34 30 28 27 28 23 19 18 18 19 20 20 21 22 24 28 31 20 18 18 18 22 27 33 38 44 43 43 48 48 46 45 47 48 51 51 47
63 56 46 35 39 34 31 29 29 28 23 19 18 19 20 21 22 23 24 25 26 27 35 35 26 20 22 23 27 38 46 52 56 53 45 43 47 48 50 51 56 54 56
59 55 39 40 34 32 30 30 29 23 20 20 21 21 22 23 24 25 26 27 30 33 36 36 31 32 33 38 41 47 50 51 51 48 49 52 51 54 54 55 53 53 53
61 45 39 35 33 31 32 29 23 21 21 22 22 23 23 25 25 27 30 33 34 33 33 37 40 42 50 52 55 54 48 46 45 46 50 52 56 57 56 57 58 59 59
51 38 36 33 31 34 29 24 22 22 23 22 23 23 23 23 25 30 33 31 34 40 42 45 49 56 55 52 49 47 56 66 78 87 86 82 82 80 77 74 69 67 66
39 35 33 33 35 30 24 23 22 23 23 23 22 22 22 22 25 29 31 34 43 47 54 57 54 53 47 51 67 84 89 89 81 88 90 80 88 82 80 80 79 79 79
35 34 34 36 31 26 24 22 22 26 23 23 23 23 23 27 28 28 31 39 46 52 57 57 49 51 68 86 90 89 90 92 90 91 91 82 85 79 79 78 80 80 79
35 37 38 32 28 26 23 22 23 22 23 24 24 26 30 28 31 36 43 47 44 45 45 47 66 84 91 93 94 93 90 91 91 92 92 85 88 88 89 88 84 81 82
40 38 33 30 27 24 23 21 21 23 24 24 26 31 32 35 36 45 48 49 46 41 50 81 90 92 91 94 96 91 90 92 87 89 92 92 89 90 91 88 86 88 87
39 34 33 28 25 23 22 20 26 25 25 27 30 30 34 37 40 48 53 49 45 61 83 86 86 87 90 92 96 97 96 93 91 84 92 92 92 94 89 89 87 83 84

GFSMA_prec_cthk_036.txt.gz
RH
59 56 53 50 48 50 50 50 49 50 49 46 43 43 41 37 34 30 28 26 25 25 25 24 25 24 24 25 25 26 28 31 30 36 45 48 51 55 56 56 56 58 58
59 57 55 53 52 52 51 50 52 50 45 42 40 36 33 31 29 25 23 22 20 20 20 21 22 21 21 23 24 25 27 29 30 31 33 35 42 45 48 46 46 47 49
62 58 54 52 53 52 51 50 44 44 39 36 35 33 29 25 22 21 19 18 18 19 21 22 23 24 25 27 28 29 30 31 31 30 30 30 33 34 36 38 41 41 40
61 59 55 54 53 49 44 41 38 38 36 34 29 24 20 19 18 18 17 18 21 23 24 24 23 22 21 21 20 19 19 20 22 24 25 28 28 27 29 33 36 36 36
59 59 55 53 46 37 36 37 38 37 33 27 21 17 16 16 16 17 20 21 22 21 21 20 18 17 18 19 20 20 19 18 18 17 17 17 18 18 20 24 27 28 30
60 60 54 40 33 35 36 38 37 31 24 18 17 16 17 18 20 22 22 21 20 20 19 18 18 18 18 17 17 17 17 16 16 15 15 15 17 21 24 23 23 24 24
59 56 39 34 37 39 41 37 30 23 18 17 17 18 19 20 20 20 20 20 20 19 20 20 19 19 18 18 18 17 16 15 14 14 15 19 22 22 22 22 22 21 21
58 43 38 38 41 42 38 33 25 20 18 18 19 20 21 20 21 21 19 19 21 22 21 20 20 20 19 18 16 14 12 11 10 12 19 18 19 19 19 20 20 20 21
47 41 43 44 45 42 37 30 23 20 20 20 20 21 21 21 20 20 21 22 22 22 21 21 20 17 15 13 11 10 10 9 9 16 17 17 17 19 27 28 28 27 28
42 44 45 48 47 43 36 30 25 21 21 22 22 22 23 24 24 22 23 23 22 21 20 17 15 13 11 11 10 10 9 9 11 17 18 18 21 28 29 28 29 30 30
45 47 49 50 48 44 40 33 25 23 23 24 24 25 26 26 25 26 25 23 21 18 15 13 11 11 11 10 10 10 10 17 17 18 18 22 28 28 29 30 37 41 40
49 52 52 51 48 46 44 34 27 26 26 27 27 27 27 27 28 27 26 23 21 17 13 12 11 11 11 11 11 11 11 18 18 20 28 29 30 31 33 39 40 41 41
53 54 54 51 48 49 47 36 30 31 29 28 30 29 28 27 27 26 25 21 19 16 15 15 14 14 13 12 12 12 12 15 17 18 20 28 30 34 41 41 42 42 42
55 58 57 54 52 51 46 36 32 30 31 33 30 29 28 28 27 25 22 21 19 17 17 17 16 17 18 17 19 21 19 19 18 19 24 27 29 37 41 41 42 42 44
60 62 62 58 57 52 42 34 31 33 34 30 29 28 28 27 24 22 21 22 23 22 18 19 19 18 17 20 20 23 23 22 29 31 31 31 32 38 39 40 44 45 45
63 65 65 61 59 47 39 33 36 35 32 30 28 28 26 23 22 22 23 24 26 26 25 18 16 17 18 20 20 25 26 31 31 33 39 45 46 44 50 52 47 42 44
66 68 65 63 53 44 38 37 35 32 30 28 29 26 22 22 22 23 25 26 26 27 26 15 16 14 15 20 22 29 37 40 40 41 46 51 51 52 52 52 53 53 54
69 67 67 61 50 45 39 36 32 29 29 29 26 23 22 22 22 24 24 24 24 24 31 27 17 18 21 23 29 37 39 41 40 36 43 45 50 51 51 52 53 53 55
68 70 67 58 52 41 35 31 30 30 30 27 24 23 21 22 22 21 22 24 26 29 31 32 29 29 30 39 39 39 39 37 51 67 73 74 79 80 81 79 74 64 57
71 72 65 55 42 34 32 31 31 30 26 24 22 21 20 19 19 22 25 29 31 30 29 35 40 44 46 43 41 41 56 70 73 79 77 78 84 84 84 84 83 81 79
77 69 58 43 34 34 33 32 31 27 25 22 21 21 21 20 22 26 30 31 33 34 39 44 48 47 43 41 57 70 75 76 79 85 80 81 83 82 81 79 77 77 76
71 58 42 35 35 34 35 32 27 25 22 23 22 21 20 20 22 24 27 34 39 45 47 48 45 42 52 73 75 80 81 81 75 87 86 79 85 81 84 85 87 88 86
56 38 36 36 37 36 32 28 24 23 24 22 21 21 21 23 23 25 28 34 44 48 49 46 45 66 77 80 82 82 81 83 85 86 88 76 84 83 86 86 88 90 91
37 38 37 38 37 33 29 25 23 22 23 22 22 22 24 23 28 34 37 43 40 40 38 52 78 81 85 86 88 87 84 83 83 86 89 82 87 85 87 87 87 87 88
39 38 40 38 35 30 25 23 22 24 23 22 22 25 29 32 34 39 45 41 41 37 61 79 83 87 86 87 90 85 81 83 79 82 87 89 86 87 90 86 85 86 82
40 41 40 37 31 26 24 22 24 25 24 23 25 27 30 35 38 41 42 44 43 67 78 80 81 83 85 84 83 82 81 81 82 81 87 87 85 85 85 83 79 83 90

GFSMA_prec_cthk_039.txt.gz
RH
59 60 58 57 53 54 50 50 50 48 46 46 44 43 42 38 33 32 30 27 23 22 22 21 20 20 20 20 21 22 22 24 25 26 28 29 34 43 50 54 58 60 60
60 58 58 57 56 54 51 51 47 43 43 42 41 38 36 33 29 25 23 21 20 20 19 19 19 20 21 22 24 25 27 28 28 28 28 28 28 29 33 39 47 50 52
65 63 60 57 57 54 51 47 43 39 38 37 37 35 31 26 22 19 18 18 18 18 19 21 23 24 24 24 23 23 23 22 22 21 22 24 26 26 26 26 31 35 38
67 65 62 58 56 52 46 39 34 35 37 37 34 28 21 18 16 16 17 18 21 23 24 23 22 20 19 18 18 18 19 20 20 19 19 19 20 21 22 23 25 26 25
72 64 62 58 54 45 36 33 36 37 35 29 23 20 17 16 16 17 19 21 22 22 21 21 20 18 17 17 18 18 18 18 18 18 18 18 17 17 17 18 21 24 23
74 72 60 58 47 37 36 38 38 34 30 24 20 18 16 18 18 19 21 22 21 21 21 20 18 19 19 20 20 19 19 19 18 18 17 17 17 20 25 25 25 25 24
74 69 61 52 39 41 41 39 37 33 27 22 19 17 18 19 17 19 20 21 20 20 20 20 20 20 20 20 19 19 18 17 15 14 13 13 18 22 21 21 21 21 21
71 65 56 42 43 45 45 44 40 34 26 21 19 19 19 19 21 21 21 21 21 21 22 22 22 22 21 21 19 17 15 14 13 12 13 21 21 21 20 20 20 26 28
64 59 48 45 46 48 48 46 43 36 26 21 21 21 20 21 21 22 22 23 23 23 24 24 23 21 19 17 16 14 13 12 12 12 20 20 20 20 23 26 29 29 29
62 53 47 48 50 50 49 47 44 36 29 25 23 22 22 22 22 23 24 26 26 26 25 22 20 19 17 16 14 14 13 12 11 20 20 20 21 28 29 30 30 31 33
56 50 50 51 52 52 51 47 41 37 33 27 26 26 26 25 24 26 26 27 26 24 22 21 19 16 15 14 14 13 12 17 20 20 23 28 29 29 30 32 38 40 40
54 49 52 54 55 55 54 48 44 39 33 29 28 27 26 28 29 28 30 28 27 24 20 18 16 15 15 14 13 12 12 11 18 18 20 27 28 30 37 38 39 39 40
49 52 55 57 58 60 57 52 47 40 33 29 29 29 30 30 28 28 27 28 26 23 23 22 19 17 16 15 16 12 11 12 15 16 16 25 27 28 33 38 38 40 46
52 56 58 60 63 62 60 53 47 39 32 31 31 32 31 29 27 27 27 26 24 23 22 21 20 18 17 17 18 19 19 20 20 21 24 26 27 30 38 38 38 39 41
56 58 61 64 64 63 60 52 47 37 35 33 34 32 28 27 27 26 26 26 27 23 19 18 18 18 19 20 20 22 24 24 25 27 31 32 35 40 38 39 42 43 44
59 62 65 65 66 64 56 53 42 39 38 36 31 28 28 27 26 26 24 23 22 23 20 16 15 19 21 23 23 26 27 28 27 29 34 37 40 43 44 45 46 46 46
64 66 67 69 67 60 56 49 46 40 37 29 29 29 28 27 26 23 22 20 19 20 21 14 18 17 21 25 28 33 37 37 34 33 37 45 54 59 63 66 67 67 64
67 70 71 69 63 59 54 52 43 38 30 30 29 29 28 25 23 20 18 17 19 22 24 21 18 20 24 27 33 35 35 32 38 51 61 65 67 68 69 71 74 73 73
72 74 72 67 62 59 55 44 38 32 32 30 30 28 26 23 21 19 19 22 23 26 29 31 25 24 29 35 35 31 35 55 63 64 68 68 71 76 78 77 76 77 77
77 76 70 65 63 58 47 37 33 33 31 30 28 26 24 22 21 21 25 29 31 31 31 34 35 39 39 34 33 52 60 66 68 71 68 72 75 77 77 74 73 74 77
79 71 69 68 61 47 36 35 34 32 31 29 26 24 23 21 21 26 30 32 32 32 33 38 45 42 36 42 63 67 69 70 72 74 68 72 74 74 73 75 79 80 79
73 75 70 61 45 37 36 35 33 32 29 26 24 22 21 22 22 24 25 33 35 38 41 46 43 40 54 68 71 74 75 75 67 73 72 69 75 74 77 76 77 82 84
80 71 57 41 39 37 36 34 32 29 26 24 22 22 23 23 22 23 25 33 35 41 44 43 45 63 71 75 78 77 76 74 70 68 72 68 76 76 76 75 79 81 81
68 50 40 40 38 38 35 33 29 26 24 23 22 22 23 22 25 30 32 33 36 36 40 48 74 76 80 82 82 79 74 67 65 66 72 72 77 74 75 73 73 73 74
42 41 40 39 40 36 33 29 26 25 24 23 22 22 23 26 29 33 37 36 38 38 48 76 79 81 81 82 81 76 71 66 54 56 67 80 80 70 72 68 74 80 90
41 39 42 41 38 34 30 27 26 27 27 25 24 24 25 27 33 36 39 41 41 52 77 80 79 79 81 78 75 77 72 61 59 50 73 83 79 71 66 75 81 85 90

GFSMA_prec_cthk_042.txt.gz
RH
65 63 59 59 58 57 54 52 51 50 47 43 40 41 41 39 36 34 31 28 24 22 21 20 20 19 19 19 19 19 19 20 21 23 24 25 27 29 30 33 42 51 59
68 66 62 61 60 58 57 56 52 44 41 39 35 36 36 34 31 28 24 20 18 17 17 17 17 18 19 20 21 22 23 24 25 25 26 27 28 28 29 29 30 32 39
70 67 66 62 59 60 58 52 44 42 37 33 33 34 32 28 24 21 18 17 17 17 18 19 21 22 22 21 20 19 19 18 19 19 19 20 20 18 19 21 24 26 27
74 70 70 66 63 60 54 45 39 36 35 34 31 27 24 21 20 18 17 18 20 21 20 20 20 20 20 19 18 17 16 16 16 16 17 17 17 18 18 18 18 19 20
76 74 74 68 63 60 46 39 38 40 33 29 26 24 22 20 19 18 19 20 20 20 20 20 21 21 19 18 18 18 18 18 19 19 20 19 19 19 20 20 23 22 20
81 77 81 75 64 54 41 41 43 39 34 30 27 24 21 20 18 18 21 21 19 19 19 20 20 19 19 19 19 19 20 20 19 18 18 18 19 19 25 27 26 26 26
85 82 84 74 62 45 44 46 44 42 39 35 30 25 21 19 18 20 21 20 20 20 20 20 19 19 20 20 20 20 19 18 18 18 17 17 17 23 25 24 23 22 22
86 83 82 69 53 46 48 49 47 45 42 38 32 27 24 23 24 23 21 21 21 21 21 21 22 22 21 21 20 20 19 18 17 17 16 17 24 24 23 23 22 24 25
91 86 79 63 49 49 51 52 50 47 43 37 31 27 26 27 25 24 24 24 23 24 25 25 23 23 22 21 20 19 18 17 16 16 18 25 24 24 24 25 29 31 30
90 83 68 56 50 51 54 54 52 50 46 38 32 29 27 26 27 26 27 27 29 29 28 26 25 23 22 21 19 18 17 16 15 16 24 24 23 27 31 31 31 33 36
78 65 66 52 52 54 56 56 55 54 49 40 36 32 28 27 28 29 29 30 30 30 29 28 27 24 23 23 22 21 21 22 21 21 20 27 28 29 29 30 34 40 41
75 68 57 52 54 57 58 58 59 55 47 41 39 32 30 30 31 31 30 30 29 27 26 26 25 24 22 21 18 16 13 10 15 17 17 21 28 29 33 40 40 40 40
62 69 58 55 57 59 60 60 58 52 48 43 38 34 32 31 30 32 32 28 27 27 26 26 25 24 21 18 15 14 11 12 15 16 18 22 29 29 32 39 39 39 39
79 63 57 57 59 61 61 61 57 54 49 43 40 35 33 32 32 29 29 28 26 26 27 27 24 23 19 21 19 20 24 26 27 27 27 28 28 29 32 38 38 39 39
59 54 56 59 62 64 64 60 58 55 48 45 39 36 34 33 28 28 29 30 28 26 25 24 22 22 22 23 24 25 27 27 27 27 30 31 32 33 36 37 37 41 41
59 59 61 65 66 67 63 61 59 54 49 44 38 37 33 28 28 30 31 30 29 26 23 21 20 24 26 27 27 27 28 28 28 31 32 34 37 40 44 50 54 57 59
64 62 66 68 69 66 64 62 59 53 48 43 39 33 28 29 30 30 30 28 26 23 21 19 22 26 28 29 28 34 35 31 29 32 36 45 55 57 59 62 63 65 66
67 66 70 70 69 68 66 63 57 52 49 41 32 29 31 31 28 29 29 26 24 25 29 25 23 26 27 29 32 35 38 32 38 51 57 59 64 62 65 66 67 68 69
67 71 72 72 72 70 67 58 57 54 42 32 31 31 30 29 30 29 26 26 30 31 31 31 27 27 29 33 34 34 36 49 60 63 67 64 64 63 65 69 69 69 67
71 74 76 77 75 70 59 63 55 40 33 33 32 30 30 30 29 27 27 32 32 31 30 31 31 30 36 35 34 40 52 64 67 69 67 64 61 61 64 63 66 68 68
76 79 80 78 69 63 66 54 38 35 35 34 32 32 32 28 24 27 29 33 32 31 32 33 41 42 36 34 46 60 65 68 72 73 63 61 62 60 61 68 70 69 68
81 83 80 66 70 64 50 37 36 33 36 34 34 32 30 29 27 26 32 33 33 35 35 44 43 40 38 54 68 71 71 71 66 66 69 50 59 58 68 69 72 67 66
85 77 69 72 60 44 39 36 35 34 34 34 32 31 29 26 27 31 32 32 34 36 40 40 41 43 60 74 75 74 75 70 66 61 64 45 53 62 72 74 68 65 67
76 76 67 52 41 39 36 37 34 33 34 34 32 29 26 28 31 32 32 33 36 36 40 41 52 68 77 78 81 78 72 64 59 51 63 50 49 63 76 77 64 68 76
73 57 42 41 39 39 38 34 33 31 34 32 27 26 29 31 32 32 33 33 35 38 43 60 76 79 82 83 83 75 64 65 53 50 53 52 56 66 79 68 71 78 84
43 40 41 39 41 38 35 33 30 31 29 27 27 29 30 31 32 34 36 36 38 44 67 79 80 81 82 79 73 69 70 66 59 51 57 54 60 76 71 71 76 80 84

GFSMA_prec_cthk_045.txt.gz
RH
61 60 61 63 64 62 60 56 54 52 50 43 39 37 34 31 33 34 31 29 26 23 20 18 17 16 15 15 16 16 18 19 19 20 21 22 22 22 23 25 27 28 32
70 68 67 67 64 62 60 58 55 52 45 41 36 34 32 29 29 27 25 23 21 19 17 16 16 17 19 20 20 19 19 18 18 18 18 18 18 19 20 21 21 24 26
68 71 67 66 64 63 59 58 53 47 42 37 35 33 26 25 24 23 21 23 20 19 18 18 20 20 19 18 17 17 17 16 16 16 16 16 16 16 17 17 17 17 17
61 78 73 71 68 66 62 55 48 42 40 37 34 29 23 22 21 22 22 22 21 21 19 19 19 19 18 19 18 17 17 17 17 17 17 17 18 18 18 18 19 18 18
59 66 78 77 73 69 66 50 44 43 41 38 35 30 26 23 23 23 24 21 20 19 19 19 18 18 18 18 17 17 17 18 18 19 20 20 20 20 20 20 21 25 26
59 64 75 81 79 75 67 49 46 45 43 42 39 34 31 27 26 25 24 21 20 19 20 18 18 18 18 18 18 18 19 20 20 20 19 19 19 19 23 26 27 28 28
59 67 74 83 85 76 60 51 49 47 47 45 41 36 33 30 27 26 24 23 23 22 21 20 20 20 20 20 21 21 20 19 18 18 18 18 19 24 27 27 27 26 26
72 79 86 87 86 71 57 53 51 50 49 47 42 40 37 33 33 28 27 24 24 24 24 23 22 23 23 21 20 20 20 20 19 18 18 18 19 26 26 26 26 28 33
76 81 90 92 87 71 58 56 54 53 50 50 48 43 40 38 34 29 26 26 25 26 25 26 26 24 23 22 22 21 20 20 19 18 18 22 26 25 24 25 32 34 35
70 77 84 85 79 65 57 57 56 55 54 53 50 47 42 38 33 29 28 28 29 29 29 28 28 25 23 22 22 21 21 19 17 20 25 24 22 22 28 31 30 31 31
79 82 78 77 75 55 53 55 56 56 56 55 51 46 43 39 35 33 32 32 31 30 29 28 26 26 25 24 23 23 24 24 24 23 22 21 27 30 29 29 32 38 38
79 83 75 78 73 56 54 56 58 59 57 54 50 48 43 38 36 34 33 33 31 30 27 26 26 24 25 26 25 23 22 21 20 20 19 22 29 30 32 40 42 42 42
83 78 78 79 61 52 56 60 60 58 56 52 50 48 44 39 37 36 35 33 30 27 27 27 26 27 26 24 22 22 20 19 20 20 21 29 30 29 30 37 39 39 39
76 75 71 66 61 59 61 60 58 57 55 53 52 50 44 40 38 36 34 32 30 29 27 27 27 25 24 23 22 21 21 21 20 21 27 28 29 29 29 30 33 39 39
73 69 71 69 56 56 58 59 59 58 56 54 53 50 45 42 37 35 32 31 31 28 29 27 25 24 22 22 23 23 22 22 26 28 29 29 29 30 31 32 34 36 38
79 74 68 65 63 65 63 61 60 59 56 56 55 49 45 39 36 31 30 30 32 32 29 27 25 25 26 26 24 27 26 27 27 28 29 31 34 37 41 47 53 54 54
81 77 75 67 69 68 64 64 62 61 60 59 53 49 43 37 31 30 31 33 31 29 27 25 27 28 26 26 28 27 29 27 25 28 31 39 44 50 56 58 60 60 60
83 73 67 70 73 68 67 65 65 64 63 57 51 45 37 33 31 33 33 31 29 28 30 28 28 26 28 28 30 34 32 31 27 34 44 51 58 60 62 62 61 60 61
74 70 71 74 72 69 69 69 68 66 58 55 47 38 32 33 35 34 31 30 29 30 30 29 25 27 28 33 36 35 30 31 42 50 57 60 61 60 62 62 61 59 59
72 73 76 75 71 72 73 70 68 60 56 47 37 34 35 36 34 32 30 30 28 29 30 29 28 28 34 37 37 34 36 46 58 65 64 61 59 59 57 54 53 54 59
75 77 77 74 76 76 73 67 62 54 43 35 34 36 36 34 31 32 30 29 32 31 30 30 33 38 36 33 35 42 52 64 67 72 64 58 60 51 48 47 52 57 65
79 75 76 80 78 75 66 63 51 38 34 33 37 34 33 32 30 28 30 32 31 33 34 38 37 41 36 37 49 60 67 70 68 71 68 55 53 45 45 45 53 58 71
75 80 82 80 74 67 58 46 37 34 34 35 34 34 32 29 27 28 30 30 31 32 37 41 42 41 43 59 66 68 74 75 69 62 63 48 46 41 42 46 55 63 74
85 85 80 72 63 51 40 37 34 34 34 34 34 32 28 26 26 29 29 30 30 33 34 37 42 52 68 72 76 77 75 63 52 57 62 55 49 44 43 53 58 66 72
86 78 68 54 42 40 37 35 34 33 32 32 29 26 24 27 28 30 35 32 31 30 31 42 64 73 75 76 76 72 66 62 55 58 60 62 57 53 45 55 63 71 70
72 56 41 41 39 39 36 35 33 31 28 27 24 22 24 28 30 34 38 34 31 31 44 68 71 69 71 72 74 74 70 67 67 62 65 63 61 64 47 63 70 75 70

GFSMA_prec_cthk_048.txt.gz
RH
50 53 56 57 57 60 62 60 57 54 52 48 43 38 35 33 30 28 25 25 25 24 22 20 19 17 16 16 17 17 18 18 17 17 17 17 16 16 17 19 20 22 23
57 58 60 62 64 63 64 64 59 56 49 43 39 37 35 31 27 23 21 22 22 21 20 19 20 19 18 19 19 18 17 16 16 15 15 15 15 15 16 16 17 18 18
61 62 60 63 66 65 64 64 63 56 45 40 39 37 33 29 26 22 20 21 21 22 21 20 21 20 18 18 18 17 17 17 16 16 15 15 15 16 16 16 16 16 16
63 60 59 58 62 75 67 64 60 52 45 43 42 38 34 30 28 25 23 23 22 22 22 22 20 18 17 18 17 17 16 16 16 16 16 17 17 17 18 19 19 19 19
61 59 58 58 59 67 74 70 57 52 51 45 43 40 37 35 31 28 27 27 26 25 23 21 19 18 18 18 17 17 17 17 17 18 18 19 19 19 19 19 20 24 25
58 55 54 53 57 63 71 73 58 55 54 50 46 42 39 36 33 30 29 28 26 25 24 22 21 20 20 20 20 20 20 20 20 20 19 18 18 19 21 25 28 28 28
66 68 66 60 60 64 70 66 60 58 55 54 49 44 41 41 39 36 33 31 30 28 26 23 22 22 21 21 21 22 22 21 20 20 20 21 21 22 25 27 28 27 27
69 71 69 72 77 76 80 70 62 60 58 56 53 49 46 44 44 43 38 35 33 29 26 24 24 24 24 23 23 23 22 21 20 20 19 19 19 23 24 25 25 25 29
65 68 74 78 81 82 78 74 70 66 61 59 56 52 47 46 44 42 39 37 34 30 28 28 27 26 25 25 24 22 21 21 21 20 24 24 25 26 25 27 31 33 33
68 73 76 83 83 75 69 67 58 57 58 57 56 54 49 46 43 43 40 36 32 31 30 29 29 27 26 24 22 23 23 22 22 25 27 27 25 25 30 33 32 32 31
70 75 75 79 81 79 73 67 57 59 58 56 53 51 50 47 44 44 41 35 33 31 29 29 28 27 26 26 26 25 23 23 25 26 25 25 30 33 33 34 37 38 41
71 76 80 82 81 80 74 69 61 58 57 57 55 54 49 46 44 42 39 35 33 33 31 28 26 26 27 27 26 25 26 25 26 26 28 31 33 34 34 36 39 42 42
68 75 81 83 83 77 77 70 56 57 60 60 55 51 49 47 45 44 41 37 35 33 29 27 27 26 25 25 26 25 24 24 24 24 24 32 33 32 32 37 40 40 40
69 78 84 83 76 75 74 60 62 59 58 58 56 53 51 49 49 48 41 39 35 31 28 28 26 25 26 25 25 24 23 22 23 21 25 29 29 28 28 35 38 38 39
73 78 80 76 77 75 74 68 63 66 65 60 56 55 53 52 54 47 43 38 34 32 30 28 29 27 24 23 23 22 20 17 19 18 25 27 27 28 31 33 34 34 38
75 78 81 76 77 77 74 67 69 69 66 60 59 56 55 57 50 45 39 33 31 30 30 30 27 26 26 25 23 20 19 19 19 23 27 29 30 33 39 42 42 43 46
76 81 81 86 78 77 72 69 69 69 64 61 59 60 60 52 46 39 33 30 31 33 32 29 28 28 27 24 20 22 21 24 25 24 29 34 38 44 45 48 51 55 57
78 80 76 81 83 81 71 71 73 69 64 63 65 62 53 46 39 32 31 34 34 32 31 29 28 27 24 22 22 25 26 25 23 25 38 42 48 51 57 57 58 59 60
80 85 85 83 81 74 73 74 72 66 67 68 63 53 46 38 32 33 35 33 31 30 29 29 26 24 22 24 26 28 25 25 31 38 43 49 56 60 60 61 59 59 58
83 87 82 81 75 75 77 74 69 72 70 63 53 44 36 34 35 36 33 33 32 29 28 26 26 26 28 29 30 32 29 36 41 48 52 59 61 57 59 57 52 51 51
85 83 83 76 78 80 76 72 77 71 61 51 40 33 34 35 34 34 33 31 32 32 30 30 30 29 31 32 36 39 44 48 54 62 62 61 59 55 52 49 48 45 48
87 77 79 80 84 76 77 79 69 59 46 35 33 34 34 32 31 30 29 30 31 31 31 30 31 32 32 34 45 55 60 63 62 73 65 56 54 46 46 44 44 48 47
83 83 86 81 79 83 74 66 51 39 34 34 33 33 32 30 27 25 25 29 28 29 32 34 32 34 38 53 64 65 67 67 62 59 55 46 47 43 46 44 45 46 50
89 84 81 86 80 71 55 44 36 34 34 33 31 29 29 26 24 25 27 29 30 29 29 31 38 50 63 65 65 66 65 64 57 56 58 56 52 48 47 48 51 52 55
83 89 85 74 57 46 39 36 36 33 33 29 26 24 21 22 24 29 30 29 28 27 29 43 58 61 61 66 69 67 65 64 57 59 70 63 59 52 46 45 50 54 60
88 76 58 46 40 39 37 35 35 32 28 23 20 19 20 22 29 31 31 31 30 34 48 54 54 58 60 61 65 68 70 68 67 60 77 67 61 59 48 49 54 62 65

GFSMA_prec_cthk_054.txt.gz
RH
45 49 52 49 47 49 51 51 54 56 56 55 53 48 46 44 41 37 34 31 28 27 27 25 21 21 23 24 23 21 20 20 18 17 17 16 15 14 14 14 14 14 15
48 49 51 51 51 51 53 56 56 57 58 58 55 48 45 44 40 36 34 31 30 30 29 26 24 21 23 23 21 20 20 19 18 17 16 16 16 15 15 15 15 15 15
49 52 51 51 51 52 56 57 56 54 52 51 55 55 48 45 44 39 36 34 33 34 31 29 27 25 23 22 21 21 21 20 18 17 18 17 17 17 16 17 16 16 19
51 52 50 52 53 54 54 55 55 52 50 44 44 56 52 50 47 44 41 39 37 36 34 33 31 28 26 26 25 24 23 22 21 20 19 18 18 18 17 18 20 24 26
54 53 54 55 54 53 53 54 55 57 50 41 41 42 44 49 53 48 47 45 43 41 39 38 36 33 31 29 28 26 25 24 23 21 20 20 20 22 24 26 26 26 28
53 56 58 59 58 59 62 64 66 65 54 50 52 54 56 54 50 54 53 51 49 48 44 41 39 36 34 32 30 29 26 25 24 22 22 22 22 25 28 29 30 30 29
53 59 61 61 64 67 68 69 70 70 64 61 63 63 62 66 62 59 58 55 55 52 49 45 42 39 36 32 30 27 26 25 24 23 25 26 29 31 31 31 30 29 30
55 62 63 62 65 69 71 74 75 77 72 67 65 63 64 61 60 61 56 53 50 48 46 44 42 40 37 33 29 26 25 25 25 25 29 31 32 31 31 30 32 34 34
59 65 66 64 68 72 73 76 79 80 75 70 69 68 66 62 59 58 56 52 49 48 47 45 42 39 38 34 28 27 27 27 26 29 31 31 31 32 33 35 36 37 37
59 65 67 70 76 74 72 76 80 79 79 76 71 68 67 62 60 57 53 50 50 48 44 42 40 38 37 33 30 31 29 28 28 31 31 31 33 35 36 38 38 38 37
70 76 74 74 72 73 73 76 82 81 82 79 75 70 66 66 61 58 56 52 51 51 49 46 43 40 37 34 32 30 29 27 27 31 31 30 30 32 35 37 36 37 37
67 75 76 74 75 74 73 76 79 78 81 77 78 69 67 62 60 59 58 58 56 55 53 50 46 43 38 34 32 30 28 27 26 27 30 30 30 34 38 38 36 37 40
69 77 78 78 75 75 72 75 74 77 82 78 78 66 74 63 62 61 60 57 55 56 55 53 51 44 38 34 31 29 26 24 22 22 26 28 28 30 34 33 33 36 40
65 72 80 81 77 78 75 74 74 77 83 75 74 69 67 67 66 62 60 59 56 54 51 54 49 42 37 33 29 26 23 23 21 25 25 24 24 26 31 30 29 34 37
63 72 82 83 85 82 79 74 77 77 76 77 72 76 72 69 66 63 62 61 58 52 51 50 44 38 33 29 27 26 24 23 20 19 20 20 19 24 28 28 28 37 36
71 78 85 89 88 82 76 78 75 75 77 75 76 76 74 74 65 65 66 63 57 55 49 42 36 32 29 29 27 25 22 20 18 15 15 19 20 24 28 29 30 36 39
75 84 89 90 82 77 80 78 75 89 70 73 78 85 84 72 69 68 67 60 57 49 42 36 32 30 29 26 22 20 17 15 13 12 13 20 22 29 31 32 34 37 39
83 88 88 80 77 80 80 85 74 76 85 88 80 75 75 69 71 69 62 57 47 40 36 32 32 31 28 25 22 19 16 13 13 13 16 24 27 31 34 40 43 47 49
88 86 79 78 81 78 78 81 83 81 80 80 88 81 75 74 69 62 53 43 38 34 34 34 31 28 26 21 19 16 16 15 17 23 30 34 37 41 46 49 53 53 52
86 82 81 78 82 81 80 78 82 89 95 90 80 76 76 68 57 47 41 36 35 36 33 29 28 26 24 21 19 20 19 25 30 34 36 38 41 43 45 46 45 44 44
82 81 82 81 83 86 91 89 87 94 90 82 76 69 60 49 42 37 34 36 35 30 27 28 30 27 24 22 20 24 31 31 32 36 36 38 39 39 43 45 45 44 43
78 84 84 97 95 91 87 83 89 86 78 71 64 50 43 37 32 32 32 29 29 28 29 30 31 29 24 22 29 35 36 37 35 40 40 37 41 38 42 44 45 47 50
90 91 98 94 88 87 94 86 79 75 64 52 44 39 33 31 31 28 24 24 25 25 30 32 31 27 25 33 39 40 42 43 43 43 45 41 45 43 46 46 50 53 53
93 93 88 91 93 90 84 77 68 55 46 40 34 32 32 29 24 22 24 26 27 27 28 26 23 26 40 43 46 47 47 47 47 51 57 48 50 48 51 54 57 57 58
95 96 94 91 86 80 67 53 45 40 34 33 32 30 25 22 20 25 26 29 29 24 23 22 30 43 45 47 48 51 52 55 52 56 67 59 56 53 54 59 68 71 65
98 97 86 77 63 50 44 39 34 33 32 30 25 22 20 19 23 23 31 29 25 22 23 36 43 45 46 50 55 60 63 65 68 62 75 68 64 67 53 55 63 71 70

GFSMA_prec_cthk_057.txt.gz
RH
46 49 47 48 48 49 49 50 52 51 52 52 52 52 49 48 46 43 39 37 35 34 33 31 29 29 26 25 22 22 22 22 21 19 19 18 17 16 16 16 15 15 15
44 50 51 52 51 52 52 53 56 57 57 55 52 46 44 49 50 45 42 39 37 35 34 33 31 31 29 27 25 22 21 21 20 20 20 19 18 17 17 17 17 16 16
46 48 52 55 56 55 53 54 56 57 57 54 51 41 37 41 51 50 45 44 40 39 37 35 35 34 33 31 29 27 26 25 24 23 22 21 20 19 18 18 19 19 21
46 49 52 53 54 57 57 56 55 55 55 54 55 43 40 39 37 40 42 46 47 44 43 42 41 39 37 36 34 32 31 29 27 27 26 24 23 22 21 22 24 25 26
48 50 53 55 56 59 58 57 56 58 62 61 55 47 48 49 49 48 49 48 46 50 50 48 46 44 42 39 37 35 34 32 31 29 29 27 24 24 25 27 29 29 29
51 54 55 56 56 60 60 61 65 66 66 61 53 55 55 56 56 53 55 56 57 57 56 54 52 49 47 45 41 39 36 33 30 28 28 26 25 28 30 32 32 31 30
57 58 57 57 58 61 63 65 67 69 71 69 60 61 61 58 57 58 59 59 58 58 52 50 48 45 44 42 41 39 37 33 30 28 30 31 32 32 33 33 32 31 32
62 64 61 62 62 65 67 66 67 70 73 73 66 62 61 61 61 61 59 60 58 56 53 50 46 45 44 43 40 37 35 33 29 27 30 33 33 34 34 34 35 36 37
66 68 70 70 66 68 70 73 78 76 76 75 71 67 65 66 64 64 62 60 60 57 54 52 50 46 43 42 40 39 37 35 31 31 36 36 35 35 36 38 40 41 41
61 65 69 74 76 77 77 83 87 84 79 77 74 73 70 69 65 62 63 62 58 56 56 53 52 51 49 46 43 41 38 35 32 34 37 37 35 35 36 38 41 40 39
58 63 65 71 74 79 84 87 87 88 84 80 79 75 70 68 69 62 62 60 58 58 58 57 55 53 49 47 44 40 36 34 32 31 34 36 35 34 33 36 40 38 38
60 58 62 69 77 85 87 88 88 90 83 78 78 72 73 71 68 63 64 65 61 62 60 58 56 54 50 47 43 39 36 34 32 29 29 34 33 31 32 35 38 37 36
57 61 61 66 74 83 87 88 89 88 83 81 76 70 73 70 72 68 69 65 64 66 64 63 61 57 51 47 44 40 36 33 29 27 24 29 30 29 28 28 31 34 34
63 60 61 67 72 85 90 91 90 91 86 78 75 69 73 79 65 67 67 66 68 64 64 66 65 60 52 48 43 38 33 29 26 23 21 22 25 26 25 25 30 31 30
67 66 68 72 77 83 89 93 90 88 88 81 75 74 71 69 72 74 73 69 70 66 62 66 64 59 52 45 39 33 29 26 25 22 20 20 23 23 21 24 28 28 28
55 68 71 76 81 83 90 93 90 87 86 77 76 73 77 74 71 74 81 82 76 67 60 59 58 52 43 36 32 29 27 25 22 19 17 17 21 21 24 28 28 29 29
53 64 69 78 84 86 90 91 91 88 83 74 71 81 90 88 79 81 73 75 74 65 60 56 46 40 35 31 27 26 23 20 17 14 12 14 20 21 26 28 30 34 35
63 64 81 84 84 86 88 89 89 81 76 77 90 84 80 83 87 88 82 77 68 63 52 43 39 35 32 29 27 24 21 17 14 12 14 20 27 29 30 31 33 37 39
71 83 89 85 83 87 88 87 83 80 81 86 87 85 93 91 87 83 77 68 58 47 41 37 35 33 32 28 24 21 18 15 14 18 22 24 25 26 28 32 34 37 38
75 87 85 92 94 90 88 82 79 87 83 92 92 91 92 91 82 69 58 48 43 38 36 35 33 32 29 24 22 21 19 16 21 25 26 26 26 28 29 30 31 31 32
81 85 89 90 90 84 82 81 80 92 97 96 90 83 82 73 59 47 43 38 36 37 33 32 30 27 24 23 23 21 20 26 28 29 27 28 30 31 33 35 36 36 36
81 73 85 87 88 86 83 93 98 98 89 82 75 75 58 48 44 40 34 31 30 32 30 29 28 26 25 25 23 23 32 34 32 33 33 33 37 36 40 42 45 45 45
64 88 86 90 87 95 97 96 96 94 87 76 62 51 46 41 34 30 27 25 25 25 26 27 28 27 25 23 29 35 39 37 38 40 42 36 42 41 47 51 55 55 54
89 85 96 90 98 98 95 90 83 72 60 51 45 39 35 30 27 24 23 26 24 24 25 24 23 21 26 35 42 43 41 41 42 46 55 42 48 48 54 57 61 63 65
95 97 93 98 97 88 82 69 57 51 46 40 36 31 27 24 22 21 25 26 25 23 22 20 22 31 39 42 44 44 46 49 48 52 63 64 61 63 62 57 62 71 76
98 97 96 87 79 65 60 52 47 42 37 32 27 24 22 20 20 25 27 25 22 19 20 25 34 39 42 46 51 55 59 62 70 68 84 83 78 79 63 57 60 71 76

GFSMA_prec_cthk_060.txt.gz
RH
45 46 49 49 47 47 48 49 50 52 54 54 54 52 48 41 38 38 39 37 38 37 36 34 33 32 30 29 29 28 25 23 21 21 21 21 20 18 19 18 17 17 17
40 42 47 50 48 47 50 52 52 54 56 57 56 53 48 40 37 36 37 40 44 40 37 38 36 34 34 32 33 32 30 28 26 24 23 22 21 21 21 19 18 18 18
39 40 45 49 49 49 53 53 53 56 57 55 55 53 49 42 41 38 37 35 34 36 39 42 42 41 40 39 38 37 36 34 33 30 28 26 25 25 24 23 23 22 21
43 41 45 50 52 54 55 57 57 58 57 56 55 58 51 46 45 45 43 43 43 46 46 44 45 46 45 44 43 42 40 39 37 34 33 31 29 28 29 29 29 28 29
48 43 47 52 55 54 57 58 57 59 59 61 61 59 51 48 49 51 52 51 48 49 50 51 51 50 50 50 48 46 44 43 41 38 36 33 31 29 30 34 35 34 34
52 50 51 55 56 55 56 58 59 60 62 63 63 61 53 54 55 55 53 52 52 53 51 52 53 50 47 46 44 42 40 39 38 38 37 35 34 32 33 35 34 33 33
58 59 59 62 62 61 59 61 62 64 65 65 65 63 56 57 58 57 56 56 56 55 54 54 52 52 49 47 45 43 40 38 35 33 32 33 34 36 36 35 34 34 34
69 67 67 73 74 70 65 65 66 69 68 68 69 70 62 60 61 61 62 61 61 61 58 55 55 52 50 50 48 46 45 43 40 37 38 39 39 37 35 35 36 40 41
70 78 76 76 77 75 73 73 75 81 83 84 83 79 68 66 65 64 63 64 62 61 58 56 53 51 51 51 51 50 48 46 44 41 43 43 40 39 38 39 40 42 45
55 63 71 77 77 76 76 76 80 85 90 92 92 90 78 72 70 66 62 62 64 61 61 59 56 55 54 55 52 50 48 46 43 40 37 38 41 40 38 39 39 42 45
63 69 64 67 71 74 76 78 83 85 87 92 92 93 88 80 74 66 62 65 65 59 57 61 60 57 55 54 52 50 48 44 42 39 36 37 40 40 39 39 38 41 43
44 52 61 68 69 72 70 75 80 85 89 92 92 89 87 84 78 69 61 65 64 67 65 64 59 57 58 56 53 50 48 45 41 37 35 32 36 36 34 33 34 34 34
52 56 65 73 74 71 70 73 79 87 89 91 93 89 91 83 80 73 66 64 75 67 64 66 65 65 63 59 55 50 48 42 39 36 32 29 32 32 31 30 29 32 38
52 58 70 76 76 72 72 76 83 88 92 95 93 89 90 89 78 79 73 70 70 71 73 75 71 72 77 65 57 53 48 42 37 32 27 26 24 24 29 29 28 29 31
43 47 59 68 84 82 75 82 85 92 96 93 94 91 89 87 83 83 79 77 77 76 76 81 78 73 67 65 59 51 45 38 33 29 27 25 25 29 28 26 25 26 28
36 43 49 60 70 78 85 86 89 93 91 89 92 91 89 89 86 79 85 86 92 83 71 77 77 75 69 61 52 45 39 33 29 28 25 23 26 26 25 25 28 30 32
31 42 47 60 68 76 83 90 91 89 86 87 89 92 89 89 83 86 82 92 82 89 85 78 74 66 56 47 41 35 30 29 26 23 19 17 23 24 24 27 28 32 34
44 46 50 54 61 74 77 86 88 85 86 90 92 89 94 90 89 94 96 85 85 84 79 69 57 48 43 38 32 30 28 26 22 18 16 16 22 21 25 28 28 29 32
55 60 59 61 63 70 74 79 83 85 92 89 93 96 91 96 90 96 96 87 75 70 60 50 44 40 35 32 31 27 25 22 17 14 16 20 22 24 25 29 30 32 30
64 71 75 70 71 73 83 84 83 80 88 95 97 91 87 96 94 91 79 68 60 52 45 42 37 33 32 29 27 25 22 18 16 18 20 25 27 27 28 30 30 30 30
83 84 82 79 73 78 88 88 90 97 94 96 97 96 96 90 81 70 62 56 51 44 37 32 31 30 28 26 25 22 19 19 22 26 26 27 29 30 34 35 35 36 36
81 92 92 85 80 84 96 89 91 93 96 98 94 90 81 70 62 52 44 38 32 30 28 29 29 27 25 24 22 19 26 31 31 31 30 29 36 35 38 39 42 43 45
96 98 95 92 86 89 94 95 93 90 95 90 82 70 60 51 44 38 34 30 26 24 26 27 26 25 23 21 25 33 36 36 37 38 42 35 42 41 46 48 53 54 57
94 94 94 85 93 99 93 98 95 87 78 67 60 52 44 39 34 29 25 25 25 22 23 22 21 20 23 32 36 38 40 40 43 49 60 50 58 59 63 66 71 77 80
90 91 83 97 95 95 92 82 74 68 59 50 43 36 30 28 24 20 25 25 23 20 19 17 18 27 33 37 40 42 48 53 51 54 58 57 55 57 64 70 77 79 81
96 98 98 96 89 80 68 59 51 46 39 32 26 24 22 18 20 24 25 23 18 14 15 20 31 35 40 44 52 57 57 57 53 45 51 57 58 67 56 63 73 76 76

GFSMA_prec_cthk_063.txt.gz
RH
41 42 44 45 42 44 44 44 45 46 47 48 50 51 50 47 40 35 33 32 32 35 37 37 36 34 34 33 32 31 30 30 30 28 26 24 22 21 21 20 19 19 19
41 41 42 46 44 45 45 45 48 49 48 49 51 51 50 46 43 38 36 35 35 35 35 36 37 38 38 38 38 37 35 34 34 34 32 31 29 26 24 23 22 22 20
40 38 40 44 47 47 46 49 51 51 51 53 53 51 50 47 43 41 40 38 38 37 38 38 41 43 43 44 44 44 44 42 40 39 37 35 33 31 30 28 26 26 26
46 43 41 45 48 49 48 52 53 55 54 54 53 52 54 51 43 42 43 43 43 45 45 43 45 46 48 48 48 47 48 47 45 43 42 41 38 36 33 31 31 30 31
50 50 48 48 50 51 52 54 55 55 56 56 56 56 57 52 45 45 46 47 46 46 46 48 49 48 49 51 48 47 46 47 47 44 41 39 38 37 36 36 38 37 37
58 59 57 52 53 54 55 56 59 59 59 59 60 62 60 54 48 49 52 51 48 47 49 51 50 50 50 48 48 47 45 45 43 40 38 36 35 35 37 39 38 37 36
66 67 68 60 56 59 61 62 64 65 64 64 64 67 65 58 53 53 55 53 52 52 53 53 53 53 51 50 50 48 46 46 44 45 43 41 41 43 43 40 37 37 36
67 70 71 70 66 66 69 70 72 73 71 71 71 74 70 69 67 64 60 57 57 55 54 56 55 53 52 50 48 47 47 47 47 46 44 42 46 47 44 42 40 41 43
61 69 70 77 75 74 74 76 76 78 76 78 80 81 80 78 77 74 70 63 62 59 53 55 58 55 55 54 51 51 52 51 48 45 45 43 43 46 45 42 41 41 43
51 56 60 66 77 78 80 80 80 80 81 84 87 87 89 84 81 80 76 73 69 64 60 58 61 58 56 57 58 56 55 53 52 48 45 44 43 44 43 42 43 44 45
41 47 50 60 65 68 76 79 79 78 81 84 87 90 90 88 86 84 83 81 80 68 65 61 61 62 64 60 57 55 56 56 54 52 46 42 41 44 42 42 41 40 39
39 45 52 60 65 73 74 69 73 79 82 85 87 88 89 92 93 88 83 80 79 75 69 64 63 71 70 62 60 60 60 58 57 55 49 44 40 44 42 40 37 35 34
35 36 43 51 55 62 76 73 74 79 81 85 89 90 93 95 92 87 86 84 86 76 74 71 74 69 66 63 62 64 65 59 55 51 48 42 38 36 36 37 35 33 33
34 38 41 52 60 66 72 79 86 86 87 88 92 97 96 96 92 88 85 90 80 73 86 79 82 83 79 73 69 65 64 60 56 51 43 38 33 31 29 30 33 32 30
31 35 39 43 55 65 73 80 92 90 93 91 94 95 93 95 90 89 88 80 78 86 81 81 86 90 87 76 75 75 68 57 51 44 38 36 32 31 35 33 32 31 30
30 29 31 37 45 53 62 74 82 98 93 94 94 94 89 89 86 84 90 85 85 91 93 91 90 86 87 80 75 69 58 49 42 39 33 29 29 33 31 29 29 30 32
42 44 43 42 45 49 55 64 73 83 92 93 91 89 87 86 83 83 84 93 96 97 98 97 93 85 76 67 61 50 45 40 34 30 27 24 23 28 26 26 26 27 31
52 52 53 54 55 58 62 65 70 76 80 80 79 84 85 86 89 91 95 96 96 97 89 83 79 73 62 50 48 44 37 32 28 24 20 18 18 18 19 23 26 27 29
55 57 61 59 61 69 70 70 69 68 67 69 75 82 85 87 98 96 97 98 92 84 80 71 65 61 56 47 41 34 29 25 21 17 16 18 19 20 22 24 29 30 30
70 71 67 67 69 79 78 75 69 66 70 82 90 93 94 97 98 98 96 88 81 76 69 61 51 43 40 35 31 28 25 21 18 18 20 23 23 24 25 26 27 28 28
80 82 80 81 82 83 89 84 75 75 84 94 95 99 99 98 93 82 79 72 66 56 48 44 41 37 33 33 29 24 22 24 26 23 23 24 28 29 31 33 34 35 36
90 92 90 87 89 90 91 88 86 87 95 97 94 97 97 86 78 69 60 53 46 40 39 34 31 28 26 25 24 24 27 29 28 27 29 34 39 40 45 47 51 54 55
97 98 97 97 97 95 92 92 94 94 98 97 91 78 69 66 62 53 45 37 32 30 26 24 25 24 23 19 23 27 30 34 36 37 39 37 39 33 33 34 39 44 51
98 98 98 98 98 99 98 98 97 97 88 78 73 66 56 48 39 32 28 21 18 18 18 18 18 16 19 27 32 35 36 40 42 43 43 35 32 33 35 36 39 45 53
97 95 95 96 97 91 96 91 83 73 61 54 44 38 31 27 22 20 22 19 14 12 12 12 14 21 28 32 36 40 45 46 46 40 39 42 40 40 40 40 42 48 53
91 94 97 92 96 87 73 62 54 48 38 33 29 24 19 16 14 20 18 13 12 11 12 18 27 31 36 41 47 47 47 53 51 42 46 47 46 48 46 48 50 51 54

GFSMA_prec_cthk_066.txt.gz
RH
46 46 45 41 40 42 43 45 47 45 47 46 46 47 48 47 44 39 37 33 33 34 34 33 33 35 36 36 35 34 33 33 32 32 32 31 31 29 27 25 23 22 22
45 46 46 44 41 39 42 46 49 46 48 49 47 49 50 47 43 38 39 38 36 36 35 34 34 34 34 36 39 39 40 38 37 38 37 37 35 34 32 31 30 27 25
44 45 45 44 42 42 42 45 47 47 50 51 51 52 51 48 43 40 38 43 38 37 36 38 41 41 41 41 42 42 43 44 44 42 42 42 41 40 39 36 33 31 30
46 43 42 45 45 45 45 45 45 47 51 53 53 53 52 50 49 44 40 38 38 42 41 42 42 42 43 42 43 45 46 47 46 46 46 46 45 43 41 39 38 38 38
50 48 45 45 47 48 49 48 48 49 53 55 54 54 54 53 55 46 44 43 41 43 45 43 42 44 46 45 45 46 45 44 44 44 44 43 41 39 38 36 35 39 43
54 51 51 52 54 54 53 53 52 51 55 58 60 58 58 58 56 52 49 50 50 48 47 45 45 47 48 47 47 47 46 45 45 45 44 43 42 42 43 44 44 43 41
52 57 60 62 63 63 63 60 60 58 59 65 67 65 63 62 61 58 54 55 57 56 53 51 51 50 50 50 48 47 46 45 44 44 43 43 44 45 48 48 46 44 43
54 56 64 65 65 69 71 67 67 67 67 72 75 73 68 66 67 66 63 62 63 65 62 58 55 53 50 50 50 49 48 46 44 46 47 47 46 45 47 49 46 45 44
49 54 60 67 69 72 71 71 74 74 74 77 80 81 77 71 72 74 73 71 70 72 73 68 61 60 58 54 55 51 51 51 51 50 49 47 47 45 48 50 47 45 44
42 45 52 57 62 67 71 75 79 81 82 80 84 83 80 77 77 76 75 74 74 74 75 75 74 70 66 60 60 57 57 54 52 51 50 50 50 49 52 51 49 46 45
40 43 45 55 57 60 60 61 70 80 81 84 84 84 83 84 84 85 80 79 78 79 80 79 79 74 71 68 63 61 62 60 57 53 56 56 52 49 51 54 51 47 43
36 39 44 48 55 58 59 61 64 71 76 82 84 82 84 85 83 85 86 80 84 81 80 80 80 79 78 72 70 70 67 63 62 61 59 55 52 49 49 47 47 46 42
33 33 36 41 46 51 59 65 71 77 81 86 86 85 88 90 88 88 87 85 86 84 84 86 80 83 81 74 81 81 75 75 74 69 63 59 57 51 46 41 39 40 40
32 35 39 43 46 48 51 59 66 72 78 84 90 89 93 95 94 90 88 91 92 91 87 85 87 89 82 88 86 83 79 78 76 73 65 59 51 46 40 35 33 34 36
29 30 33 38 41 45 49 53 61 73 76 82 88 94 99 98 95 92 95 92 93 92 86 84 83 87 90 92 95 93 89 82 75 68 56 46 39 36 33 33 33 32 33
32 32 33 35 37 40 45 51 57 62 73 88 93 91 98 97 97 91 91 93 90 89 86 93 93 95 97 97 97 93 80 73 64 57 48 41 38 35 33 33 33 32 30
42 41 41 41 42 47 50 53 56 59 64 72 78 88 88 90 96 90 88 88 92 91 96 98 99 99 96 92 87 79 69 61 61 54 46 40 34 32 33 31 30 28 28
45 48 48 50 54 55 56 60 62 66 70 71 75 82 82 81 81 81 82 88 91 93 99 99 98 93 84 76 73 72 68 59 45 38 33 28 25 24 22 20 22 26 26
49 52 55 54 55 58 63 68 71 75 77 79 81 79 76 79 78 78 86 95 97 97 98 93 87 82 75 67 59 52 45 35 31 24 23 22 20 20 20 21 21 24 22
52 54 62 66 70 72 72 74 79 86 87 84 82 78 77 76 83 96 99 99 97 91 84 77 72 66 59 52 44 41 36 31 26 21 24 22 22 22 22 23 23 24 26
61 67 72 77 84 86 84 81 81 87 88 88 85 76 87 89 99 99 97 89 79 75 66 57 54 46 39 33 30 25 23 22 24 23 26 26 28 29 28 29 29 27 27
76 77 83 85 89 85 88 88 93 93 97 93 84 85 94 98 90 84 77 72 62 49 45 41 34 28 26 24 22 20 22 25 25 26 31 33 35 32 30 27 23 24 27
87 90 94 95 97 95 96 97 98 99 94 95 90 95 90 83 77 69 51 39 32 26 22 24 22 20 18 18 19 22 28 30 33 39 39 36 37 35 30 30 29 30 31
86 92 97 97 98 98 98 98 97 98 97 93 87 81 67 47 38 33 27 22 16 16 15 14 15 16 18 23 28 31 35 40 43 42 44 42 42 36 38 36 34 35 38
85 92 95 96 97 97 97 97 91 86 76 65 52 40 31 27 22 15 17 15 15 12 10 9 11 16 23 28 32 38 41 42 42 46 49 52 45 44 43 42 44 46 48
88 92 96 97 89 83 76 67 54 44 33 27 23 20 17 14 12 15 13 12 9 10 12 16 24 28 32 35 38 40 42 48 54 55 58 55 53 56 55 62 64 64 66

GFSMA_prec_cthk_069.txt.gz
RH
47 44 41 42 42 40 41 41 43 47 47 46 45 45 46 47 46 45 38 35 34 32 32 32 30 30 30 31 31 31 33 35 35 35 35 34 33 33 32 31 31 30 28
47 48 47 45 45 43 41 40 42 43 46 47 45 47 46 46 46 44 38 36 35 34 33 33 31 31 32 35 36 36 37 38 37 38 39 40 40 39 38 36 35 33 31
51 51 49 46 47 46 44 41 41 42 45 45 45 47 49 48 47 45 40 41 41 36 35 35 35 36 38 38 38 37 38 40 41 43 43 43 43 43 43 42 40 39 37
56 58 54 50 49 48 45 45 43 44 45 45 45 49 51 49 47 46 44 44 45 43 41 38 39 40 39 39 41 42 41 41 42 43 42 42 42 41 41 41 39 38 38
53 54 55 54 53 51 48 46 48 48 49 46 47 50 54 52 51 50 49 44 45 48 47 47 44 43 41 41 43 43 43 44 43 43 44 44 43 42 41 40 40 40 42
49 53 58 58 57 56 52 52 53 54 54 52 52 51 55 56 57 54 55 49 49 49 48 53 53 50 47 46 45 45 44 44 44 43 43 43 42 42 42 42 46 51 50
45 50 55 59 59 59 58 60 64 65 66 63 59 57 60 62 63 63 61 57 54 54 54 56 57 58 56 52 50 49 46 47 47 46 45 43 42 44 46 49 53 52 51
39 41 49 55 58 61 64 65 71 70 72 71 67 68 67 67 69 72 71 67 64 63 61 61 60 62 64 63 58 54 53 55 52 50 49 48 48 47 45 47 51 53 52
40 39 42 49 59 64 67 70 72 74 74 74 75 75 76 74 74 75 78 77 72 72 71 69 67 67 68 67 65 63 67 60 58 56 56 54 50 49 47 48 54 58 56
38 47 52 50 54 63 66 69 73 73 77 75 79 79 80 80 80 79 80 78 80 77 76 73 74 71 73 72 70 70 72 66 64 60 62 61 56 53 54 56 61 59 55
36 40 52 58 58 60 64 69 73 76 74 77 75 78 87 88 86 84 81 83 81 82 80 80 78 77 79 77 76 73 76 76 74 71 69 67 62 64 63 61 61 58 55
38 37 41 46 50 55 61 59 68 78 78 78 75 77 80 86 87 89 93 89 88 87 89 84 85 82 79 81 78 76 77 79 78 74 76 78 72 73 71 67 60 54 51
37 38 38 39 44 50 55 58 65 72 78 81 80 81 83 88 89 93 96 93 88 87 88 89 85 84 83 84 84 85 80 84 88 86 86 86 78 73 68 64 58 53 50
41 37 36 36 38 43 49 52 54 55 57 63 69 73 81 87 93 96 96 92 92 92 90 88 93 94 94 91 84 82 89 86 90 89 93 87 81 71 65 60 50 44 41
36 37 36 36 36 41 46 52 57 61 63 67 69 69 75 85 91 91 88 95 98 95 97 95 95 92 90 92 90 94 94 93 94 95 90 81 71 64 57 49 45 41 40
33 33 34 36 38 40 45 50 53 57 60 64 67 74 77 84 91 91 98 94 92 98 97 93 84 87 87 92 91 98 96 95 91 84 77 70 64 62 56 51 45 44 44
32 33 35 37 39 43 48 55 57 58 63 69 72 74 76 80 80 94 95 92 94 92 91 95 87 88 91 92 94 94 91 85 78 76 73 67 59 48 41 38 37 36 36
31 35 39 41 43 48 53 55 59 60 63 67 69 73 80 83 85 81 76 94 91 86 84 87 84 90 98 97 93 89 84 76 64 54 47 42 38 35 32 30 26 24 26
37 41 44 47 50 53 57 61 63 66 70 70 77 81 85 85 83 84 77 81 78 79 79 80 98 96 89 82 74 68 59 49 40 33 29 24 24 23 20 19 18 19 21
41 45 49 51 57 65 69 71 75 78 77 76 78 82 87 86 84 87 84 84 77 75 85 91 86 78 70 61 49 38 35 32 24 20 19 18 22 19 20 20 20 23 23
46 51 58 63 67 72 77 84 87 90 89 83 83 87 91 92 91 89 79 78 82 84 81 75 66 54 43 35 30 25 21 18 13 16 18 19 24 23 23 24 25 24 26
55 61 66 75 79 81 80 78 80 87 86 84 91 99 99 97 96 90 91 85 80 68 54 40 33 27 22 19 17 15 15 16 19 22 26 27 29 28 28 28 26 26 26
62 66 70 73 76 81 84 87 91 94 97 97 98 98 97 93 89 82 70 61 47 30 22 15 13 16 16 15 14 15 22 28 31 33 36 32 32 33 35 35 32 30 30
65 66 70 75 78 81 85 90 94 97 98 98 97 94 84 75 65 47 32 25 16 13 12 12 12 11 12 16 24 28 31 34 34 34 40 40 43 44 44 44 38 37 39
70 72 72 76 79 82 88 92 94 90 82 72 61 47 38 30 22 14 13 13 11 13 12 9 9 12 21 25 28 31 33 37 42 45 49 50 50 48 47 47 48 52 54
72 74 75 74 70 65 56 43 37 34 32 28 25 21 17 14 11 10 9 9 10 10 10 14 20 24 27 30 33 35 38 44 49 50 53 52 53 52 49 54 58 61 61

GFSMA_prec_cthk_072.txt.gz
RH
42 41 38 39 37 34 34 35 36 38 39 39 41 43 44 44 45 41 40 38 33 31 32 31 30 28 28 28 29 30 32 33 32 33 34 34 35 36 37 36 35 35 33
44 45 44 44 43 43 40 40 38 39 39 39 41 42 43 43 45 44 41 40 35 34 35 33 33 30 31 33 34 35 34 34 34 35 36 38 38 39 40 40 40 40 39
42 43 44 44 48 50 46 45 43 41 41 40 41 42 42 43 47 46 42 40 38 38 37 37 38 37 36 36 36 36 37 38 37 37 37 38 39 38 38 38 38 39 39
42 46 46 46 50 52 52 51 48 46 43 43 44 43 43 44 46 48 45 41 41 40 39 40 41 40 42 39 39 37 39 40 39 40 40 40 39 39 39 38 38 38 37
39 43 45 48 51 53 55 55 54 53 49 46 47 47 48 48 49 50 51 49 44 43 43 45 44 43 48 49 46 44 44 43 43 43 43 42 41 40 40 38 38 39 42
38 38 39 43 48 49 51 55 57 57 57 55 54 56 57 55 55 55 54 56 55 50 47 48 48 49 51 51 52 52 51 48 47 46 45 48 45 43 43 41 40 42 47
38 39 39 41 43 47 50 57 58 58 60 65 66 66 66 68 66 63 64 63 64 63 56 55 55 55 57 56 55 57 59 61 56 52 48 53 53 51 49 46 44 45 47
43 43 42 42 44 51 55 53 57 62 64 69 69 74 72 72 71 73 75 73 73 73 71 66 63 62 62 62 62 61 62 64 61 60 60 62 59 55 54 54 50 49 52
40 42 46 49 51 55 52 54 60 67 72 74 75 75 76 75 76 77 79 81 81 79 80 78 72 70 70 71 69 68 68 68 67 66 67 66 63 60 59 59 58 59 59
31 40 47 48 53 53 56 64 68 66 71 76 83 83 82 80 79 77 77 80 85 83 83 84 82 79 75 72 73 75 76 76 72 72 72 70 72 71 69 70 68 67 69
26 28 36 48 49 55 56 60 68 68 69 76 75 80 85 88 89 87 84 81 84 88 87 87 89 87 83 79 76 78 81 81 78 77 78 75 72 74 75 77 79 79 71
35 37 38 39 43 51 55 60 62 68 68 70 71 73 79 87 92 90 88 88 90 90 92 90 90 91 88 86 83 83 85 83 85 85 82 79 77 81 81 80 80 77 72
38 40 44 42 39 41 45 49 54 60 67 71 73 68 71 86 94 94 96 95 93 93 92 87 93 89 88 91 87 92 92 93 92 89 87 87 87 81 83 81 76 75 69
35 35 36 36 37 39 41 43 46 52 60 67 71 76 75 74 75 78 87 92 91 92 96 92 90 85 93 95 95 97 96 94 93 92 95 95 96 90 85 79 73 69 63
33 35 38 38 39 41 43 46 50 55 61 68 73 77 77 78 81 85 88 90 92 94 95 91 90 99 97 97 97 97 88 87 88 84 87 87 87 83 71 69 65 64 62
31 32 33 32 31 34 36 39 44 48 53 62 69 75 80 83 84 86 88 90 90 91 91 94 97 96 98 98 97 96 91 87 84 89 87 85 84 80 74 68 63 55 55
27 25 25 26 28 32 35 38 41 47 51 55 64 68 75 80 83 87 90 91 93 91 92 91 97 96 97 97 95 87 82 87 89 88 79 69 65 61 55 51 48 46 47
26 28 29 30 32 36 39 43 47 53 56 62 67 73 75 80 84 84 83 87 91 88 87 86 84 96 90 87 83 81 81 77 70 61 56 50 45 39 35 32 31 28 28
28 29 30 33 37 41 47 48 50 57 65 74 78 79 80 82 85 87 88 91 89 88 89 98 95 85 83 75 67 65 64 60 46 36 28 22 20 18 17 19 18 22 24
30 31 33 36 40 44 48 51 58 63 66 75 83 89 92 89 83 85 82 92 91 90 91 89 82 76 65 60 57 51 38 31 23 17 15 14 14 15 16 18 19 20 21
34 36 40 46 51 54 58 60 63 68 71 75 81 84 88 85 86 84 97 96 95 88 89 85 73 59 55 44 31 25 16 8 7 12 15 18 20 21 22 23 24 24 25
42 44 47 51 56 60 64 66 67 72 72 79 80 83 86 87 90 93 95 91 87 73 70 58 49 30 26 20 15 12 9 13 17 20 21 23 22 23 25 27 29 30 32
45 49 52 55 56 61 64 68 72 76 80 85 88 91 91 95 98 93 81 75 67 54 35 20 12 11 11 10 9 12 18 20 22 22 24 24 29 32 36 38 39 40 40
50 54 57 59 62 65 67 71 74 78 82 84 87 88 85 74 62 50 38 28 23 17 13 10 8 8 7 10 17 20 22 23 24 26 29 30 36 39 41 41 42 43 45
57 59 60 63 64 66 61 55 44 36 32 31 30 27 24 22 20 16 15 14 13 12 10 8 7 11 17 20 22 23 25 26 28 30 34 38 40 40 42 43 46 48 51
58 58 47 32 26 25 24 22 20 20 19 18 17 17 17 16 14 12 11 10 10 11 9 10 16 20 22 23 25 27 28 30 33 35 37 40 43 45 44 44 48 53 57

GFSMA_prec_cthk_075.txt.gz
RH
41 40 39 39 39 38 39 38 35 32 33 34 35 35 37 40 42 42 44 42 38 35 31 30 31 29 28 27 28 29 31 31 31 32 32 32 33 34 35 35 36 36 36
42 41 40 39 42 41 41 45 47 43 41 40 38 38 38 39 41 41 43 45 42 38 35 34 33 32 33 33 33 33 33 32 33 34 34 35 35 35 36 36 35 35 36
43 43 41 40 43 44 43 44 47 50 50 47 45 42 42 43 43 42 43 46 44 41 39 37 36 35 36 37 38 38 37 36 36 36 37 37 38 38 37 36 35 34 34
42 40 38 38 43 45 45 45 46 49 52 52 51 50 46 45 47 47 44 46 47 46 43 40 39 39 40 40 42 45 44 42 41 41 40 41 41 40 40 38 38 38 36
37 35 36 37 39 43 44 45 44 46 50 54 56 55 53 50 50 52 53 52 49 51 51 48 45 44 43 45 46 48 49 51 50 48 47 45 44 44 45 47 43 42 41
39 38 39 39 39 40 42 43 45 47 49 54 57 58 57 57 59 61 63 65 60 58 58 57 55 55 50 49 51 54 55 55 56 55 56 55 50 48 47 52 51 51 50
40 40 40 41 43 43 44 46 48 52 54 58 60 60 60 59 61 66 71 73 74 72 70 68 68 66 65 61 58 59 60 59 59 58 57 58 56 54 55 58 57 56 56
41 42 42 40 44 46 50 49 53 57 59 64 72 75 71 69 66 68 72 77 79 77 79 81 79 78 76 74 71 68 66 65 64 63 62 62 62 62 64 63 61 59 63
47 49 47 44 45 48 49 54 58 63 70 74 74 81 80 74 76 76 77 77 80 82 82 84 86 86 86 82 80 76 74 73 72 70 71 71 71 71 69 70 70 72 74
41 43 49 48 47 44 43 49 55 67 65 72 78 79 77 78 80 81 84 85 89 90 89 87 85 85 90 88 85 84 81 80 78 77 77 78 78 78 76 74 76 76 76
30 33 34 34 34 38 43 48 52 53 59 61 64 74 78 81 84 87 88 87 90 93 95 95 92 90 90 90 89 84 87 86 81 84 81 83 79 79 78 75 78 77 82
30 28 28 32 38 41 43 45 47 49 52 57 60 63 72 80 83 87 85 87 94 94 93 95 95 95 89 88 87 92 90 88 89 86 89 88 91 92 87 83 81 85 84
37 34 34 35 37 39 40 41 43 46 50 52 55 62 68 69 79 87 90 88 83 88 92 95 97 90 84 94 91 96 95 95 97 97 97 97 97 91 84 84 84 83 84
30 30 31 32 34 37 41 42 42 41 42 47 51 55 61 74 79 86 91 95 93 92 90 89 91 87 94 96 96 97 97 98 97 98 98 98 95 90 85 79 72 68 69
29 32 34 37 39 39 35 32 34 36 37 41 46 49 53 60 70 81 92 96 98 96 94 95 96 98 93 95 97 97 99 98 97 97 95 96 92 86 77 76 77 76 78
29 31 31 32 32 31 28 27 28 32 35 39 40 49 50 56 64 72 81 89 96 99 98 97 98 97 96 95 97 98 98 96 95 93 89 91 87 79 80 76 70 64 60
27 28 29 25 24 24 25 27 29 32 37 41 43 47 54 59 66 74 75 78 89 90 93 95 97 98 95 91 91 94 93 91 91 88 87 79 65 55 52 47 47 47 46
31 29 24 24 25 25 27 30 35 39 43 45 47 50 58 64 74 85 85 81 90 92 96 94 96 94 91 92 90 91 90 87 75 61 54 41 38 36 32 30 30 28 28
28 27 26 26 26 28 32 36 41 43 45 49 53 56 60 66 73 81 89 88 88 94 89 93 88 90 91 92 87 85 73 59 46 34 29 22 18 15 12 14 17 20 20
30 29 28 29 32 36 41 43 45 49 52 54 57 60 66 70 72 79 82 84 81 87 89 92 97 87 86 79 69 59 48 37 30 20 15 12 14 17 19 20 21 21 21
32 31 33 37 41 44 49 51 54 56 58 60 62 65 66 69 74 78 85 89 85 82 88 96 82 76 64 59 47 32 21 15 10 12 16 19 21 21 22 22 23 24 25
35 37 41 45 48 50 50 52 55 58 59 63 67 70 73 78 80 84 91 95 97 90 83 77 66 54 34 20 12 10 9 11 17 19 20 21 22 22 23 27 29 31 33
43 44 45 49 52 53 55 56 58 60 62 66 67 67 68 73 76 78 72 64 53 44 40 33 21 14 10 9 9 9 16 19 21 23 21 20 23 25 27 29 33 36 37
48 52 53 53 55 56 55 51 46 43 40 37 34 31 26 21 18 18 18 16 16 16 14 13 11 10 8 8 13 19 21 23 23 23 25 25 27 28 30 31 35 39 40
56 55 55 55 48 33 27 22 19 17 16 15 15 15 15 16 17 15 14 14 14 13 13 14 12 12 13 19 21 23 24 24 24 26 27 27 28 27 31 32 37 42 42
58 49 30 24 21 20 19 17 16 16 16 16 17 17 17 17 16 16 15 14 14 14 14 13 15 19 21 23 24 25 26 27 28 28 29 30 32 33 32 37 39 38 38

GFSMA_prec_cthk_078.txt.gz
RH
39 39 39 38 37 37 40 39 39 41 43 46 41 39 37 38 38 38 41 42 43 42 38 34 32 31 30 30 29 31 32 33 32 32 31 32 32 33 32 32 33 33 33
41 41 41 39 39 39 38 40 40 41 42 45 47 46 43 42 40 41 41 43 44 45 43 39 36 35 34 33 33 35 36 37 36 35 34 36 35 35 36 36 35 34 33
42 41 42 41 38 38 39 41 43 42 45 45 47 50 49 47 46 43 44 45 46 45 46 45 41 39 37 37 37 38 41 43 41 40 38 38 39 38 39 38 38 37 36
38 39 38 37 36 37 40 43 45 46 45 45 46 48 51 52 52 51 50 48 52 52 49 49 48 45 43 41 40 42 45 46 48 48 47 46 44 43 42 41 41 41 41
38 34 34 34 34 35 37 38 39 41 41 42 44 47 49 51 53 54 53 56 57 61 62 58 54 52 52 52 48 46 48 50 52 53 54 54 55 55 51 47 44 43 46
37 35 37 38 38 37 38 40 42 45 45 47 50 52 53 54 55 54 55 56 61 67 73 75 71 66 60 60 60 62 58 55 56 59 59 58 58 57 58 56 54 52 52
39 41 40 39 40 40 40 41 45 48 50 52 57 58 61 65 66 69 68 66 65 69 76 82 83 83 81 75 74 72 75 71 64 64 65 65 64 62 62 61 59 59 60
43 43 42 46 51 52 49 46 47 50 51 57 59 66 72 73 72 75 78 77 77 78 79 83 87 88 88 86 83 82 80 84 82 73 71 70 69 69 69 68 68 67 70
45 48 51 52 51 51 50 53 51 48 47 55 67 76 76 71 71 74 77 78 82 85 87 90 91 91 92 90 88 88 88 85 85 81 82 79 76 75 75 75 78 80 80
42 38 41 46 48 51 52 47 48 44 50 52 60 68 68 64 66 67 73 76 82 87 92 94 95 96 96 96 95 92 88 92 88 84 84 86 85 85 84 83 87 87 85
33 34 36 39 42 40 35 34 37 45 56 55 56 60 62 64 64 67 66 70 79 86 90 91 94 96 97 97 98 95 94 96 94 93 93 95 94 90 91 97 96 95 89
26 30 32 34 32 29 33 37 45 52 51 60 55 59 62 65 60 69 64 67 71 77 83 84 91 93 96 97 93 97 95 97 93 97 97 97 97 98 98 98 98 97 95
27 30 38 37 38 42 44 43 39 37 44 45 44 47 50 57 56 60 74 64 70 75 86 84 92 92 96 97 97 94 96 97 97 98 98 98 97 98 98 97 96 97 96
29 33 36 36 34 35 40 40 40 40 40 40 41 42 43 45 48 54 61 64 67 76 82 90 84 97 96 99 96 98 95 97 97 98 98 97 96 96 96 95 96 93 90
25 30 32 32 33 36 36 38 36 34 30 31 33 35 38 42 45 47 52 58 63 71 78 79 88 85 96 97 95 96 99 98 97 98 97 98 96 94 93 94 93 86 88
25 28 31 33 34 36 36 33 30 25 25 27 32 33 37 38 43 43 50 54 59 71 83 85 84 83 91 96 97 98 99 97 96 95 95 94 93 91 87 85 84 77 70
27 28 29 30 30 31 28 25 25 25 26 30 34 37 41 41 44 49 51 55 59 67 79 88 85 84 86 93 99 97 99 97 90 91 95 95 88 81 67 57 51 44 41
32 31 30 29 31 26 25 25 26 28 32 34 37 41 41 43 47 51 52 55 64 70 79 81 82 90 89 98 93 95 91 89 89 93 84 67 45 34 29 25 23 20 17
33 32 32 29 28 27 26 27 30 34 37 38 41 45 48 51 55 55 60 62 66 71 73 75 79 85 84 85 87 97 90 84 67 52 43 30 22 15 10 11 13 17 18
30 28 29 29 28 27 28 33 37 42 44 45 49 52 51 55 59 59 62 65 69 75 78 80 76 76 82 92 86 76 63 51 42 31 18 10 11 14 16 16 17 17 17
32 33 33 30 30 34 37 42 46 48 49 51 52 52 55 59 61 63 66 70 75 80 83 86 88 89 79 72 67 54 39 22 12 8 11 16 17 18 18 18 18 18 19
37 35 34 36 40 40 43 46 48 51 51 51 53 50 48 52 53 56 57 56 59 60 66 65 56 47 42 37 27 16 11 8 10 15 18 19 18 20 20 21 21 22 23
38 39 41 42 43 46 47 49 49 48 41 37 36 36 34 35 36 36 33 28 21 17 16 15 14 14 13 12 11 9 8 13 19 20 19 20 22 24 25 25 24 24 26
42 43 46 48 49 50 46 37 30 26 24 23 21 19 16 15 14 14 14 14 14 15 15 16 15 14 13 12 11 11 18 20 21 22 22 23 25 24 24 24 24 27 31
46 49 52 51 40 29 23 19 17 17 16 15 16 16 16 16 16 15 16 16 16 17 17 16 16 15 15 16 19 22 22 23 24 25 26 25 25 25 26 29 31 34 35
54 51 37 27 23 20 19 18 17 16 16 17 18 18 19 19 19 19 18 18 18 18 18 18 17 20 22 25 26 26 26 27 28 28 28 29 28 28 30 34 36 36 35

GFSMA_prec_cthk_084.txt.gz
RH
39 37 37 36 35 36 37 35 34 34 33 33 33 35 36 38 39 41 44 46 48 48 47 48 49 45 41 37 35 33 32 31 32 33 34 37 38 38 37 35 36 36 37
40 38 39 39 40 38 36 35 33 33 34 34 35 37 38 41 42 42 43 45 47 49 50 51 55 55 53 46 42 38 35 33 33 35 36 38 42 43 41 40 39 39 38
39 37 38 42 41 40 39 37 36 36 35 38 39 39 41 43 45 46 47 50 52 53 54 54 55 57 60 58 54 49 43 39 37 36 37 39 42 48 48 46 44 42 41
39 41 43 44 43 41 38 36 35 35 36 37 39 40 40 42 44 48 51 53 56 58 60 62 62 63 66 69 68 67 61 56 49 45 44 42 42 46 51 53 53 52 48
41 41 41 40 40 39 36 35 39 39 39 41 43 43 41 41 44 47 49 52 57 64 69 71 70 69 72 76 79 79 79 74 69 64 59 54 52 50 52 56 59 61 63
41 40 39 41 41 38 38 39 40 41 43 50 52 48 46 47 45 45 51 58 67 71 76 76 75 74 74 77 82 85 87 86 84 77 72 69 65 63 62 61 67 72 73
47 43 42 43 43 41 41 45 43 44 52 53 52 48 52 51 49 52 54 63 64 69 70 69 71 76 77 78 79 84 91 93 91 94 91 83 77 74 72 76 76 77 77
60 53 54 55 54 51 59 54 53 56 55 54 54 57 55 55 50 48 56 56 63 65 63 64 66 68 70 73 76 79 86 89 90 94 96 96 94 91 85 82 82 80 81
63 64 68 70 67 61 56 61 65 57 56 56 56 59 58 48 45 51 56 62 60 58 59 58 56 59 62 64 67 70 76 83 85 84 89 96 98 98 98 96 96 93 91
56 59 58 59 58 57 55 54 52 50 49 46 46 46 42 44 51 64 57 55 57 56 55 55 56 56 62 60 61 64 70 73 77 86 84 89 98 98 94 96 98 98 98
53 55 53 53 54 54 45 40 37 38 39 42 44 39 41 40 50 52 47 48 42 53 47 46 54 48 54 61 64 61 66 72 75 81 85 89 97 98 97 96 97 97 98
38 40 39 37 37 34 32 31 33 34 35 37 43 46 46 46 46 46 44 42 43 43 43 46 44 46 49 49 53 56 60 62 69 76 81 90 96 96 96 98 97 96 96
31 30 31 32 32 32 32 31 34 38 39 45 49 44 42 41 41 40 39 36 37 40 44 41 43 44 46 50 49 55 52 61 68 77 84 90 89 95 98 98 98 97 98
30 30 31 30 30 33 34 34 37 39 41 44 37 40 40 38 34 32 37 37 39 41 42 42 43 48 49 49 50 51 53 61 68 83 92 99 90 94 95 97 98 98 98
29 29 29 29 27 28 35 38 41 39 38 39 40 40 37 33 29 30 32 34 39 44 42 44 47 48 48 48 52 51 56 60 66 80 93 94 92 92 88 90 91 94 96
27 25 27 29 30 32 38 41 39 40 41 39 35 35 31 27 29 32 35 37 42 44 44 45 49 49 51 53 54 55 56 61 69 75 87 83 81 81 81 83 85 86 89
28 27 26 27 31 32 33 39 39 40 39 36 33 32 26 28 31 33 37 38 40 43 45 46 47 53 55 56 57 57 58 59 67 72 74 81 84 83 86 87 88 83 62
32 32 31 31 32 34 35 36 36 34 33 33 30 28 27 32 35 38 41 44 46 47 47 49 50 50 52 56 57 56 60 62 63 70 78 82 83 82 76 55 40 31 27
34 34 34 35 36 35 35 36 35 34 32 31 29 29 34 39 42 43 44 46 47 47 47 49 48 44 44 46 49 53 58 61 62 68 67 66 56 35 23 13 7 7 10
37 35 36 35 36 35 36 34 33 32 31 30 33 38 42 44 43 45 44 42 40 39 40 39 39 40 42 43 45 48 50 50 46 41 31 23 19 12 8 8 11 14 15
37 35 34 34 33 34 34 34 35 34 37 42 43 45 46 42 36 36 34 34 34 35 36 37 38 39 40 40 38 36 34 32 28 22 18 13 12 12 14 18 18 16 16
38 38 36 36 37 37 37 40 43 45 46 47 46 46 36 33 32 31 30 30 30 29 28 29 28 24 22 19 17 16 14 14 13 12 11 14 16 19 20 19 17 18 20
42 41 40 41 41 42 43 46 47 46 48 44 36 30 26 25 21 18 16 15 16 16 16 16 16 16 16 15 15 15 14 13 12 14 15 18 23 24 23 23 22 22 22
47 45 44 44 45 47 47 48 49 42 30 22 18 18 18 17 16 16 17 18 18 19 18 17 17 16 16 15 14 14 14 14 16 18 22 24 25 25 25 25 25 25 26
52 50 49 50 49 50 45 34 25 21 19 19 19 19 18 18 18 19 20 20 20 20 19 18 18 17 17 17 15 17 18 20 23 26 29 30 29 29 29 28 28 29 32
57 56 54 51 46 35 28 23 20 20 20 20 19 19 19 20 22 22 22 22 21 21 20 20 20 19 19 20 21 24 27 28 30 33 33 33 33 33 33 32 34 35 39

GFSMA_prec_cthk_087.txt.gz
RH
36 35 35 35 35 35 36 36 36 35 35 33 32 32 34 36 38 41 43 44 45 47 48 47 48 49 50 51 45 38 35 34 33 31 31 33 34 36 37 42 42 39 37
40 39 35 34 36 37 36 37 35 34 34 34 32 33 36 38 41 43 45 45 46 48 50 50 51 52 54 56 57 54 49 44 39 38 37 35 35 36 38 41 45 46 43
39 39 36 36 38 39 38 38 35 35 34 35 35 35 36 37 39 41 43 47 48 50 51 52 54 57 59 60 62 63 63 58 54 50 47 48 49 49 48 46 48 50 53
39 38 38 39 40 42 40 38 36 34 34 37 37 37 40 43 42 41 44 47 48 49 53 59 63 64 63 61 62 66 70 71 69 66 62 60 58 60 62 58 57 54 59
41 42 42 42 41 40 39 38 34 35 38 39 39 44 47 48 45 45 46 46 50 56 61 67 69 70 66 62 63 68 70 73 78 80 81 72 67 65 65 68 68 68 67
44 44 42 41 40 40 39 39 39 38 41 42 42 48 48 45 45 51 51 52 52 56 63 64 69 69 66 64 63 64 69 69 72 80 82 85 85 88 87 75 73 80 80
47 47 48 47 45 42 43 45 43 46 54 51 52 51 48 50 52 53 54 49 46 57 59 63 63 62 61 59 59 59 62 66 66 68 70 68 72 81 80 88 86 82 84
57 61 61 62 61 60 58 62 63 62 58 61 63 57 51 47 46 48 41 37 42 54 56 60 57 55 55 56 55 55 59 64 66 66 65 66 67 74 74 85 89 96 97
65 66 67 67 69 71 72 77 71 64 64 58 57 56 52 44 42 44 37 42 66 65 56 57 53 53 52 53 52 54 60 59 61 68 66 67 66 68 70 79 90 92 94
58 57 57 60 63 66 64 65 66 61 59 50 46 42 41 44 49 44 42 43 46 48 46 46 45 47 46 52 51 51 58 59 59 67 72 60 63 67 69 73 89 93 96
51 53 55 57 61 62 63 62 57 52 42 38 37 37 37 41 48 49 49 49 47 43 42 41 37 44 42 46 48 51 53 55 57 58 61 64 65 71 76 79 79 91 95
41 41 41 42 44 46 45 42 40 35 33 34 34 36 39 47 50 46 44 44 44 39 38 37 39 43 39 43 45 49 52 51 55 56 60 67 72 80 88 94 90 96 97
34 34 34 35 35 34 34 35 36 35 35 36 38 39 40 42 41 40 40 41 39 35 36 38 41 42 42 44 46 48 48 49 52 53 57 62 69 84 90 92 93 93 97
30 29 29 30 31 32 33 35 39 41 40 40 40 42 40 38 39 38 39 34 36 35 36 41 44 42 43 45 46 48 47 49 51 54 57 59 69 80 83 87 86 92 91
31 29 28 29 30 31 32 39 42 45 47 46 40 38 36 38 37 36 32 30 32 36 38 40 45 43 43 43 46 50 52 52 53 54 55 63 68 76 74 75 79 80 83
30 29 29 28 28 31 34 36 43 39 46 47 42 42 38 36 35 33 29 30 35 38 41 44 44 44 43 45 49 51 54 55 54 54 55 61 66 69 73 77 78 80 83
37 35 33 32 36 33 35 36 40 41 40 43 43 39 35 33 31 29 29 34 36 39 42 44 44 44 44 46 47 50 52 52 55 56 55 57 60 68 70 74 75 75 72
41 40 40 40 36 36 37 35 35 39 42 40 40 36 33 30 28 30 34 38 41 43 44 44 43 44 41 40 40 43 46 47 48 51 51 54 56 58 62 61 51 32 19
46 46 46 46 40 36 35 36 36 37 37 35 35 32 30 28 32 37 41 42 44 42 41 38 37 36 36 37 39 40 41 43 45 47 49 50 48 44 34 23 18 11 8
46 42 43 43 44 43 40 38 37 36 36 34 31 30 31 37 40 43 43 40 36 34 33 32 33 34 35 37 38 39 40 40 40 39 36 32 24 19 16 11 12 14 16
44 40 37 37 36 36 35 35 35 32 34 33 34 38 42 43 43 37 34 31 29 29 29 30 31 32 33 33 31 28 26 21 17 14 13 12 11 11 12 14 16 19 20
41 42 41 41 39 36 35 37 37 37 40 44 45 45 45 39 34 32 29 26 24 21 21 21 22 22 20 18 16 15 14 13 12 11 11 12 13 14 16 20 22 21 21
43 43 41 43 41 39 41 42 43 46 47 47 46 42 33 29 25 20 17 16 16 17 17 18 18 17 17 17 16 15 14 13 13 13 14 16 18 20 22 23 24 25 26
50 49 47 45 43 44 46 47 48 48 48 42 31 22 20 19 18 18 18 18 19 19 19 19 18 18 18 18 17 16 15 14 16 19 21 23 24 25 26 27 27 26 26
57 53 49 48 49 50 52 54 50 37 24 20 20 20 20 19 19 20 20 21 21 21 20 19 19 20 20 20 20 20 22 23 24 26 28 29 28 28 29 29 29 29 30
59 57 56 56 55 52 46 37 28 23 20 20 21 21 21 21 21 22 22 22 22 22 22 22 22 23 24 24 26 27 28 27 29 31 32 32 30 31 31 31 29 28 28

GFSMA_prec_cthk_090.txt.gz
RH
37 37 40 40 41 40 41 39 36 38 36 35 33 31 32 34 36 39 41 41 42 42 43 44 45 45 46 50 53 53 49 45 41 39 39 40 40 39 40 40 41 42 45
40 37 36 35 35 33 35 36 37 35 34 34 34 31 33 35 37 38 40 42 42 43 44 43 46 47 49 50 52 56 57 54 50 47 45 44 45 48 49 50 51 51 48
46 43 38 35 35 36 37 37 37 34 33 32 33 33 32 35 39 43 43 42 43 43 42 44 49 56 57 57 57 56 56 59 61 59 55 53 52 53 54 56 57 60 62
46 42 40 37 37 38 38 39 38 37 36 32 35 36 36 39 44 44 43 45 46 45 47 52 55 63 61 64 62 59 57 61 62 64 67 62 59 60 62 62 62 61 65
50 44 41 40 40 39 40 39 37 38 35 35 38 40 41 46 48 47 46 49 49 50 51 48 55 60 62 62 61 58 57 58 59 63 64 65 65 68 67 70 74 74 71
52 47 44 44 42 40 40 40 39 39 40 40 43 50 48 51 52 49 50 49 50 49 45 43 53 57 60 58 57 56 58 59 57 57 59 60 61 62 64 63 62 64 60
54 50 48 47 45 44 46 45 44 45 50 53 58 58 56 58 53 51 48 44 44 44 40 43 54 55 56 55 54 52 53 55 58 60 60 60 59 59 60 65 61 59 68
59 54 53 53 55 59 62 64 63 62 65 69 68 64 61 56 49 48 44 40 44 38 42 53 58 53 53 50 49 52 52 51 55 61 60 58 61 62 64 61 59 62 61
67 64 67 62 67 69 67 67 68 72 76 74 73 67 62 51 44 41 38 39 44 41 44 51 53 48 49 43 48 45 49 52 56 63 62 61 60 64 58 55 60 61 65
73 72 67 66 66 63 61 62 67 72 69 69 65 60 53 48 44 45 41 51 47 45 47 46 43 45 41 40 43 45 50 50 49 57 62 56 61 62 57 58 65 72 77
71 67 64 63 59 58 55 59 62 63 61 59 53 46 41 41 42 42 44 51 50 43 44 44 40 37 37 37 41 41 44 50 52 53 56 60 65 62 63 66 74 80 86
52 51 50 48 46 46 47 49 50 49 48 45 41 39 40 43 41 42 44 45 49 42 41 37 35 35 37 40 41 39 43 45 49 52 55 57 64 67 62 67 74 79 84
41 38 37 38 39 40 39 39 40 40 40 39 40 39 44 46 44 42 42 44 44 40 39 34 34 32 38 40 41 42 44 45 47 52 55 54 53 57 59 67 71 75 80
40 36 34 34 34 33 32 34 35 38 41 41 44 45 50 47 43 42 41 46 44 40 34 31 35 37 40 42 43 43 42 45 47 49 51 53 51 54 59 64 72 70 72
39 37 36 34 33 34 33 31 33 38 43 45 47 43 46 42 41 41 43 42 40 39 35 34 37 39 44 41 43 42 44 45 50 54 53 52 53 54 59 62 66 68 71
46 43 41 39 37 33 31 31 33 37 43 41 42 47 47 43 44 41 40 37 35 34 37 39 41 42 42 41 41 42 42 44 46 48 51 52 53 53 56 60 61 64 65
44 42 40 38 36 33 35 39 40 41 44 45 41 46 44 43 44 37 35 33 32 34 38 40 43 43 40 39 38 35 35 38 44 45 47 47 47 50 53 54 57 59 61
46 46 44 42 43 43 45 44 49 50 45 50 44 41 44 41 37 35 32 31 35 38 41 43 42 38 36 35 35 37 38 40 40 41 43 44 45 47 50 51 55 53 32
49 50 48 45 46 47 49 51 51 51 44 46 46 46 39 37 35 32 32 38 40 41 42 38 35 34 33 33 34 35 36 37 37 37 39 40 41 40 37 29 20 18 17
52 51 48 44 45 48 47 46 47 48 48 46 40 39 37 34 32 35 42 42 40 37 33 31 31 31 31 32 33 32 32 32 32 31 29 24 21 19 17 14 12 11 11
51 49 47 48 49 46 44 39 40 40 40 39 38 35 36 36 41 45 41 34 32 30 30 29 29 28 28 28 28 26 24 21 18 15 13 12 12 12 12 13 12 14 16
49 49 50 48 46 43 40 41 41 42 38 38 43 39 44 47 46 38 31 29 28 27 23 23 22 23 22 21 18 17 17 16 19 13 13 13 13 15 16 17 18 20 20
52 50 44 43 42 42 43 44 44 46 43 50 49 49 49 44 33 27 22 20 18 17 17 18 18 19 19 18 18 18 17 17 16 15 15 18 19 21 22 23 23 23 23
61 56 52 49 47 45 46 50 49 48 49 51 52 49 37 24 20 20 20 19 19 19 19 20 20 20 19 19 19 19 19 19 19 21 23 24 25 26 26 25 24 23 24
65 63 60 56 54 53 53 51 51 51 53 51 38 24 20 20 21 21 21 21 21 21 21 21 21 21 21 22 22 23 25 26 28 28 28 29 30 30 28 26 23 24 25
69 65 66 64 62 58 60 57 54 49 38 28 23 21 20 22 22 22 23 23 23 23 23 24 24 24 24 25 27 29 30 31 32 34 33 33 33 32 30 27 26 26 28

GFSMA_prec_cthk_093.txt.gz
RH
44 43 43 43 42 42 42 42 41 42 42 40 36 33 32 33 37 38 39 39 39 39 39 40 38 38 40 42 46 49 51 48 44 41 40 40 40 40 42 43 45 49 52
46 46 46 45 43 42 42 42 42 40 41 40 37 35 32 33 32 36 40 42 39 39 39 39 39 43 47 50 51 50 51 51 50 49 46 45 45 44 44 45 47 49 53
50 48 47 46 42 41 40 40 41 39 39 38 36 34 34 35 35 38 42 42 42 42 44 44 45 47 48 55 55 56 55 53 51 53 55 54 52 51 49 49 51 56 57
55 53 51 48 43 42 40 41 40 42 39 40 37 35 35 37 40 45 47 46 46 47 44 46 46 45 45 54 56 56 55 54 54 55 55 56 58 55 55 57 59 59 56
62 57 56 52 44 41 40 40 41 41 41 39 38 39 41 46 50 51 51 50 49 47 45 43 45 45 44 52 54 56 55 52 52 53 54 56 58 59 59 58 56 55 53
64 58 59 57 48 43 42 42 42 41 39 41 42 45 49 57 57 55 53 51 50 48 42 44 44 43 48 54 52 52 54 51 54 53 55 55 58 58 58 57 57 58 58
64 63 66 62 53 46 46 47 47 50 52 55 57 59 64 65 61 59 54 49 52 48 42 43 42 46 51 54 52 52 50 47 53 59 55 57 61 58 58 55 56 58 53
67 69 69 62 57 51 50 54 61 65 65 66 67 73 75 73 68 62 52 47 46 42 40 44 46 50 53 54 49 48 43 45 44 49 57 60 62 63 62 56 59 53 51
74 73 69 67 64 61 62 63 68 67 67 65 69 78 73 70 65 57 49 41 39 39 48 47 48 50 48 46 47 45 43 44 45 50 55 59 63 64 59 62 58 52 54
82 79 82 82 76 73 72 70 70 68 68 66 68 69 65 62 57 49 44 40 38 42 50 48 48 46 47 42 42 38 38 41 45 48 47 59 65 62 63 65 58 55 59
82 90 89 88 85 79 75 73 68 64 59 60 62 57 55 55 48 45 43 45 47 42 43 45 46 46 42 36 35 34 36 39 39 42 47 52 60 66 66 66 60 57 61
79 80 78 77 78 73 65 62 61 55 55 58 58 54 49 44 43 42 50 50 48 45 42 43 42 40 33 33 33 38 39 39 39 42 44 49 49 53 64 65 59 54 58
77 66 67 65 54 51 48 45 45 46 48 50 45 47 47 47 45 47 49 51 46 44 44 42 38 36 31 35 36 40 39 38 41 40 45 49 49 53 55 54 54 56 58
66 58 54 49 45 44 43 43 45 51 50 47 48 44 48 47 49 50 45 48 42 44 46 43 38 33 35 37 40 40 39 39 38 41 43 44 45 49 51 52 54 54 57
62 58 53 50 50 48 43 40 43 47 47 47 46 47 49 49 48 47 47 44 44 45 43 41 35 35 38 41 40 40 39 38 38 39 42 43 45 48 48 49 49 53 54
61 59 55 50 46 44 43 42 45 46 46 42 48 45 57 51 48 47 49 44 45 43 45 38 37 39 41 42 41 37 37 34 34 36 39 42 45 45 46 46 47 49 49
58 56 51 48 47 47 45 42 42 41 42 43 48 51 51 56 46 50 42 45 40 40 40 36 40 41 42 40 36 34 32 31 32 36 38 39 40 43 44 45 47 47 48
56 53 51 49 48 48 46 45 46 48 49 51 50 56 57 59 48 49 44 39 39 37 37 39 43 42 40 36 34 32 31 32 34 36 36 36 38 40 40 41 42 45 45
58 56 54 53 53 52 52 52 49 50 53 57 57 58 54 52 51 50 41 39 34 37 42 42 41 38 37 34 32 31 31 32 33 33 34 33 34 36 36 34 27 21 17
57 53 52 51 52 52 54 54 51 52 53 54 51 51 52 51 44 41 37 35 39 43 45 36 34 32 32 31 31 30 30 30 28 28 27 25 21 17 14 14 14 13 13
52 52 49 49 49 51 51 50 48 50 53 51 47 42 41 41 38 37 39 44 43 41 33 30 30 30 29 29 27 26 26 23 20 16 15 14 13 13 13 14 15 16 16
59 54 51 49 47 50 50 49 51 50 48 44 40 42 42 41 40 46 47 46 38 32 29 28 26 26 25 23 22 20 17 17 19 16 16 15 15 16 17 19 21 21 22
62 59 58 52 47 47 49 50 50 49 46 43 44 42 45 47 55 51 43 36 28 25 22 21 20 20 20 19 18 18 18 18 18 19 18 19 20 21 23 25 25 25 24
61 62 63 61 56 50 48 46 47 48 48 47 51 55 55 52 48 37 29 21 20 21 21 21 20 20 20 20 19 20 20 21 22 22 24 25 27 27 28 28 28 27 25
66 70 68 68 64 59 57 56 55 54 57 61 58 54 52 38 27 26 21 21 22 23 22 21 21 21 22 22 22 23 25 27 29 29 29 30 31 31 32 31 30 29 27
68 70 72 72 68 63 60 61 61 62 64 65 60 39 28 28 24 22 22 24 25 24 24 24 24 25 24 25 26 28 30 31 32 34 34 35 34 35 34 34 33 32 29

GFSMA_prec_cthk_096.txt.gz
RH
40 41 43 42 39 40 39 39 41 41 39 38 36 32 31 30 33 33 35 38 38 37 37 38 39 37 40 42 44 48 47 50 48 44 40 38 38 38 38 37 37 39 40
48 47 46 47 46 43 42 42 41 39 40 39 38 36 30 30 31 33 36 41 42 43 42 41 40 40 42 40 43 51 51 50 49 48 47 45 44 42 40 39 39 41 45
50 51 50 49 47 46 41 39 39 38 37 39 36 36 33 31 36 39 42 45 46 46 43 42 42 41 42 45 42 50 53 52 52 50 48 49 49 46 47 51 53 52 47
50 52 53 53 50 49 42 39 37 35 34 37 36 36 35 36 39 45 51 54 49 45 43 43 43 41 46 46 47 52 51 52 53 50 49 49 50 48 49 52 54 52 51
53 54 56 56 53 51 46 38 36 36 37 37 37 36 38 42 48 55 57 57 53 49 44 42 42 40 41 41 47 53 54 51 53 50 50 52 52 50 53 53 53 52 50
55 57 57 58 57 52 50 41 38 40 40 41 42 45 50 54 60 65 66 64 61 50 45 45 42 40 42 43 46 52 52 52 57 47 50 52 53 54 55 55 54 51 48
63 59 58 60 60 60 60 50 44 43 46 51 59 61 61 64 68 72 70 68 62 50 44 45 44 44 44 45 49 51 51 53 48 48 47 49 54 56 62 58 57 52 53
67 64 62 63 64 69 66 59 52 49 52 58 62 63 61 64 71 71 67 63 54 49 43 44 47 50 50 46 49 49 48 47 44 41 49 53 59 59 61 62 59 56 54
84 80 77 72 74 75 71 66 61 59 60 64 67 67 68 66 68 65 60 58 52 45 45 48 52 52 48 46 50 47 43 44 43 43 46 48 59 59 60 62 61 58 53
91 90 88 88 86 85 83 82 80 80 78 76 77 69 66 66 65 64 60 55 48 43 47 51 50 49 44 48 46 42 36 37 38 40 42 46 49 59 66 64 64 58 57
86 88 89 87 85 83 82 82 87 86 84 78 73 69 61 65 71 63 57 51 46 47 51 50 48 43 42 42 39 33 33 34 38 38 39 39 44 49 60 64 66 61 55
82 83 87 88 87 86 86 84 85 86 80 70 62 57 55 60 54 54 56 50 51 54 50 45 41 42 42 38 36 31 33 39 39 36 39 45 44 45 52 65 64 58 55
88 86 88 88 88 78 76 78 73 69 60 56 55 58 61 59 64 61 54 52 51 50 46 39 39 43 40 37 32 33 35 42 40 39 44 42 43 48 50 52 51 57 53
85 84 86 85 80 72 63 57 62 61 58 59 56 55 57 62 61 58 59 55 53 50 51 42 42 41 37 35 35 36 38 40 39 38 38 40 41 42 44 48 50 50 48
76 75 79 76 70 63 62 63 58 52 52 50 52 55 59 57 53 59 61 56 52 55 49 44 44 42 38 35 35 37 38 39 38 37 35 35 38 38 40 41 43 43 42
70 69 68 64 62 58 54 51 49 46 49 52 53 54 58 48 57 54 65 56 55 49 49 47 44 42 40 40 38 39 41 35 34 32 33 35 36 37 38 40 40 41 41
68 64 62 62 60 57 55 52 48 46 50 50 50 56 48 59 55 61 65 58 57 49 49 47 43 39 40 42 41 37 35 32 32 32 33 35 36 36 37 39 40 40 39
63 62 62 60 57 54 52 50 49 53 54 52 54 55 55 55 58 62 69 64 55 49 46 43 38 40 44 44 37 34 35 33 33 33 34 34 34 33 35 36 36 36 37
70 67 65 60 56 55 54 54 55 56 57 57 61 58 55 58 56 59 60 54 49 45 39 34 41 42 42 39 35 32 33 32 32 33 32 32 32 30 30 29 28 25 20
65 61 57 57 58 57 55 55 53 54 58 59 59 59 60 59 59 57 52 43 42 39 36 41 42 40 39 34 32 30 31 30 30 28 26 25 24 21 17 14 13 13 14
63 65 63 61 56 53 52 52 52 51 52 56 56 56 57 59 57 50 43 43 39 39 48 41 34 36 32 31 29 29 28 26 24 20 18 16 15 14 14 13 14 16 18
52 56 59 60 61 57 55 52 52 49 50 52 51 52 55 52 50 43 42 43 49 53 40 34 36 31 28 26 26 25 24 21 18 18 18 18 17 17 18 18 20 22 24
58 56 55 58 60 62 60 59 53 50 49 50 53 54 53 49 46 44 46 52 52 41 33 34 30 25 23 22 21 20 19 19 20 20 21 21 22 23 24 25 26 27 28
63 60 58 59 63 65 63 62 59 55 52 53 53 50 47 46 47 55 59 53 40 29 30 25 23 23 22 21 21 20 21 22 23 24 26 27 27 28 30 30 30 31 31
66 66 66 63 62 64 69 69 67 62 58 59 59 57 56 58 58 55 40 26 23 28 24 23 24 24 23 22 22 23 24 25 27 29 31 30 31 33 34 33 33 33 33
69 68 67 66 64 68 71 72 71 69 64 65 63 64 65 65 55 33 26 29 29 24 26 27 26 25 24 25 25 27 28 30 32 34 33 36 36 36 37 36 36 35 34

GFSMA_prec_cthk_099.txt.gz
RH
41 40 39 39 39 38 36 37 36 37 38 36 35 33 30 29 29 29 32 37 39 42 42 40 38 38 41 44 41 39 42 49 48 47 44 39 36 34 33 33 36 38 42
44 43 44 44 44 43 43 40 37 37 36 36 37 35 33 28 28 31 37 41 46 47 43 41 39 38 38 42 47 44 42 50 49 48 47 45 42 39 39 42 46 47 46
45 47 49 50 49 47 47 45 41 35 34 32 34 34 33 30 31 34 41 47 52 51 48 44 41 41 44 45 44 44 47 53 52 50 48 45 43 42 43 47 48 47 46
45 47 48 51 52 52 50 47 42 37 35 34 34 33 33 33 35 41 50 55 58 58 56 48 41 42 41 41 44 44 53 57 55 53 52 47 46 48 48 48 50 49 47
45 47 47 49 51 53 53 50 47 41 35 37 38 37 37 39 46 54 59 65 65 64 60 49 41 41 43 45 44 41 53 58 59 56 55 47 47 49 50 49 49 50 49
56 53 52 51 51 53 54 52 52 50 42 41 44 46 49 56 59 61 65 69 67 65 58 49 41 42 43 52 47 42 46 56 63 60 51 49 48 49 52 53 53 53 52
68 65 60 58 55 55 54 54 59 60 55 46 46 51 56 58 59 62 68 69 67 62 54 48 42 44 46 54 52 44 46 50 47 45 54 51 52 55 57 59 55 55 53
79 78 74 71 69 62 60 59 63 66 64 58 53 56 59 61 62 64 67 66 67 58 54 49 45 47 49 52 49 42 49 46 43 43 44 43 53 60 61 61 57 58 57
90 91 90 84 82 78 73 74 72 69 72 72 69 66 68 67 67 63 63 70 64 63 55 48 45 50 51 50 45 44 45 42 36 38 40 43 45 57 60 62 62 61 57
90 94 94 91 92 92 86 90 89 88 87 85 90 90 87 82 74 73 69 68 66 58 54 48 50 51 49 46 44 44 44 37 33 35 38 40 40 43 53 60 65 63 60
95 93 90 90 93 92 88 88 92 92 91 88 88 91 92 90 75 68 67 67 60 64 54 50 49 48 45 42 40 38 37 31 32 35 40 39 35 37 47 57 62 66 59
89 91 86 91 90 92 88 88 89 90 91 88 88 88 91 75 64 70 69 67 68 58 55 52 50 45 44 43 41 40 36 32 35 38 39 41 42 42 40 57 64 63 64
88 92 90 96 93 92 90 88 88 88 86 83 74 76 78 72 74 68 70 70 65 59 58 52 46 44 42 40 39 38 33 33 35 41 44 44 39 43 47 46 52 58 57
81 83 84 91 91 86 89 91 89 84 78 68 68 73 86 78 62 60 63 67 61 61 60 54 54 46 44 43 41 35 34 36 39 39 37 37 37 39 41 46 47 49 49
77 81 76 79 76 74 72 70 72 73 66 65 57 52 57 59 59 58 62 63 61 69 60 60 58 47 45 46 44 37 36 40 40 37 35 33 34 35 37 38 40 42 41
76 77 78 79 78 75 66 63 60 60 55 51 48 50 52 61 61 58 63 58 69 71 70 62 61 51 51 48 40 39 39 41 38 34 31 31 33 35 37 37 37 38 38
77 75 74 72 69 65 61 60 59 56 54 51 51 55 58 56 58 60 60 68 62 62 71 57 62 56 52 42 40 38 40 37 33 32 30 31 33 35 37 36 37 38 38
72 71 69 66 65 64 63 60 60 57 55 52 53 52 53 58 58 55 63 62 62 63 68 61 56 51 43 40 43 43 39 36 33 34 32 32 33 33 33 33 34 34 33
74 74 75 73 73 68 65 63 60 58 55 57 56 59 59 62 62 60 61 58 64 64 61 50 46 44 40 45 44 41 40 34 33 33 32 31 31 32 32 30 28 27 24
65 71 68 66 69 65 63 61 60 59 59 59 57 58 60 62 63 63 62 59 66 61 51 46 44 41 50 45 39 40 36 34 31 30 28 26 25 25 23 20 16 14 14
57 58 56 54 58 62 60 59 57 55 55 56 56 56 56 59 59 61 61 60 57 53 48 43 45 51 48 39 38 40 34 31 28 26 22 19 17 17 17 16 16 17 18
58 57 56 55 53 51 52 60 62 61 59 55 56 56 55 55 59 58 59 56 54 51 40 46 50 44 36 38 38 31 30 27 24 19 19 19 19 19 19 19 20 23 25
62 61 60 59 57 55 52 52 56 58 61 62 61 55 54 53 51 55 55 55 53 47 48 50 39 36 31 33 28 27 26 24 20 20 21 22 23 23 24 25 27 29 30
66 65 62 60 59 58 57 55 56 60 66 67 64 63 57 53 52 52 51 50 53 56 55 43 34 30 31 28 25 24 22 21 22 24 25 26 28 29 29 30 32 32 33
71 69 67 65 64 63 62 62 62 65 68 67 68 70 63 58 57 55 54 59 61 57 36 27 26 30 28 27 25 24 23 24 26 28 31 32 32 33 34 35 35 35 36
75 73 71 68 67 67 66 65 67 67 67 68 70 74 73 69 70 68 69 63 46 33 31 26 33 32 29 27 26 25 26 28 31 33 34 35 37 38 39 39 40 40 39

GFSMA_prec_cthk_102.txt.gz
RH
39 39 39 38 37 36 36 35 35 35 34 34 34 32 31 27 26 27 30 35 40 47 45 41 40 38 40 42 46 46 43 43 45 48 46 41 37 35 34 36 40 44 45
42 42 43 44 43 42 41 41 40 38 36 34 34 34 33 30 28 29 32 38 46 51 52 49 45 39 44 46 45 48 44 45 49 51 52 47 41 37 41 43 44 44 44
41 41 44 46 48 50 50 47 44 43 37 35 33 34 34 33 31 34 38 44 53 60 60 58 52 43 41 41 46 52 50 52 57 56 57 52 47 40 43 46 45 45 46
44 44 45 46 49 50 51 52 51 48 45 36 34 35 34 35 35 37 43 52 61 66 65 63 55 45 38 40 49 53 58 58 60 61 60 57 51 46 44 46 48 48 48
50 49 50 49 50 50 52 53 54 53 51 47 38 38 39 41 45 50 55 61 67 69 65 64 54 42 39 41 46 61 58 67 64 65 66 60 49 48 46 47 50 51 53
59 57 55 55 55 54 54 53 52 53 53 56 52 45 43 47 51 54 59 64 70 69 65 61 56 45 43 44 46 49 48 49 59 66 62 54 52 49 52 52 53 53 55
69 67 65 61 59 59 58 57 56 55 55 59 61 59 53 50 55 58 62 64 71 68 68 62 56 50 46 46 48 51 49 42 54 57 52 55 58 55 54 58 57 56 55
72 74 73 72 71 70 71 74 73 70 62 64 63 62 64 61 60 62 65 66 67 67 70 63 61 53 49 49 48 49 45 40 43 42 39 46 53 56 57 62 59 58 55
79 76 77 78 80 80 80 85 87 86 83 83 85 79 75 72 73 73 74 74 72 73 66 65 61 56 51 49 47 44 42 42 44 42 36 37 41 50 56 61 59 60 60
86 87 87 91 91 91 88 88 88 87 89 91 94 94 93 92 89 91 87 80 75 71 77 72 67 56 54 50 45 42 40 37 39 37 33 37 39 43 43 57 62 62 65
81 89 90 94 98 95 96 97 96 95 94 92 89 92 92 96 94 94 97 81 73 86 73 71 63 56 56 50 45 43 40 38 37 33 32 36 37 36 33 42 63 67 62
89 88 88 90 89 96 97 92 96 94 96 94 93 93 94 96 91 91 92 85 88 78 71 70 59 59 54 53 44 42 42 39 36 34 36 37 42 42 38 35 53 72 65
84 86 86 84 83 86 88 94 95 93 92 90 89 92 91 88 81 80 86 86 81 73 69 66 56 60 54 58 50 42 40 40 38 39 43 45 42 38 44 45 52 65 60
79 79 80 79 79 79 84 87 93 88 92 92 92 87 85 86 83 79 77 81 76 73 68 65 59 64 57 59 53 46 45 44 40 42 41 40 40 37 38 44 43 51 52
67 72 71 70 72 72 76 74 77 75 71 72 73 73 76 73 65 61 63 64 69 67 68 66 72 66 64 60 57 52 48 45 40 41 42 38 34 34 37 39 39 41 42
66 70 69 70 74 73 73 76 79 75 66 62 60 59 58 57 56 57 59 62 68 69 70 68 68 73 72 60 57 53 50 42 42 43 40 34 33 32 35 36 37 37 37
71 73 72 74 76 75 70 67 65 64 63 62 62 58 56 58 58 60 63 68 66 68 71 70 73 64 66 59 57 50 41 43 44 41 35 33 32 34 34 36 36 36 36
68 66 67 66 66 65 65 64 66 66 65 64 62 59 58 60 58 58 60 65 71 67 70 67 71 65 70 58 50 42 43 46 44 39 36 34 34 35 35 35 34 33 33
63 60 63 68 70 72 71 70 70 68 66 66 63 61 61 61 61 61 63 64 67 69 70 71 68 68 65 51 46 42 48 47 39 39 35 35 34 35 33 32 32 30 29
58 54 52 52 57 64 68 67 66 66 68 63 62 68 67 67 66 65 64 67 65 71 72 66 64 67 58 51 44 51 49 42 39 39 37 33 30 29 28 28 26 22 17
52 51 50 51 52 53 53 52 55 59 61 61 59 60 63 62 64 64 64 64 67 68 70 67 61 60 57 47 53 50 43 37 41 35 33 28 24 21 19 18 18 18 17
53 55 56 57 57 55 54 53 52 51 50 52 59 66 66 62 61 63 64 62 61 65 61 60 61 58 54 53 47 42 39 42 35 32 29 21 19 19 20 21 21 21 22
56 57 58 59 60 60 58 57 55 53 52 52 52 58 66 67 68 66 63 61 60 58 61 61 59 55 59 47 42 41 34 36 32 26 21 20 21 23 25 26 26 26 27
59 61 62 64 64 64 63 61 58 55 55 57 58 59 65 69 70 68 67 61 58 58 56 56 58 60 45 40 40 33 36 34 30 24 22 23 26 28 30 30 30 31 32
65 66 67 68 68 67 66 63 61 60 61 64 65 65 66 72 72 71 73 65 60 61 60 63 63 47 39 34 30 30 34 31 29 26 25 28 31 34 33 33 34 35 37
67 66 66 67 69 70 70 68 67 66 67 68 68 68 69 71 72 73 74 75 71 76 70 59 42 34 32 30 31 37 34 31 30 28 30 34 35 36 37 38 40 41 41

GFSMA_prec_cthk_105.txt.gz
RH
35 36 36 37 37 36 36 36 35 34 32 31 30 32 33 32 28 28 31 35 40 45 51 54 53 48 42 40 41 44 47 46 44 47 49 47 44 40 37 40 40 40 39
39 40 42 43 44 44 44 43 43 43 42 36 34 33 33 33 30 31 34 37 42 50 59 61 59 58 50 38 41 46 51 52 53 54 54 54 51 49 43 40 42 42 41
40 41 43 44 46 47 48 49 50 49 47 45 40 36 35 35 32 32 35 39 45 55 65 68 65 65 49 39 47 60 57 59 61 60 58 58 57 54 49 45 43 42 43
46 45 45 46 48 49 50 51 52 52 52 51 50 45 39 39 38 37 40 46 52 60 68 70 65 57 48 49 56 61 69 67 65 65 61 61 61 54 47 45 43 46 45
52 52 52 53 54 55 53 53 53 53 52 54 54 54 50 46 44 45 49 52 56 62 70 71 66 59 47 43 52 59 59 59 64 65 62 64 61 50 47 47 48 49 51
60 59 59 58 58 57 57 57 57 56 56 56 54 54 56 56 55 55 55 58 60 63 67 70 67 63 52 48 47 48 54 61 59 60 66 64 60 57 55 52 52 55 53
63 65 65 65 65 66 65 64 64 64 64 65 67 62 59 59 59 62 64 65 65 66 66 65 67 66 62 55 50 49 47 48 45 47 59 60 62 65 61 57 56 59 54
71 69 69 69 69 72 73 72 71 73 76 80 81 81 72 65 64 67 71 74 75 71 75 73 69 69 67 58 50 49 48 48 42 39 41 42 42 58 61 56 62 61 59
75 71 72 75 79 79 75 73 80 88 87 89 89 93 90 89 85 85 86 85 86 86 90 76 76 69 80 66 56 51 49 46 43 42 42 41 35 40 52 61 61 64 62
81 80 82 83 85 88 85 84 91 95 91 90 93 95 94 95 91 93 90 91 94 92 82 74 88 82 73 69 59 52 50 46 41 38 38 36 33 36 40 50 58 66 66
81 84 83 85 89 91 92 95 93 98 98 97 95 97 97 96 97 97 95 94 96 94 90 91 94 82 73 61 59 52 51 48 45 42 38 35 34 35 36 35 43 68 73
91 92 96 89 87 89 88 87 89 85 89 91 96 98 98 97 96 97 96 92 91 91 91 92 87 76 68 63 60 57 55 51 43 40 40 38 41 49 45 37 35 52 74
75 74 75 75 75 77 78 80 81 84 88 90 90 92 93 93 94 94 94 95 90 93 91 91 87 78 70 65 66 61 61 56 47 44 48 50 51 46 39 43 41 57 77
64 66 67 66 66 68 72 73 75 79 83 82 87 87 87 88 83 86 87 89 87 78 73 83 80 77 77 73 75 66 61 59 53 50 44 45 44 45 39 39 47 53 56
53 53 54 57 60 59 61 63 67 72 72 76 77 78 76 75 75 77 81 79 78 75 79 77 72 73 72 75 77 76 66 61 55 54 47 43 43 40 34 34 42 49 56
51 51 54 56 59 62 64 66 68 72 73 73 69 68 65 65 63 63 66 65 67 70 76 69 72 78 75 86 75 69 71 60 54 49 43 44 42 35 34 35 37 39 39
48 51 54 54 57 62 65 67 72 70 68 67 66 65 65 64 65 65 68 67 73 73 70 74 77 76 76 78 77 68 71 58 53 43 45 43 37 34 35 36 35 36 37
53 58 57 53 54 54 57 63 64 66 69 72 71 69 69 71 69 71 70 70 72 73 68 75 76 82 77 74 76 70 70 56 47 46 48 40 36 36 35 37 35 34 34
56 56 61 60 57 53 51 56 66 71 73 72 72 74 73 70 71 73 74 73 72 74 76 75 74 75 76 80 77 74 64 57 46 49 48 38 36 36 37 38 35 33 32
58 62 58 55 52 48 47 47 49 51 56 60 64 67 68 72 73 71 76 74 74 77 76 74 71 75 80 78 74 69 63 54 52 52 43 37 38 38 34 33 32 32 29
56 55 50 47 46 48 49 50 51 51 51 49 49 50 53 64 69 70 74 75 74 75 75 74 75 78 82 75 68 66 58 59 54 47 42 36 39 34 31 24 23 22 20
49 48 47 47 48 51 53 53 53 53 54 54 53 53 53 54 56 61 71 73 73 70 71 72 73 72 69 68 67 62 60 56 48 42 38 38 35 28 24 19 20 21 22
48 49 49 50 50 51 52 54 55 56 57 56 55 54 54 56 58 58 61 68 75 74 75 72 70 67 66 66 66 67 59 48 44 43 36 37 28 27 23 22 23 26 26
50 50 50 52 54 55 56 58 59 59 59 58 56 56 59 59 60 62 62 68 73 73 74 72 66 66 65 64 64 58 51 47 48 41 33 30 28 27 25 26 29 31 31
53 53 54 55 56 56 57 57 58 60 61 62 62 63 65 64 65 67 66 68 74 77 73 71 68 65 66 67 56 46 42 46 43 35 36 31 30 31 29 32 34 35 34
56 56 58 59 58 57 59 60 63 64 64 64 67 69 72 73 71 71 71 73 73 78 77 75 73 75 76 58 48 42 41 40 34 37 37 33 34 33 34 36 37 37 39

GFSMA_prec_cthk_108.txt.gz
RH
28 31 33 34 36 36 36 36 35 36 36 35 32 31 32 33 30 29 31 33 36 40 46 55 58 59 56 44 40 44 49 50 51 51 51 50 49 48 47 41 36 36 34
35 37 37 38 39 40 42 42 42 42 43 42 40 37 34 33 32 30 31 34 38 41 48 58 63 67 62 50 49 56 58 59 60 59 57 55 52 53 52 45 40 38 37
38 39 39 40 41 42 44 45 47 48 50 49 47 46 45 42 39 35 35 39 44 48 54 61 67 69 63 50 54 58 62 65 64 64 63 60 56 56 52 45 42 41 40
41 42 44 45 46 46 46 47 49 49 49 49 49 49 49 49 48 46 41 43 49 54 58 64 68 70 61 54 55 63 69 69 65 62 63 62 59 58 53 47 46 44 45
49 50 49 49 51 51 51 52 53 52 52 53 52 52 51 49 52 53 53 54 53 58 61 66 69 68 62 55 51 52 57 67 69 65 61 63 63 60 56 55 52 49 50
53 53 54 55 56 56 57 58 59 59 58 58 59 60 61 64 64 59 57 60 63 66 66 66 66 67 65 63 56 53 50 53 55 60 61 65 64 60 62 60 57 52 54
60 60 59 60 61 63 62 62 65 66 67 68 69 71 73 75 77 75 66 60 64 69 75 76 74 72 71 68 66 53 51 50 50 48 52 59 70 62 63 64 60 56 58
64 65 71 69 69 67 67 70 75 76 74 72 79 86 88 86 83 82 77 76 78 83 84 89 92 90 81 74 74 64 55 49 48 45 44 42 46 53 59 63 61 61 61
81 77 76 79 74 73 77 82 84 84 84 87 93 96 94 94 92 90 90 88 88 87 91 91 90 87 92 84 75 66 61 54 49 47 45 39 41 42 44 53 65 64 62
84 84 82 82 83 81 83 88 93 94 93 90 96 96 96 95 97 96 93 93 93 93 93 92 94 95 95 93 79 77 62 52 48 51 50 39 37 36 36 42 51 71 66
79 80 83 85 89 93 95 95 93 90 86 86 85 82 85 92 98 98 98 97 93 95 95 94 95 96 97 89 78 70 62 59 53 51 52 43 36 35 35 33 34 51 71
80 88 92 89 87 88 84 79 81 81 81 80 78 83 88 88 94 96 96 97 94 94 93 93 93 95 95 92 86 74 71 62 57 58 53 49 44 44 46 49 42 34 44
82 78 78 76 71 66 62 61 62 63 65 67 74 81 86 90 91 93 92 87 86 89 93 93 92 87 88 89 81 78 76 73 72 58 58 56 55 51 50 39 42 40 47
68 64 64 60 56 53 53 53 51 55 58 64 67 69 73 78 81 83 86 86 84 87 87 85 74 80 85 81 78 77 75 77 77 66 57 58 54 52 51 42 37 43 60
62 60 55 48 50 49 46 48 51 54 55 59 61 69 69 69 70 71 77 82 88 88 83 83 82 80 87 79 80 82 79 81 76 72 63 57 51 48 47 41 40 50 60
58 54 48 47 47 46 47 51 53 56 61 64 65 62 62 64 66 66 66 68 71 73 78 77 79 78 77 78 81 84 82 82 81 76 67 58 48 46 47 37 33 48 58
56 50 44 42 47 50 49 49 52 52 52 55 58 59 61 65 70 72 70 70 69 80 79 86 86 90 79 88 90 80 84 80 75 73 60 56 49 48 43 35 34 37 43
53 47 48 48 49 49 48 48 47 47 49 50 52 59 65 69 73 75 76 81 81 82 82 82 86 85 84 81 83 90 79 83 87 69 62 55 51 47 38 36 36 37 35
50 52 52 50 49 49 50 45 42 41 41 43 45 48 51 56 62 66 70 75 81 83 83 85 88 88 86 83 83 80 81 82 77 71 62 57 52 44 42 39 38 37 37
53 52 51 53 52 51 46 41 41 42 44 45 45 46 47 47 47 48 52 61 72 80 82 82 85 85 86 83 80 84 88 91 83 73 60 62 55 46 42 42 41 42 35
49 51 53 52 47 46 44 43 42 43 45 46 47 49 48 48 50 52 54 56 57 65 72 81 86 82 84 83 81 81 89 77 80 72 70 64 54 46 44 40 40 37 35
51 52 52 48 44 43 45 44 45 44 45 47 48 49 50 50 51 53 56 57 57 61 64 67 76 84 83 84 83 84 77 74 73 69 65 57 50 46 39 35 30 27 25
52 47 47 45 45 44 45 45 47 48 48 48 48 49 50 50 50 53 56 58 59 61 61 65 71 80 81 81 79 76 76 74 72 73 60 51 45 39 36 37 26 28 24
46 48 48 47 46 45 47 48 49 49 47 46 48 50 51 53 55 57 60 62 62 63 65 66 72 79 82 82 73 72 71 72 68 59 55 46 40 41 32 32 30 30 27
51 53 50 48 48 49 49 50 50 50 51 52 53 53 54 55 59 62 65 68 70 68 68 69 73 78 80 78 76 69 70 65 54 52 52 50 45 36 33 34 35 34 33
55 54 52 52 51 52 54 55 54 54 55 56 57 57 59 60 63 68 71 71 74 74 73 74 76 81 83 77 77 76 70 54 47 49 46 50 39 40 40 40 40 37 39

GFSMA_prec_cthk_111.txt.gz
RH
25 27 29 31 31 32 34 34 35 35 36 36 36 34 32 32 30 28 29 32 34 37 41 46 52 55 56 52 49 51 52 53 57 57 56 54 51 48 46 45 38 35 34
30 33 35 36 36 37 38 38 39 40 42 43 42 42 41 40 38 34 32 34 37 41 45 52 60 64 63 59 53 51 55 60 61 61 60 59 56 51 50 46 40 40 37
37 39 39 39 38 38 39 40 41 43 46 48 48 47 48 48 49 48 42 42 41 45 51 55 60 63 65 62 53 50 58 61 63 65 64 61 55 54 53 49 44 43 42
38 39 40 41 42 43 44 44 46 48 50 50 50 50 50 49 48 50 49 47 49 53 55 58 60 62 61 58 56 56 54 56 61 65 65 61 60 58 56 52 53 48 46
43 44 46 48 48 48 50 51 52 54 55 56 56 55 55 56 57 59 64 66 60 58 60 66 68 66 62 62 59 51 52 52 54 59 64 62 63 59 55 56 57 54 50
48 51 52 54 53 54 56 58 60 61 61 63 63 64 63 64 68 70 73 74 73 68 63 67 72 71 69 73 69 70 63 54 49 52 55 63 68 63 59 55 57 55 53
51 53 55 56 59 62 63 66 67 66 67 70 72 72 70 75 79 82 83 80 80 76 74 77 81 86 88 88 89 81 69 59 53 51 50 53 58 62 63 59 60 59 56
54 56 58 61 63 64 69 71 70 73 76 81 80 79 80 84 91 89 87 88 88 88 87 87 89 91 95 90 91 90 80 65 60 55 54 51 50 52 61 53 59 61 59
64 66 71 73 78 81 85 81 81 87 91 87 88 88 86 84 85 90 91 90 89 89 92 92 91 91 91 91 96 94 87 74 69 64 51 50 50 51 46 43 52 61 66
75 76 83 85 86 88 89 93 96 95 90 84 82 83 83 79 84 85 88 92 93 96 96 94 92 93 93 96 97 95 89 76 68 59 49 49 53 54 45 39 42 55 76
85 88 88 91 91 95 92 95 90 82 84 79 78 76 67 67 70 79 84 94 95 96 95 94 89 90 93 95 97 95 87 85 70 72 58 52 59 53 51 42 42 39 52
87 89 88 94 94 89 82 76 83 82 72 67 65 62 63 65 69 69 74 83 89 89 91 87 87 88 90 90 91 97 94 82 74 73 70 58 58 52 54 54 52 54 42
91 89 90 91 87 87 76 64 61 58 55 56 58 60 61 61 63 68 71 75 75 76 77 83 87 87 87 87 86 91 94 88 81 77 80 75 59 58 60 50 50 47 43
93 93 88 86 77 68 60 56 53 49 51 52 54 54 54 57 60 62 65 66 65 69 69 79 90 93 89 87 87 94 94 71 87 83 83 75 70 60 55 50 50 39 45
83 75 72 69 63 57 50 48 46 49 49 49 47 49 53 56 55 54 58 61 62 68 68 73 74 76 74 81 89 98 90 88 84 89 84 84 71 64 65 53 47 49 46
71 66 64 59 56 52 46 41 42 44 45 49 51 49 40 43 50 52 56 59 63 66 66 68 71 73 83 84 85 85 83 91 94 92 89 80 78 73 60 53 47 57 51
68 65 61 57 54 49 41 39 38 40 42 39 37 38 40 42 43 45 50 55 63 69 72 77 82 86 86 90 90 88 90 98 95 94 88 82 77 64 64 57 52 42 50
63 63 60 56 52 47 39 41 40 41 39 37 35 36 37 39 40 42 44 45 48 55 58 66 73 76 81 86 88 89 92 93 95 95 85 90 82 64 66 64 51 37 41
62 62 61 60 52 46 44 44 43 41 37 35 34 34 34 36 38 39 40 42 43 47 50 55 56 63 77 83 88 89 92 92 87 83 87 86 82 70 69 63 46 39 46
60 61 61 57 49 46 47 47 42 38 34 35 34 35 35 37 38 40 41 42 43 47 50 55 57 59 64 69 82 86 90 90 91 92 93 88 85 75 72 66 50 46 44
60 57 53 49 46 48 48 43 38 39 36 36 36 37 38 39 40 41 42 42 43 48 51 54 57 59 65 69 78 82 83 86 89 91 92 83 82 82 78 64 51 48 47
50 50 51 52 49 49 46 43 39 40 39 41 40 40 40 40 40 40 41 42 46 50 51 56 59 61 65 68 71 79 86 89 84 91 88 80 79 78 69 56 47 47 41
51 51 54 51 44 44 45 45 43 42 45 45 41 38 39 42 43 43 43 45 48 52 56 59 63 63 64 69 72 80 82 89 82 79 80 77 78 72 63 52 47 41 35
50 52 49 43 47 53 51 48 45 46 45 44 40 40 43 44 46 45 47 50 53 57 60 64 67 68 67 69 71 79 84 88 84 77 76 75 67 61 51 44 34 35 40
49 52 55 57 56 54 51 48 47 45 46 48 45 43 44 47 48 48 51 53 56 60 66 68 70 72 71 71 73 78 80 82 80 76 74 67 56 50 43 39 42 38 40
56 60 62 60 58 53 50 47 48 51 50 50 49 48 50 51 54 54 55 58 61 64 70 72 74 76 76 76 78 78 88 82 83 77 62 59 50 47 49 47 41 42 40

GFSMA_prec_cthk_114.txt.gz
RH
28 31 33 35 36 33 33 34 35 35 35 36 35 36 36 37 35 33 35 32 34 37 41 45 49 52 55 55 55 53 49 52 54 56 56 56 54 52 50 44 41 37 35
32 34 35 36 36 35 36 38 39 39 40 43 42 41 41 42 43 43 42 41 41 43 45 48 52 55 55 51 54 55 54 55 57 57 60 60 58 55 54 48 46 41 38
33 32 34 37 38 39 39 40 41 44 48 46 49 47 47 47 47 48 46 46 44 45 48 53 59 58 55 52 51 51 52 50 55 56 60 62 62 59 58 52 50 47 44
36 38 41 41 41 41 41 43 45 48 52 51 51 49 49 48 49 49 51 54 56 57 59 62 65 68 65 61 60 59 51 50 51 52 54 58 63 63 60 56 53 49 47
42 44 43 43 43 44 45 47 49 52 53 54 53 52 52 53 54 53 55 61 66 69 69 68 70 70 69 69 67 68 72 68 59 51 51 54 57 65 65 60 58 55 51
44 43 44 45 48 50 51 52 55 57 59 58 58 58 60 61 62 65 66 69 73 74 74 76 78 75 73 76 82 84 82 77 68 63 50 51 58 64 67 63 57 54 56
48 48 51 55 57 58 58 60 63 64 64 63 64 66 67 72 73 74 77 79 82 81 80 81 84 87 86 88 87 90 88 87 80 66 58 57 59 59 69 68 65 54 59
53 54 56 59 59 59 62 64 65 68 69 69 68 76 77 80 74 77 79 82 85 84 83 85 85 91 92 90 89 91 90 89 87 75 65 62 57 57 52 62 71 61 59
54 58 60 60 61 63 66 67 70 76 79 75 78 81 77 75 69 68 73 78 81 87 88 88 88 89 90 89 90 93 94 93 91 85 69 65 57 52 54 61 65 65 64
61 63 65 65 68 76 81 82 88 88 83 79 84 65 64 69 64 57 56 67 71 74 83 92 92 93 93 92 91 93 93 95 93 87 80 78 64 57 58 60 57 56 64
71 72 74 75 81 87 92 92 90 82 80 62 67 64 54 56 53 54 55 58 66 68 74 82 88 90 87 86 86 88 92 92 91 90 87 74 71 61 61 58 49 56 59
78 81 85 86 87 92 97 93 77 64 60 62 62 57 57 55 52 54 58 60 65 64 68 69 73 76 80 83 86 88 90 93 98 95 87 76 77 75 64 58 56 62 57
85 89 91 91 96 98 90 86 79 61 62 58 55 54 54 53 52 52 55 57 55 56 59 62 64 66 72 81 80 84 87 91 98 97 94 85 77 79 70 65 63 60 59
91 88 86 94 93 93 97 83 69 59 55 51 50 51 53 49 49 52 53 54 53 51 53 55 57 61 63 70 78 81 84 90 97 98 93 94 86 78 79 73 60 49 51
95 91 87 90 96 94 86 69 57 51 50 49 48 48 48 47 47 41 40 43 44 46 48 54 58 62 66 70 75 78 85 86 89 89 88 93 94 89 79 77 67 64 53
90 91 89 95 90 78 67 59 55 51 47 46 47 48 46 37 34 34 34 35 36 40 42 45 49 54 64 67 72 80 82 87 89 92 92 98 97 95 86 77 70 64 66
89 87 88 83 77 69 63 60 55 50 44 43 41 37 34 31 31 30 32 33 35 37 39 40 42 45 48 57 60 71 75 78 88 90 97 95 96 94 86 87 70 71 74
86 82 79 73 70 70 65 59 52 47 41 40 38 35 31 30 31 31 31 32 32 32 32 39 39 43 45 48 52 56 63 69 80 85 91 92 95 92 91 86 76 74 72
83 80 74 68 66 67 62 58 52 48 45 41 38 34 31 32 32 32 33 34 33 32 35 35 37 41 48 50 54 58 63 68 76 85 88 91 89 93 94 87 77 75 76
82 78 73 68 67 62 58 57 55 51 46 42 38 34 32 32 32 35 35 35 37 36 34 37 40 42 46 50 54 57 60 66 75 78 87 94 94 96 96 88 85 81 75
80 75 72 66 63 61 59 56 53 50 46 42 40 35 32 34 36 36 36 34 36 35 36 37 43 46 49 52 60 62 67 70 73 79 81 85 91 93 94 90 85 88 77
74 71 67 64 60 57 55 53 52 48 45 45 43 36 36 37 36 37 39 37 38 37 36 41 46 50 53 56 62 64 67 70 73 78 84 87 85 89 91 86 85 87 67
58 56 55 56 56 55 55 55 51 47 45 45 41 38 37 37 39 40 39 40 41 40 42 48 49 52 56 59 64 68 68 70 71 78 81 92 88 84 85 83 81 70 60
55 55 55 55 57 58 57 52 49 48 46 45 43 39 41 43 45 42 41 41 44 45 46 50 51 54 58 62 65 69 71 71 74 78 81 89 90 82 79 77 69 64 45
56 54 54 53 53 53 53 52 53 52 48 45 42 44 46 47 48 46 46 47 48 49 49 50 53 57 60 65 69 72 74 74 76 80 83 91 84 79 73 62 61 47 39
59 57 56 55 57 58 58 56 54 52 47 48 49 50 52 55 52 49 55 53 53 52 51 52 57 60 64 67 73 77 78 77 78 82 84 81 82 73 65 50 46 43 41

GFSMA_prec_cthk_117.txt.gz
RH
37 29 31 33 35 36 35 36 37 38 38 38 39 39 40 41 40 39 37 34 36 37 40 43 46 46 46 45 45 46 49 52 51 52 51 52 54 53 52 50 45 41 38
37 31 34 39 38 43 40 39 40 41 42 42 42 42 42 43 45 47 47 43 43 42 43 44 49 53 55 54 50 49 51 50 50 53 54 57 57 56 58 54 49 46 41
37 37 40 44 45 43 42 43 43 43 44 46 46 46 47 48 47 47 49 50 47 47 49 54 58 62 64 62 62 59 53 52 56 54 55 55 56 59 63 60 54 52 46
39 43 45 45 45 46 46 46 45 46 49 51 53 51 50 49 49 49 47 48 52 56 59 63 65 68 72 72 69 63 61 70 68 63 60 54 52 58 63 65 61 58 52
37 40 44 45 47 47 47 47 49 51 53 54 52 51 49 49 51 55 57 58 60 63 69 70 70 70 75 75 72 72 79 81 81 78 72 65 55 56 65 70 67 63 56
39 42 46 49 49 49 50 50 55 54 57 58 53 52 53 57 61 66 68 70 71 71 74 76 74 74 76 80 83 84 85 83 83 83 79 71 64 60 63 71 71 71 64
40 45 49 51 51 51 54 53 54 56 57 58 57 60 62 66 67 70 68 71 74 72 73 75 81 82 80 83 85 86 85 86 87 84 83 80 67 69 70 77 67 68 71
41 45 50 52 54 56 58 58 59 60 61 63 68 69 72 74 69 69 64 62 66 72 73 75 77 77 79 85 88 89 87 85 86 84 83 84 71 65 69 75 68 79 79
47 48 54 56 57 57 60 60 61 61 66 74 75 77 80 75 72 66 58 54 55 57 61 65 67 72 80 81 85 88 89 90 90 86 86 86 80 68 63 67 71 79 83
55 53 56 55 57 58 61 61 67 76 85 87 80 74 74 62 58 56 52 51 52 56 60 65 64 69 74 75 79 84 88 91 91 92 94 93 87 80 76 65 61 66 73
56 54 56 58 62 63 66 75 82 88 87 88 77 63 67 63 58 55 51 49 52 56 56 61 64 67 70 68 69 72 73 75 82 89 97 95 90 91 84 79 67 67 62
56 60 61 63 69 75 82 84 90 91 83 78 66 57 56 57 57 51 46 47 51 53 52 52 53 53 55 57 61 67 73 75 79 85 90 94 95 91 90 84 80 77 65
61 64 68 76 82 85 86 90 90 70 74 68 62 59 55 54 55 51 48 47 48 43 42 40 41 44 47 48 52 57 62 66 70 77 84 88 93 93 95 85 84 77 73
76 77 77 84 87 90 89 89 82 79 79 72 69 57 51 48 49 46 43 42 43 42 41 43 43 41 39 40 42 45 48 56 64 74 77 83 92 91 95 90 80 76 72
85 83 85 87 92 90 89 88 88 82 75 60 49 46 47 49 48 41 41 38 39 39 38 40 44 44 43 41 44 46 51 54 61 66 73 82 87 90 96 94 92 81 75
92 95 93 87 92 87 90 90 89 75 66 53 47 48 51 49 43 37 31 32 32 33 37 34 37 36 36 37 38 44 47 54 58 60 64 71 82 90 92 95 91 82 77
91 94 97 96 93 88 94 93 76 65 59 52 51 48 45 41 34 32 30 29 29 31 34 34 31 32 32 36 37 39 44 51 57 59 62 66 72 82 85 93 93 86 85
93 90 91 93 92 92 91 81 73 67 60 54 49 42 39 37 35 34 31 29 29 30 32 33 33 32 35 38 38 38 44 47 52 57 61 66 71 77 84 86 92 90 92
88 91 92 95 95 85 80 73 68 65 58 53 49 45 39 38 36 32 31 31 29 30 30 31 32 34 35 37 40 41 45 49 56 58 62 67 76 78 79 82 94 95 92
95 93 91 85 82 77 74 70 63 59 58 54 52 45 40 39 38 36 33 31 30 30 31 32 33 35 39 42 44 42 45 49 56 63 64 71 76 82 81 84 87 92 93
93 87 81 78 76 74 72 66 63 61 58 55 52 45 44 42 41 38 37 34 31 31 32 33 35 38 41 44 50 51 48 54 57 64 70 72 74 78 84 84 85 91 97
86 83 79 76 73 74 71 66 63 61 56 55 50 47 46 43 40 39 37 34 33 34 36 39 38 42 45 50 51 54 56 58 61 67 72 73 75 76 79 85 89 88 93
79 84 85 81 75 70 69 65 62 58 55 52 49 48 46 42 40 39 39 37 35 35 37 38 40 43 48 50 54 57 58 63 63 70 73 74 75 76 81 88 87 86 86
72 71 65 61 60 61 62 63 62 59 59 54 50 48 44 41 39 42 44 40 40 40 43 43 44 47 48 51 54 58 62 65 68 72 74 74 76 78 84 89 85 85 81
65 64 62 59 57 58 59 63 62 58 55 52 50 47 45 45 46 45 46 46 44 44 45 46 47 49 51 55 57 60 64 67 72 77 78 76 78 79 83 84 83 81 71
71 69 67 63 61 61 61 60 59 56 55 53 50 47 46 47 51 52 51 51 51 49 49 50 52 50 53 57 60 62 66 72 78 82 83 79 78 80 83 80 75 65 63

GFSMA_prec_cthk_120.txt.gz
RH
37 30 27 25 26 27 29 30 31 34 34 36 38 38 39 39 40 37 38 37 38 40 43 46 48 48 47 49 52 53 54 54 53 51 49 51 51 53 54 53 51 51 44
36 32 29 28 30 33 32 34 37 38 39 40 40 41 40 43 43 44 44 44 43 45 46 48 50 57 61 62 60 60 58 55 59 59 59 55 53 54 54 56 53 55 47
35 32 29 30 34 42 37 39 40 40 41 43 44 45 44 43 44 44 47 47 46 46 49 52 58 66 67 66 67 67 62 64 65 68 68 64 61 54 53 55 59 61 58
39 35 34 38 41 41 42 40 41 42 44 45 48 49 48 48 49 50 50 51 53 54 56 59 63 70 73 72 74 75 76 82 78 77 75 72 69 64 59 61 66 70 67
41 33 36 44 43 43 43 42 42 43 46 48 50 50 50 50 51 55 59 60 62 63 63 67 70 69 72 77 83 85 88 90 84 84 84 78 76 76 68 69 69 72 73
41 41 42 42 43 42 42 42 41 47 51 52 51 50 52 56 58 60 66 67 68 68 65 66 70 70 69 73 76 79 82 84 81 79 79 84 84 86 86 79 76 73 75
37 39 40 40 42 40 42 42 46 51 54 55 53 55 61 61 63 64 64 64 61 62 61 64 59 62 68 75 75 78 83 85 84 83 86 83 84 86 84 88 82 82 78
36 37 38 41 42 44 46 48 52 53 55 55 56 64 68 72 75 71 66 62 54 52 52 56 58 58 65 68 70 75 77 81 81 86 88 89 88 84 78 74 83 87 88
35 38 39 43 46 49 50 52 56 57 57 58 64 68 71 75 77 73 65 59 52 50 53 54 57 59 63 63 67 71 71 70 72 75 76 77 78 78 78 73 74 80 83
38 40 42 48 50 53 54 58 61 60 59 67 76 80 73 74 68 66 56 52 48 46 49 52 53 59 63 64 61 63 60 62 66 68 74 73 78 78 77 81 79 76 74
38 38 46 55 52 57 59 61 62 62 68 75 81 83 75 68 61 61 57 51 43 44 47 50 49 49 54 52 54 53 54 55 58 60 62 67 73 79 84 87 87 80 79
41 45 51 55 58 63 64 64 67 75 80 79 81 79 67 55 55 58 57 49 43 42 41 43 41 41 43 45 45 46 47 52 53 55 56 62 64 70 80 86 85 84 86
43 49 56 59 66 66 68 73 77 82 77 79 77 64 62 60 61 57 53 47 42 37 39 38 36 36 37 39 39 42 45 49 48 50 52 54 61 68 75 81 89 86 80
45 49 54 65 69 71 77 80 86 83 80 71 62 59 56 59 55 52 50 42 38 36 34 34 36 37 36 34 34 35 39 42 47 50 54 56 59 63 66 72 80 82 85
52 56 64 72 75 81 86 84 86 84 81 71 73 68 58 49 49 53 46 39 39 32 31 34 32 34 36 36 33 32 35 38 44 50 55 56 60 60 70 74 72 79 86
61 64 71 81 83 85 85 86 86 86 81 82 75 62 53 51 49 48 43 34 28 28 30 31 31 31 31 31 30 33 35 37 40 48 52 57 59 61 64 75 75 77 79
78 79 87 85 87 85 86 85 83 88 88 83 68 58 53 48 47 42 35 32 29 29 31 32 31 30 31 32 33 35 37 39 41 45 52 56 60 63 66 69 71 75 74
92 89 90 93 95 88 86 87 85 88 88 79 64 58 53 49 41 39 35 33 30 30 31 30 29 28 29 30 31 34 36 36 42 44 48 52 58 60 68 73 74 72 76
96 98 98 95 92 91 93 92 94 96 83 73 66 59 52 49 45 41 36 34 33 32 30 29 29 29 29 29 31 32 37 38 39 43 48 48 55 60 68 71 80 78 76
95 95 95 97 96 93 92 89 93 83 75 68 62 56 55 54 48 42 37 37 35 34 33 30 30 32 32 33 33 36 39 44 46 47 47 52 62 64 69 73 77 77 79
87 90 87 87 92 94 93 89 86 80 75 69 60 58 56 54 50 42 40 40 37 35 33 34 35 33 34 34 35 38 42 46 49 49 53 56 62 67 72 75 76 76 80
93 90 94 97 94 85 79 78 77 77 72 66 63 61 57 56 50 44 42 40 38 35 36 38 38 39 39 39 39 40 45 47 50 52 57 62 68 69 73 76 78 76 81
94 96 99 96 90 88 83 81 76 73 70 69 66 62 56 52 47 44 42 40 37 37 39 40 44 43 40 40 42 44 48 52 52 56 58 65 68 72 75 77 79 81 85
91 95 96 93 91 89 84 78 72 71 70 68 63 60 56 52 48 45 43 40 40 41 43 45 47 48 44 42 42 44 49 53 54 57 61 64 70 73 77 78 80 83 84
87 89 90 91 88 81 74 68 66 66 66 65 63 59 56 52 51 46 43 44 43 45 47 49 51 50 49 49 49 49 49 52 54 59 64 67 75 78 80 78 81 83 82
85 83 82 79 74 70 67 65 66 63 63 63 62 60 55 52 50 47 46 47 48 50 53 53 54 53 51 53 55 53 55 55 58 63 67 74 80 84 83 81 81 82 80

GFSMA_prec_cthk_123.txt.gz
RH
42 30 28 23 22 25 26 27 28 29 30 30 32 35 38 37 38 38 38 38 40 42 43 45 47 49 51 56 56 58 58 55 61 64 63 64 62 58 56 57 55 56 56
35 30 29 24 25 27 27 29 29 30 31 34 37 40 41 41 42 41 43 45 45 44 45 46 49 54 60 62 63 62 61 63 67 69 70 71 69 66 60 54 51 54 58
32 31 29 26 26 28 29 31 31 32 35 37 39 40 41 42 43 44 44 45 46 47 49 52 55 61 67 70 68 71 69 72 74 75 74 73 71 70 71 69 64 62 63
33 33 29 28 30 31 32 32 34 36 37 40 43 43 45 45 47 48 49 50 50 52 56 56 60 64 65 70 72 80 83 85 81 78 76 75 74 76 76 75 75 70 69
34 34 31 30 32 33 35 34 36 37 40 43 46 47 48 50 51 51 52 56 60 61 63 61 59 66 70 68 69 71 77 80 79 79 79 79 81 80 78 83 83 81 78
33 38 35 33 33 35 37 37 38 41 43 46 48 50 53 52 52 54 59 59 61 59 61 60 59 58 59 61 65 68 75 78 77 78 75 78 76 79 83 84 80 79 84
39 42 39 34 33 38 39 39 41 43 47 48 50 53 55 55 58 60 61 62 59 56 52 48 49 53 57 61 68 66 71 72 72 73 73 70 68 67 63 65 78 83 87
41 41 35 31 36 40 41 40 43 47 51 51 54 55 57 66 66 67 70 66 58 55 50 53 54 52 55 59 62 61 62 69 69 69 70 69 67 66 66 68 69 65 80
42 44 39 34 39 41 39 43 45 49 52 54 55 55 64 66 70 69 74 66 59 50 46 49 51 51 53 54 62 60 62 59 59 58 62 61 66 63 63 62 62 64 72
44 45 41 38 44 41 43 46 48 53 56 55 57 61 68 70 68 71 64 62 51 46 44 47 50 50 52 56 55 52 50 48 48 48 51 53 57 68 67 66 68 74 73
48 47 40 41 42 42 48 50 52 59 57 59 62 68 75 75 74 64 58 56 51 43 39 43 47 45 44 43 43 44 43 42 44 44 46 49 52 56 59 63 64 66 65
50 47 42 43 42 48 52 53 61 61 61 65 69 72 74 77 76 69 57 55 52 41 37 38 36 36 39 38 38 39 39 40 42 44 46 47 49 49 52 57 63 67 69
50 49 45 49 47 50 54 62 66 61 71 74 72 74 75 79 77 61 53 50 45 41 41 37 35 33 35 33 32 31 32 34 37 37 38 39 41 44 50 56 60 65 66
47 47 54 46 45 55 62 68 66 69 79 80 73 75 74 75 64 53 50 46 43 40 38 33 33 35 36 35 32 30 30 31 32 33 35 39 43 45 49 55 59 57 64
49 58 54 44 50 54 65 72 72 78 80 79 82 82 72 66 67 57 48 47 44 41 34 31 32 32 32 30 28 26 26 29 32 32 35 38 42 46 49 52 56 59 62
52 65 58 54 51 56 67 76 82 84 85 87 85 85 78 70 63 57 48 46 42 33 30 29 29 29 28 26 26 26 27 29 31 32 35 39 44 50 50 50 50 56 59
78 76 61 54 54 58 69 77 80 83 84 86 87 85 77 74 58 50 46 43 36 34 30 29 28 28 28 27 26 27 28 31 33 33 36 42 47 50 50 52 54 58 60
80 65 59 62 65 68 74 75 83 84 80 88 86 85 86 73 60 52 46 40 37 36 34 32 30 28 27 27 26 26 26 31 33 34 33 41 43 49 51 52 57 57 58
98 90 81 73 74 76 77 81 86 89 87 90 87 89 88 74 61 51 48 45 42 39 35 34 32 31 29 27 29 28 29 32 35 39 40 42 49 53 51 50 57 64 63
96 97 96 95 94 93 94 96 95 92 95 92 93 92 87 73 62 56 53 51 47 43 38 35 35 32 31 32 31 31 32 34 37 41 44 49 53 55 56 55 57 64 63
93 98 96 97 98 98 98 97 94 97 94 97 96 86 79 72 68 63 58 56 52 48 42 38 37 35 35 34 34 35 37 39 39 43 46 51 54 59 58 60 66 67 66
92 91 89 90 92 95 99 96 91 94 97 96 88 83 77 73 69 64 59 57 53 47 42 38 36 36 36 36 38 39 40 40 42 45 49 54 56 57 63 66 68 71 71
94 93 94 93 96 99 97 97 96 96 95 89 83 77 75 73 66 61 58 55 50 44 40 37 37 38 39 40 41 42 43 44 46 47 50 55 59 60 62 66 66 73 77
96 98 95 98 98 98 95 91 89 87 85 81 72 73 72 71 68 66 58 53 47 43 40 39 40 41 42 45 45 46 46 47 48 51 55 54 57 61 64 66 68 73 76
85 91 93 95 97 98 97 96 98 91 87 82 72 73 74 71 68 62 56 51 47 43 43 42 43 45 47 48 49 51 52 53 53 55 60 56 60 62 67 68 71 80 80
90 92 96 97 98 99 98 98 97 92 90 83 73 69 70 68 65 61 56 51 48 47 46 48 48 50 51 51 53 54 55 57 58 60 62 59 60 66 65 71 82 85 87